<?xml version="1.0" encoding="UTF-8" standalone="no" ?>
<gpx xmlns="http://www.topografix.com/GPX/1/1" xmlns:xsi="http://www.w3.org/2001/XMLSchema-instance" xsi:schemaLocation="http://www.topografix.com/GPX/1/1 http://www.topografix.com/GPX/1/1/gpx.xsd" version="1.1" creator="VisuGPX - https://www.visugpx.com">
  <metadata>
    <name>Ste-Victoire 2022</name>
  </metadata>
  <trk>
    <name><![CDATA[Ste-Victoire 2022]]></name>
    <trkseg>
      <trkpt lat="43.5239" lon="5.51408">
        <ele>212.73</ele>
        <time>2022-03-31T06:34:03Z</time>
      </trkpt>
      <trkpt lat="43.52392" lon="5.51419">
        <ele>212.73</ele>
        <time>2022-03-31T06:34:19Z</time>
      </trkpt>
      <trkpt lat="43.52392" lon="5.51431">
        <ele>214.26</ele>
        <time>2022-03-31T06:34:29Z</time>
      </trkpt>
      <trkpt lat="43.52391" lon="5.51439">
        <ele>216</ele>
        <time>2022-03-31T06:34:40Z</time>
      </trkpt>
      <trkpt lat="43.52382" lon="5.5146">
        <ele>218.14</ele>
        <time>2022-03-31T06:34:56Z</time>
      </trkpt>
      <trkpt lat="43.52375" lon="5.51465">
        <ele>219.22</ele>
        <time>2022-03-31T06:35:10Z</time>
      </trkpt>
      <trkpt lat="43.52378" lon="5.5147">
        <ele>219.28</ele>
        <time>2022-03-31T06:35:19Z</time>
      </trkpt>
      <trkpt lat="43.52381" lon="5.51475">
        <ele>219.5</ele>
        <time>2022-03-31T06:35:22Z</time>
      </trkpt>
      <trkpt lat="43.52382" lon="5.51477">
        <ele>219.71</ele>
        <time>2022-03-31T06:35:23Z</time>
      </trkpt>
      <trkpt lat="43.52383" lon="5.51479">
        <ele>219.98</ele>
        <time>2022-03-31T06:35:24Z</time>
      </trkpt>
      <trkpt lat="43.52384" lon="5.51482">
        <ele>220.2</ele>
        <time>2022-03-31T06:35:25Z</time>
      </trkpt>
      <trkpt lat="43.52384" lon="5.51483">
        <ele>220.39</ele>
        <time>2022-03-31T06:35:26Z</time>
      </trkpt>
      <trkpt lat="43.52386" lon="5.51486">
        <ele>220.69</ele>
        <time>2022-03-31T06:35:28Z</time>
      </trkpt>
      <trkpt lat="43.52394" lon="5.51496">
        <ele>222.51</ele>
        <time>2022-03-31T06:35:39Z</time>
      </trkpt>
      <trkpt lat="43.52407" lon="5.51507">
        <ele>224.41</ele>
        <time>2022-03-31T06:35:55Z</time>
      </trkpt>
      <trkpt lat="43.52423" lon="5.51525">
        <ele>227.28</ele>
        <time>2022-03-31T06:36:13Z</time>
      </trkpt>
      <trkpt lat="43.52434" lon="5.5153">
        <ele>229.17</ele>
        <time>2022-03-31T06:36:29Z</time>
      </trkpt>
      <trkpt lat="43.52437" lon="5.5153">
        <ele>229.44</ele>
        <time>2022-03-31T06:36:31Z</time>
      </trkpt>
      <trkpt lat="43.52438" lon="5.51531">
        <ele>229.5</ele>
        <time>2022-03-31T06:36:32Z</time>
      </trkpt>
      <trkpt lat="43.52445" lon="5.51535">
        <ele>230.13</ele>
        <time>2022-03-31T06:36:40Z</time>
      </trkpt>
      <trkpt lat="43.52451" lon="5.51537">
        <ele>232.26</ele>
        <time>2022-03-31T06:36:50Z</time>
      </trkpt>
      <trkpt lat="43.52462" lon="5.51537">
        <ele>235.07</ele>
        <time>2022-03-31T06:37:06Z</time>
      </trkpt>
      <trkpt lat="43.52467" lon="5.51539">
        <ele>236.89</ele>
        <time>2022-03-31T06:37:13Z</time>
      </trkpt>
      <trkpt lat="43.52474" lon="5.5154">
        <ele>238.68</ele>
        <time>2022-03-31T06:37:24Z</time>
      </trkpt>
      <trkpt lat="43.52477" lon="5.51557">
        <ele>241.49</ele>
        <time>2022-03-31T06:37:40Z</time>
      </trkpt>
      <trkpt lat="43.52478" lon="5.51568">
        <ele>242.6</ele>
        <time>2022-03-31T06:37:49Z</time>
      </trkpt>
      <trkpt lat="43.52478" lon="5.51574">
        <ele>243.13</ele>
        <time>2022-03-31T06:37:53Z</time>
      </trkpt>
      <trkpt lat="43.52479" lon="5.51592">
        <ele>244.81</ele>
        <time>2022-03-31T06:38:05Z</time>
      </trkpt>
      <trkpt lat="43.52479" lon="5.51613">
        <ele>245.82</ele>
        <time>2022-03-31T06:38:19Z</time>
      </trkpt>
      <trkpt lat="43.52479" lon="5.51618">
        <ele>245.98</ele>
        <time>2022-03-31T06:38:22Z</time>
      </trkpt>
      <trkpt lat="43.52479" lon="5.51633">
        <ele>247.72</ele>
        <time>2022-03-31T06:38:35Z</time>
      </trkpt>
      <trkpt lat="43.52479" lon="5.51653">
        <ele>248.89</ele>
        <time>2022-03-31T06:38:48Z</time>
      </trkpt>
      <trkpt lat="43.52476" lon="5.51674">
        <ele>249.75</ele>
        <time>2022-03-31T06:39:01Z</time>
      </trkpt>
      <trkpt lat="43.52475" lon="5.51681">
        <ele>250.05</ele>
        <time>2022-03-31T06:39:06Z</time>
      </trkpt>
      <trkpt lat="43.52474" lon="5.51701">
        <ele>250.88</ele>
        <time>2022-03-31T06:39:19Z</time>
      </trkpt>
      <trkpt lat="43.52472" lon="5.51715">
        <ele>251.59</ele>
        <time>2022-03-31T06:39:33Z</time>
      </trkpt>
      <trkpt lat="43.52472" lon="5.51718">
        <ele>251.62</ele>
        <time>2022-03-31T06:39:35Z</time>
      </trkpt>
      <trkpt lat="43.52472" lon="5.51721">
        <ele>251.66</ele>
        <time>2022-03-31T06:39:37Z</time>
      </trkpt>
      <trkpt lat="43.52472" lon="5.51723">
        <ele>251.7</ele>
        <time>2022-03-31T06:39:38Z</time>
      </trkpt>
      <trkpt lat="43.52472" lon="5.51724">
        <ele>251.77</ele>
        <time>2022-03-31T06:39:39Z</time>
      </trkpt>
      <trkpt lat="43.52473" lon="5.51726">
        <ele>251.91</ele>
        <time>2022-03-31T06:39:40Z</time>
      </trkpt>
      <trkpt lat="43.52476" lon="5.51744">
        <ele>252.91</ele>
        <time>2022-03-31T06:39:52Z</time>
      </trkpt>
      <trkpt lat="43.52482" lon="5.51756">
        <ele>253.85</ele>
        <time>2022-03-31T06:40:03Z</time>
      </trkpt>
      <trkpt lat="43.52488" lon="5.51766">
        <ele>256.27</ele>
        <time>2022-03-31T06:40:18Z</time>
      </trkpt>
      <trkpt lat="43.52492" lon="5.51772">
        <ele>259.35</ele>
        <time>2022-03-31T06:40:33Z</time>
      </trkpt>
      <trkpt lat="43.52498" lon="5.51777">
        <ele>261.91</ele>
        <time>2022-03-31T06:40:48Z</time>
      </trkpt>
      <trkpt lat="43.52504" lon="5.51788">
        <ele>264.36</ele>
        <time>2022-03-31T06:41:05Z</time>
      </trkpt>
      <trkpt lat="43.5251" lon="5.51802">
        <ele>266.39</ele>
        <time>2022-03-31T06:41:22Z</time>
      </trkpt>
      <trkpt lat="43.52519" lon="5.51808">
        <ele>268.91</ele>
        <time>2022-03-31T06:41:38Z</time>
      </trkpt>
      <trkpt lat="43.52519" lon="5.5182">
        <ele>271.05</ele>
        <time>2022-03-31T06:41:52Z</time>
      </trkpt>
      <trkpt lat="43.52523" lon="5.51827">
        <ele>273.67</ele>
        <time>2022-03-31T06:42:08Z</time>
      </trkpt>
      <trkpt lat="43.52528" lon="5.51829">
        <ele>276.4</ele>
        <time>2022-03-31T06:42:24Z</time>
      </trkpt>
      <trkpt lat="43.52535" lon="5.51824">
        <ele>278.67</ele>
        <time>2022-03-31T06:42:41Z</time>
      </trkpt>
      <trkpt lat="43.52537" lon="5.51814">
        <ele>280.9</ele>
        <time>2022-03-31T06:42:57Z</time>
      </trkpt>
      <trkpt lat="43.52541" lon="5.5182">
        <ele>282.97</ele>
        <time>2022-03-31T06:43:11Z</time>
      </trkpt>
      <trkpt lat="43.52544" lon="5.5183">
        <ele>284.46</ele>
        <time>2022-03-31T06:43:24Z</time>
      </trkpt>
      <trkpt lat="43.52551" lon="5.5184">
        <ele>285.26</ele>
        <time>2022-03-31T06:43:39Z</time>
      </trkpt>
      <trkpt lat="43.52557" lon="5.51845">
        <ele>285.73</ele>
        <time>2022-03-31T06:43:49Z</time>
      </trkpt>
      <trkpt lat="43.52559" lon="5.51854">
        <ele>284.95</ele>
        <time>2022-03-31T06:44:03Z</time>
      </trkpt>
      <trkpt lat="43.52568" lon="5.51876">
        <ele>287.86</ele>
        <time>2022-03-31T06:44:23Z</time>
      </trkpt>
      <trkpt lat="43.52568" lon="5.51877">
        <ele>288.03</ele>
        <time>2022-03-31T06:44:24Z</time>
      </trkpt>
      <trkpt lat="43.52572" lon="5.51891">
        <ele>289.19</ele>
        <time>2022-03-31T06:44:34Z</time>
      </trkpt>
      <trkpt lat="43.52579" lon="5.51905">
        <ele>290.53</ele>
        <time>2022-03-31T06:44:47Z</time>
      </trkpt>
      <trkpt lat="43.52584" lon="5.51919">
        <ele>292.04</ele>
        <time>2022-03-31T06:44:59Z</time>
      </trkpt>
      <trkpt lat="43.52587" lon="5.51939">
        <ele>294.15</ele>
        <time>2022-03-31T06:45:14Z</time>
      </trkpt>
      <trkpt lat="43.52588" lon="5.51961">
        <ele>297</ele>
        <time>2022-03-31T06:45:30Z</time>
      </trkpt>
      <trkpt lat="43.52588" lon="5.51977">
        <ele>299.03</ele>
        <time>2022-03-31T06:45:42Z</time>
      </trkpt>
      <trkpt lat="43.52591" lon="5.51997">
        <ele>300.78</ele>
        <time>2022-03-31T06:45:58Z</time>
      </trkpt>
      <trkpt lat="43.52593" lon="5.52001">
        <ele>300.9</ele>
        <time>2022-03-31T06:46:01Z</time>
      </trkpt>
      <trkpt lat="43.52601" lon="5.52022">
        <ele>301.72</ele>
        <time>2022-03-31T06:46:15Z</time>
      </trkpt>
      <trkpt lat="43.52601" lon="5.52024">
        <ele>301.78</ele>
        <time>2022-03-31T06:46:16Z</time>
      </trkpt>
      <trkpt lat="43.52601" lon="5.52025">
        <ele>301.85</ele>
        <time>2022-03-31T06:46:17Z</time>
      </trkpt>
      <trkpt lat="43.52601" lon="5.52027">
        <ele>302.02</ele>
        <time>2022-03-31T06:46:18Z</time>
      </trkpt>
      <trkpt lat="43.52601" lon="5.52046">
        <ele>302.8</ele>
        <time>2022-03-31T06:46:29Z</time>
      </trkpt>
      <trkpt lat="43.52601" lon="5.52047">
        <ele>302.86</ele>
        <time>2022-03-31T06:46:30Z</time>
      </trkpt>
      <trkpt lat="43.52601" lon="5.52049">
        <ele>302.92</ele>
        <time>2022-03-31T06:46:31Z</time>
      </trkpt>
      <trkpt lat="43.52601" lon="5.5205">
        <ele>302.97</ele>
        <time>2022-03-31T06:46:32Z</time>
      </trkpt>
      <trkpt lat="43.526" lon="5.52052">
        <ele>303.02</ele>
        <time>2022-03-31T06:46:33Z</time>
      </trkpt>
      <trkpt lat="43.52595" lon="5.52066">
        <ele>303.2</ele>
        <time>2022-03-31T06:46:43Z</time>
      </trkpt>
      <trkpt lat="43.52595" lon="5.52067">
        <ele>303.18</ele>
        <time>2022-03-31T06:46:44Z</time>
      </trkpt>
      <trkpt lat="43.52594" lon="5.52069">
        <ele>303.15</ele>
        <time>2022-03-31T06:46:45Z</time>
      </trkpt>
      <trkpt lat="43.52594" lon="5.5207">
        <ele>303.11</ele>
        <time>2022-03-31T06:46:46Z</time>
      </trkpt>
      <trkpt lat="43.52593" lon="5.52072">
        <ele>303.07</ele>
        <time>2022-03-31T06:46:47Z</time>
      </trkpt>
      <trkpt lat="43.52587" lon="5.52098">
        <ele>301.73</ele>
        <time>2022-03-31T06:47:03Z</time>
      </trkpt>
      <trkpt lat="43.52583" lon="5.52119">
        <ele>300.2</ele>
        <time>2022-03-31T06:47:15Z</time>
      </trkpt>
      <trkpt lat="43.52581" lon="5.52143">
        <ele>298.52</ele>
        <time>2022-03-31T06:47:29Z</time>
      </trkpt>
      <trkpt lat="43.52578" lon="5.52164">
        <ele>297.18</ele>
        <time>2022-03-31T06:47:41Z</time>
      </trkpt>
      <trkpt lat="43.52576" lon="5.52177">
        <ele>296.37</ele>
        <time>2022-03-31T06:47:48Z</time>
      </trkpt>
      <trkpt lat="43.52576" lon="5.52178">
        <ele>296.26</ele>
        <time>2022-03-31T06:47:49Z</time>
      </trkpt>
      <trkpt lat="43.52576" lon="5.5218">
        <ele>296.14</ele>
        <time>2022-03-31T06:47:50Z</time>
      </trkpt>
      <trkpt lat="43.52576" lon="5.52208">
        <ele>294.01</ele>
        <time>2022-03-31T06:48:06Z</time>
      </trkpt>
      <trkpt lat="43.52585" lon="5.5222">
        <ele>292.91</ele>
        <time>2022-03-31T06:48:16Z</time>
      </trkpt>
      <trkpt lat="43.5259" lon="5.52233">
        <ele>291.53</ele>
        <time>2022-03-31T06:48:24Z</time>
      </trkpt>
      <trkpt lat="43.5259" lon="5.52234">
        <ele>291.4</ele>
        <time>2022-03-31T06:48:25Z</time>
      </trkpt>
      <trkpt lat="43.5259" lon="5.52236">
        <ele>291.27</ele>
        <time>2022-03-31T06:48:26Z</time>
      </trkpt>
      <trkpt lat="43.52591" lon="5.52238">
        <ele>291.16</ele>
        <time>2022-03-31T06:48:27Z</time>
      </trkpt>
      <trkpt lat="43.52594" lon="5.52252">
        <ele>290.29</ele>
        <time>2022-03-31T06:48:36Z</time>
      </trkpt>
      <trkpt lat="43.52595" lon="5.52256">
        <ele>290.14</ele>
        <time>2022-03-31T06:48:38Z</time>
      </trkpt>
      <trkpt lat="43.52595" lon="5.52258">
        <ele>290.02</ele>
        <time>2022-03-31T06:48:39Z</time>
      </trkpt>
      <trkpt lat="43.52595" lon="5.5226">
        <ele>289.88</ele>
        <time>2022-03-31T06:48:40Z</time>
      </trkpt>
      <trkpt lat="43.52594" lon="5.52272">
        <ele>288.97</ele>
        <time>2022-03-31T06:48:48Z</time>
      </trkpt>
      <trkpt lat="43.52594" lon="5.52274">
        <ele>288.86</ele>
        <time>2022-03-31T06:48:49Z</time>
      </trkpt>
      <trkpt lat="43.52594" lon="5.52297">
        <ele>287.9</ele>
        <time>2022-03-31T06:49:02Z</time>
      </trkpt>
      <trkpt lat="43.52594" lon="5.523">
        <ele>287.87</ele>
        <time>2022-03-31T06:49:03Z</time>
      </trkpt>
      <trkpt lat="43.52595" lon="5.52302">
        <ele>287.82</ele>
        <time>2022-03-31T06:49:04Z</time>
      </trkpt>
      <trkpt lat="43.52593" lon="5.52322">
        <ele>287.07</ele>
        <time>2022-03-31T06:49:15Z</time>
      </trkpt>
      <trkpt lat="43.52586" lon="5.52349">
        <ele>285.86</ele>
        <time>2022-03-31T06:49:30Z</time>
      </trkpt>
      <trkpt lat="43.5258" lon="5.52373">
        <ele>284.47</ele>
        <time>2022-03-31T06:49:44Z</time>
      </trkpt>
      <trkpt lat="43.52573" lon="5.52388">
        <ele>283.98</ele>
        <time>2022-03-31T06:49:55Z</time>
      </trkpt>
      <trkpt lat="43.52559" lon="5.52397">
        <ele>282.84</ele>
        <time>2022-03-31T06:50:07Z</time>
      </trkpt>
      <trkpt lat="43.52546" lon="5.52408">
        <ele>282.02</ele>
        <time>2022-03-31T06:50:18Z</time>
      </trkpt>
      <trkpt lat="43.52543" lon="5.5242">
        <ele>282.06</ele>
        <time>2022-03-31T06:50:26Z</time>
      </trkpt>
      <trkpt lat="43.52542" lon="5.52422">
        <ele>282.07</ele>
        <time>2022-03-31T06:50:27Z</time>
      </trkpt>
      <trkpt lat="43.52541" lon="5.52424">
        <ele>282.07</ele>
        <time>2022-03-31T06:50:28Z</time>
      </trkpt>
      <trkpt lat="43.52537" lon="5.52437">
        <ele>281.77</ele>
        <time>2022-03-31T06:50:35Z</time>
      </trkpt>
      <trkpt lat="43.52537" lon="5.52439">
        <ele>281.75</ele>
        <time>2022-03-31T06:50:36Z</time>
      </trkpt>
      <trkpt lat="43.52536" lon="5.52441">
        <ele>281.74</ele>
        <time>2022-03-31T06:50:37Z</time>
      </trkpt>
      <trkpt lat="43.52535" lon="5.52442">
        <ele>281.73</ele>
        <time>2022-03-31T06:50:38Z</time>
      </trkpt>
      <trkpt lat="43.52535" lon="5.52444">
        <ele>281.7</ele>
        <time>2022-03-31T06:50:39Z</time>
      </trkpt>
      <trkpt lat="43.52534" lon="5.52446">
        <ele>281.64</ele>
        <time>2022-03-31T06:50:40Z</time>
      </trkpt>
      <trkpt lat="43.52533" lon="5.52448">
        <ele>281.56</ele>
        <time>2022-03-31T06:50:41Z</time>
      </trkpt>
      <trkpt lat="43.52533" lon="5.5245">
        <ele>281.46</ele>
        <time>2022-03-31T06:50:42Z</time>
      </trkpt>
      <trkpt lat="43.52532" lon="5.52452">
        <ele>281.35</ele>
        <time>2022-03-31T06:50:43Z</time>
      </trkpt>
      <trkpt lat="43.52531" lon="5.52453">
        <ele>281.27</ele>
        <time>2022-03-31T06:50:44Z</time>
      </trkpt>
      <trkpt lat="43.5253" lon="5.52455">
        <ele>281.18</ele>
        <time>2022-03-31T06:50:45Z</time>
      </trkpt>
      <trkpt lat="43.52523" lon="5.52475">
        <ele>279.78</ele>
        <time>2022-03-31T06:50:56Z</time>
      </trkpt>
      <trkpt lat="43.52518" lon="5.525">
        <ele>278.32</ele>
        <time>2022-03-31T06:51:08Z</time>
      </trkpt>
      <trkpt lat="43.52513" lon="5.52519">
        <ele>277.04</ele>
        <time>2022-03-31T06:51:21Z</time>
      </trkpt>
      <trkpt lat="43.52511" lon="5.52532">
        <ele>276.59</ele>
        <time>2022-03-31T06:51:32Z</time>
      </trkpt>
      <trkpt lat="43.5251" lon="5.52535">
        <ele>276.58</ele>
        <time>2022-03-31T06:51:34Z</time>
      </trkpt>
      <trkpt lat="43.5251" lon="5.52537">
        <ele>276.58</ele>
        <time>2022-03-31T06:51:35Z</time>
      </trkpt>
      <trkpt lat="43.52509" lon="5.52539">
        <ele>276.58</ele>
        <time>2022-03-31T06:51:36Z</time>
      </trkpt>
      <trkpt lat="43.52509" lon="5.5254">
        <ele>276.57</ele>
        <time>2022-03-31T06:51:37Z</time>
      </trkpt>
      <trkpt lat="43.52509" lon="5.52542">
        <ele>276.56</ele>
        <time>2022-03-31T06:51:38Z</time>
      </trkpt>
      <trkpt lat="43.52506" lon="5.52547">
        <ele>276.47</ele>
        <time>2022-03-31T06:51:41Z</time>
      </trkpt>
      <trkpt lat="43.52505" lon="5.52548">
        <ele>276.45</ele>
        <time>2022-03-31T06:51:42Z</time>
      </trkpt>
      <trkpt lat="43.52505" lon="5.52549">
        <ele>276.44</ele>
        <time>2022-03-31T06:51:43Z</time>
      </trkpt>
      <trkpt lat="43.52505" lon="5.52551">
        <ele>276.44</ele>
        <time>2022-03-31T06:51:44Z</time>
      </trkpt>
      <trkpt lat="43.52504" lon="5.52553">
        <ele>276.44</ele>
        <time>2022-03-31T06:51:45Z</time>
      </trkpt>
      <trkpt lat="43.52504" lon="5.52554">
        <ele>276.44</ele>
        <time>2022-03-31T06:51:46Z</time>
      </trkpt>
      <trkpt lat="43.52503" lon="5.52556">
        <ele>276.44</ele>
        <time>2022-03-31T06:51:47Z</time>
      </trkpt>
      <trkpt lat="43.52503" lon="5.52558">
        <ele>276.44</ele>
        <time>2022-03-31T06:51:48Z</time>
      </trkpt>
      <trkpt lat="43.52502" lon="5.52559">
        <ele>276.44</ele>
        <time>2022-03-31T06:51:49Z</time>
      </trkpt>
      <trkpt lat="43.52495" lon="5.52583">
        <ele>276.38</ele>
        <time>2022-03-31T06:52:02Z</time>
      </trkpt>
      <trkpt lat="43.52489" lon="5.52599">
        <ele>276.72</ele>
        <time>2022-03-31T06:52:13Z</time>
      </trkpt>
      <trkpt lat="43.52475" lon="5.52613">
        <ele>276.96</ele>
        <time>2022-03-31T06:52:25Z</time>
      </trkpt>
      <trkpt lat="43.52464" lon="5.52632">
        <ele>276.58</ele>
        <time>2022-03-31T06:52:39Z</time>
      </trkpt>
      <trkpt lat="43.52455" lon="5.52647">
        <ele>276.29</ele>
        <time>2022-03-31T06:52:50Z</time>
      </trkpt>
      <trkpt lat="43.52455" lon="5.52648">
        <ele>276.26</ele>
        <time>2022-03-31T06:52:51Z</time>
      </trkpt>
      <trkpt lat="43.52454" lon="5.5265">
        <ele>276.24</ele>
        <time>2022-03-31T06:52:52Z</time>
      </trkpt>
      <trkpt lat="43.52446" lon="5.52671">
        <ele>276.59</ele>
        <time>2022-03-31T06:53:06Z</time>
      </trkpt>
      <trkpt lat="43.52446" lon="5.52674">
        <ele>276.62</ele>
        <time>2022-03-31T06:53:08Z</time>
      </trkpt>
      <trkpt lat="43.52445" lon="5.52676">
        <ele>276.64</ele>
        <time>2022-03-31T06:53:09Z</time>
      </trkpt>
      <trkpt lat="43.52445" lon="5.52678">
        <ele>276.67</ele>
        <time>2022-03-31T06:53:10Z</time>
      </trkpt>
      <trkpt lat="43.52439" lon="5.527">
        <ele>277.65</ele>
        <time>2022-03-31T06:53:24Z</time>
      </trkpt>
      <trkpt lat="43.52437" lon="5.52724">
        <ele>278.11</ele>
        <time>2022-03-31T06:53:38Z</time>
      </trkpt>
      <trkpt lat="43.52439" lon="5.52744">
        <ele>276.51</ele>
        <time>2022-03-31T06:53:51Z</time>
      </trkpt>
      <trkpt lat="43.52441" lon="5.52758">
        <ele>274.92</ele>
        <time>2022-03-31T06:54:00Z</time>
      </trkpt>
      <trkpt lat="43.52441" lon="5.5276">
        <ele>274.8</ele>
        <time>2022-03-31T06:54:01Z</time>
      </trkpt>
      <trkpt lat="43.52441" lon="5.52777">
        <ele>272.41</ele>
        <time>2022-03-31T06:54:12Z</time>
      </trkpt>
      <trkpt lat="43.52441" lon="5.5278">
        <ele>272.07</ele>
        <time>2022-03-31T06:54:14Z</time>
      </trkpt>
      <trkpt lat="43.52441" lon="5.52782">
        <ele>271.85</ele>
        <time>2022-03-31T06:54:15Z</time>
      </trkpt>
      <trkpt lat="43.52441" lon="5.52783">
        <ele>271.63</ele>
        <time>2022-03-31T06:54:16Z</time>
      </trkpt>
      <trkpt lat="43.52442" lon="5.52806">
        <ele>268.82</ele>
        <time>2022-03-31T06:54:30Z</time>
      </trkpt>
      <trkpt lat="43.52442" lon="5.52824">
        <ele>266.3</ele>
        <time>2022-03-31T06:54:41Z</time>
      </trkpt>
      <trkpt lat="43.52442" lon="5.52826">
        <ele>266.09</ele>
        <time>2022-03-31T06:54:42Z</time>
      </trkpt>
      <trkpt lat="43.52439" lon="5.52847">
        <ele>264.03</ele>
        <time>2022-03-31T06:54:54Z</time>
      </trkpt>
      <trkpt lat="43.52438" lon="5.52872">
        <ele>262.22</ele>
        <time>2022-03-31T06:55:10Z</time>
      </trkpt>
      <trkpt lat="43.52434" lon="5.52896">
        <ele>261.6</ele>
        <time>2022-03-31T06:55:24Z</time>
      </trkpt>
      <trkpt lat="43.52428" lon="5.52914">
        <ele>261.89</ele>
        <time>2022-03-31T06:55:35Z</time>
      </trkpt>
      <trkpt lat="43.52429" lon="5.52937">
        <ele>262.51</ele>
        <time>2022-03-31T06:55:47Z</time>
      </trkpt>
      <trkpt lat="43.52433" lon="5.52958">
        <ele>262.93</ele>
        <time>2022-03-31T06:55:59Z</time>
      </trkpt>
      <trkpt lat="43.52435" lon="5.52976">
        <ele>263.57</ele>
        <time>2022-03-31T06:56:10Z</time>
      </trkpt>
      <trkpt lat="43.52435" lon="5.52978">
        <ele>263.6</ele>
        <time>2022-03-31T06:56:11Z</time>
      </trkpt>
      <trkpt lat="43.52435" lon="5.5298">
        <ele>263.62</ele>
        <time>2022-03-31T06:56:12Z</time>
      </trkpt>
      <trkpt lat="43.52436" lon="5.53">
        <ele>264.28</ele>
        <time>2022-03-31T06:56:24Z</time>
      </trkpt>
      <trkpt lat="43.52435" lon="5.53015">
        <ele>264.99</ele>
        <time>2022-03-31T06:56:33Z</time>
      </trkpt>
      <trkpt lat="43.52432" lon="5.53039">
        <ele>266.24</ele>
        <time>2022-03-31T06:56:48Z</time>
      </trkpt>
      <trkpt lat="43.52433" lon="5.53057">
        <ele>266.83</ele>
        <time>2022-03-31T06:57:00Z</time>
      </trkpt>
      <trkpt lat="43.5244" lon="5.5308">
        <ele>268.54</ele>
        <time>2022-03-31T06:57:14Z</time>
      </trkpt>
      <trkpt lat="43.52444" lon="5.53098">
        <ele>269.98</ele>
        <time>2022-03-31T06:57:27Z</time>
      </trkpt>
      <trkpt lat="43.52447" lon="5.53118">
        <ele>271.35</ele>
        <time>2022-03-31T06:57:41Z</time>
      </trkpt>
      <trkpt lat="43.52449" lon="5.53134">
        <ele>273.1</ele>
        <time>2022-03-31T06:57:54Z</time>
      </trkpt>
      <trkpt lat="43.52453" lon="5.53143">
        <ele>273.81</ele>
        <time>2022-03-31T06:58:01Z</time>
      </trkpt>
      <trkpt lat="43.52456" lon="5.53155">
        <ele>274.62</ele>
        <time>2022-03-31T06:58:09Z</time>
      </trkpt>
      <trkpt lat="43.52456" lon="5.53157">
        <ele>274.71</ele>
        <time>2022-03-31T06:58:10Z</time>
      </trkpt>
      <trkpt lat="43.52462" lon="5.53179">
        <ele>275.43</ele>
        <time>2022-03-31T06:58:24Z</time>
      </trkpt>
      <trkpt lat="43.52467" lon="5.53194">
        <ele>276.28</ele>
        <time>2022-03-31T06:58:35Z</time>
      </trkpt>
      <trkpt lat="43.52473" lon="5.5321">
        <ele>277.28</ele>
        <time>2022-03-31T06:58:47Z</time>
      </trkpt>
      <trkpt lat="43.52474" lon="5.53211">
        <ele>277.39</ele>
        <time>2022-03-31T06:58:48Z</time>
      </trkpt>
      <trkpt lat="43.52482" lon="5.53229">
        <ele>279.19</ele>
        <time>2022-03-31T06:59:03Z</time>
      </trkpt>
      <trkpt lat="43.52486" lon="5.53242">
        <ele>280.47</ele>
        <time>2022-03-31T06:59:13Z</time>
      </trkpt>
      <trkpt lat="43.52486" lon="5.5326">
        <ele>281.47</ele>
        <time>2022-03-31T06:59:25Z</time>
      </trkpt>
      <trkpt lat="43.52491" lon="5.53277">
        <ele>282.45</ele>
        <time>2022-03-31T06:59:37Z</time>
      </trkpt>
      <trkpt lat="43.52491" lon="5.53279">
        <ele>282.51</ele>
        <time>2022-03-31T06:59:38Z</time>
      </trkpt>
      <trkpt lat="43.52494" lon="5.53294">
        <ele>284.12</ele>
        <time>2022-03-31T06:59:51Z</time>
      </trkpt>
      <trkpt lat="43.52495" lon="5.53315">
        <ele>285.94</ele>
        <time>2022-03-31T07:00:04Z</time>
      </trkpt>
      <trkpt lat="43.52493" lon="5.53336">
        <ele>287.59</ele>
        <time>2022-03-31T07:00:19Z</time>
      </trkpt>
      <trkpt lat="43.52493" lon="5.53353">
        <ele>288.96</ele>
        <time>2022-03-31T07:00:31Z</time>
      </trkpt>
      <trkpt lat="43.52493" lon="5.53368">
        <ele>290.41</ele>
        <time>2022-03-31T07:00:42Z</time>
      </trkpt>
      <trkpt lat="43.52491" lon="5.53391">
        <ele>292.31</ele>
        <time>2022-03-31T07:00:57Z</time>
      </trkpt>
      <trkpt lat="43.52491" lon="5.53413">
        <ele>294.03</ele>
        <time>2022-03-31T07:01:13Z</time>
      </trkpt>
      <trkpt lat="43.52491" lon="5.53429">
        <ele>295.4</ele>
        <time>2022-03-31T07:01:26Z</time>
      </trkpt>
      <trkpt lat="43.52489" lon="5.53447">
        <ele>297.33</ele>
        <time>2022-03-31T07:01:40Z</time>
      </trkpt>
      <trkpt lat="43.5249" lon="5.53466">
        <ele>298.63</ele>
        <time>2022-03-31T07:01:53Z</time>
      </trkpt>
      <trkpt lat="43.52488" lon="5.53487">
        <ele>300</ele>
        <time>2022-03-31T07:02:07Z</time>
      </trkpt>
      <trkpt lat="43.52489" lon="5.53502">
        <ele>300.95</ele>
        <time>2022-03-31T07:02:18Z</time>
      </trkpt>
      <trkpt lat="43.5249" lon="5.5352">
        <ele>302.21</ele>
        <time>2022-03-31T07:02:33Z</time>
      </trkpt>
      <trkpt lat="43.52491" lon="5.53537">
        <ele>303.28</ele>
        <time>2022-03-31T07:02:47Z</time>
      </trkpt>
      <trkpt lat="43.52491" lon="5.53556">
        <ele>304.6</ele>
        <time>2022-03-31T07:03:00Z</time>
      </trkpt>
      <trkpt lat="43.52491" lon="5.53558">
        <ele>304.7</ele>
        <time>2022-03-31T07:03:01Z</time>
      </trkpt>
      <trkpt lat="43.52493" lon="5.53571">
        <ele>305.42</ele>
        <time>2022-03-31T07:03:12Z</time>
      </trkpt>
      <trkpt lat="43.52496" lon="5.53575">
        <ele>305.89</ele>
        <time>2022-03-31T07:03:16Z</time>
      </trkpt>
      <trkpt lat="43.52503" lon="5.53589">
        <ele>306.97</ele>
        <time>2022-03-31T07:03:28Z</time>
      </trkpt>
      <trkpt lat="43.52504" lon="5.5359">
        <ele>307.09</ele>
        <time>2022-03-31T07:03:29Z</time>
      </trkpt>
      <trkpt lat="43.52505" lon="5.53591">
        <ele>307.19</ele>
        <time>2022-03-31T07:03:30Z</time>
      </trkpt>
      <trkpt lat="43.52506" lon="5.53593">
        <ele>307.25</ele>
        <time>2022-03-31T07:03:31Z</time>
      </trkpt>
      <trkpt lat="43.52506" lon="5.53594">
        <ele>307.29</ele>
        <time>2022-03-31T07:03:32Z</time>
      </trkpt>
      <trkpt lat="43.52507" lon="5.53595">
        <ele>307.32</ele>
        <time>2022-03-31T07:03:33Z</time>
      </trkpt>
      <trkpt lat="43.52514" lon="5.53608">
        <ele>308.06</ele>
        <time>2022-03-31T07:03:45Z</time>
      </trkpt>
      <trkpt lat="43.52517" lon="5.53629">
        <ele>308.69</ele>
        <time>2022-03-31T07:03:58Z</time>
      </trkpt>
      <trkpt lat="43.52514" lon="5.53647">
        <ele>309.42</ele>
        <time>2022-03-31T07:04:09Z</time>
      </trkpt>
      <trkpt lat="43.52513" lon="5.53652">
        <ele>309.61</ele>
        <time>2022-03-31T07:04:12Z</time>
      </trkpt>
      <trkpt lat="43.52512" lon="5.53653">
        <ele>309.64</ele>
        <time>2022-03-31T07:04:13Z</time>
      </trkpt>
      <trkpt lat="43.52507" lon="5.53675">
        <ele>310.59</ele>
        <time>2022-03-31T07:04:27Z</time>
      </trkpt>
      <trkpt lat="43.52503" lon="5.53691">
        <ele>311.65</ele>
        <time>2022-03-31T07:04:40Z</time>
      </trkpt>
      <trkpt lat="43.52501" lon="5.53706">
        <ele>312.86</ele>
        <time>2022-03-31T07:04:51Z</time>
      </trkpt>
      <trkpt lat="43.52502" lon="5.53728">
        <ele>313.86</ele>
        <time>2022-03-31T07:05:05Z</time>
      </trkpt>
      <trkpt lat="43.52509" lon="5.53741">
        <ele>315.44</ele>
        <time>2022-03-31T07:05:19Z</time>
      </trkpt>
      <trkpt lat="43.52518" lon="5.53739">
        <ele>317.71</ele>
        <time>2022-03-31T07:05:33Z</time>
      </trkpt>
      <trkpt lat="43.52526" lon="5.53728">
        <ele>320.17</ele>
        <time>2022-03-31T07:05:49Z</time>
      </trkpt>
      <trkpt lat="43.52529" lon="5.53724">
        <ele>320.86</ele>
        <time>2022-03-31T07:05:53Z</time>
      </trkpt>
      <trkpt lat="43.52533" lon="5.53718">
        <ele>321.82</ele>
        <time>2022-03-31T07:06:00Z</time>
      </trkpt>
      <trkpt lat="43.52537" lon="5.53709">
        <ele>322.94</ele>
        <time>2022-03-31T07:06:09Z</time>
      </trkpt>
      <trkpt lat="43.52544" lon="5.53695">
        <ele>323.88</ele>
        <time>2022-03-31T07:06:21Z</time>
      </trkpt>
      <trkpt lat="43.52548" lon="5.53697">
        <ele>325.8</ele>
        <time>2022-03-31T07:06:34Z</time>
      </trkpt>
      <trkpt lat="43.52548" lon="5.53714">
        <ele>327.98</ele>
        <time>2022-03-31T07:06:49Z</time>
      </trkpt>
      <trkpt lat="43.52549" lon="5.53727">
        <ele>329.5</ele>
        <time>2022-03-31T07:07:01Z</time>
      </trkpt>
      <trkpt lat="43.52553" lon="5.53742">
        <ele>330.79</ele>
        <time>2022-03-31T07:07:13Z</time>
      </trkpt>
      <trkpt lat="43.52554" lon="5.53749">
        <ele>331.3</ele>
        <time>2022-03-31T07:07:19Z</time>
      </trkpt>
      <trkpt lat="43.52555" lon="5.5375">
        <ele>331.46</ele>
        <time>2022-03-31T07:07:20Z</time>
      </trkpt>
      <trkpt lat="43.52556" lon="5.53751">
        <ele>331.55</ele>
        <time>2022-03-31T07:07:21Z</time>
      </trkpt>
      <trkpt lat="43.52556" lon="5.53753">
        <ele>331.61</ele>
        <time>2022-03-31T07:07:22Z</time>
      </trkpt>
      <trkpt lat="43.52561" lon="5.5377">
        <ele>331.67</ele>
        <time>2022-03-31T07:07:34Z</time>
      </trkpt>
      <trkpt lat="43.52569" lon="5.53794">
        <ele>331.28</ele>
        <time>2022-03-31T07:07:50Z</time>
      </trkpt>
      <trkpt lat="43.52571" lon="5.53809">
        <ele>331.42</ele>
        <time>2022-03-31T07:08:00Z</time>
      </trkpt>
      <trkpt lat="43.52575" lon="5.53827">
        <ele>332.3</ele>
        <time>2022-03-31T07:08:12Z</time>
      </trkpt>
      <trkpt lat="43.52577" lon="5.53838">
        <ele>333.01</ele>
        <time>2022-03-31T07:08:19Z</time>
      </trkpt>
      <trkpt lat="43.52578" lon="5.53858">
        <ele>333.74</ele>
        <time>2022-03-31T07:08:32Z</time>
      </trkpt>
      <trkpt lat="43.52576" lon="5.53882">
        <ele>332.62</ele>
        <time>2022-03-31T07:08:47Z</time>
      </trkpt>
      <trkpt lat="43.52577" lon="5.53897">
        <ele>330.65</ele>
        <time>2022-03-31T07:08:58Z</time>
      </trkpt>
      <trkpt lat="43.52574" lon="5.53915">
        <ele>328.46</ele>
        <time>2022-03-31T07:09:11Z</time>
      </trkpt>
      <trkpt lat="43.52575" lon="5.53935">
        <ele>326.38</ele>
        <time>2022-03-31T07:09:23Z</time>
      </trkpt>
      <trkpt lat="43.52574" lon="5.53953">
        <ele>323.78</ele>
        <time>2022-03-31T07:09:36Z</time>
      </trkpt>
      <trkpt lat="43.52574" lon="5.53971">
        <ele>322.06</ele>
        <time>2022-03-31T07:09:48Z</time>
      </trkpt>
      <trkpt lat="43.52576" lon="5.53988">
        <ele>320.19</ele>
        <time>2022-03-31T07:09:58Z</time>
      </trkpt>
      <trkpt lat="43.52576" lon="5.53989">
        <ele>320.02</ele>
        <time>2022-03-31T07:09:59Z</time>
      </trkpt>
      <trkpt lat="43.52574" lon="5.5401">
        <ele>318.12</ele>
        <time>2022-03-31T07:10:12Z</time>
      </trkpt>
      <trkpt lat="43.52569" lon="5.54028">
        <ele>315.94</ele>
        <time>2022-03-31T07:10:25Z</time>
      </trkpt>
      <trkpt lat="43.52563" lon="5.54043">
        <ele>313.28</ele>
        <time>2022-03-31T07:10:37Z</time>
      </trkpt>
      <trkpt lat="43.52556" lon="5.54059">
        <ele>311.11</ele>
        <time>2022-03-31T07:10:48Z</time>
      </trkpt>
      <trkpt lat="43.52555" lon="5.54077">
        <ele>308.65</ele>
        <time>2022-03-31T07:11:01Z</time>
      </trkpt>
      <trkpt lat="43.52559" lon="5.54094">
        <ele>306.63</ele>
        <time>2022-03-31T07:11:12Z</time>
      </trkpt>
      <trkpt lat="43.5256" lon="5.54095">
        <ele>306.43</ele>
        <time>2022-03-31T07:11:13Z</time>
      </trkpt>
      <trkpt lat="43.5256" lon="5.54097">
        <ele>306.26</ele>
        <time>2022-03-31T07:11:14Z</time>
      </trkpt>
      <trkpt lat="43.52562" lon="5.54098">
        <ele>306.12</ele>
        <time>2022-03-31T07:11:15Z</time>
      </trkpt>
      <trkpt lat="43.52562" lon="5.541">
        <ele>306</ele>
        <time>2022-03-31T07:11:16Z</time>
      </trkpt>
      <trkpt lat="43.52568" lon="5.54121">
        <ele>305.18</ele>
        <time>2022-03-31T07:11:28Z</time>
      </trkpt>
      <trkpt lat="43.52567" lon="5.54137">
        <ele>305.11</ele>
        <time>2022-03-31T07:11:38Z</time>
      </trkpt>
      <trkpt lat="43.52558" lon="5.54153">
        <ele>304.59</ele>
        <time>2022-03-31T07:11:49Z</time>
      </trkpt>
      <trkpt lat="43.52558" lon="5.54167">
        <ele>303.79</ele>
        <time>2022-03-31T07:11:58Z</time>
      </trkpt>
      <trkpt lat="43.5256" lon="5.54183">
        <ele>303.55</ele>
        <time>2022-03-31T07:12:08Z</time>
      </trkpt>
      <trkpt lat="43.5256" lon="5.54185">
        <ele>303.5</ele>
        <time>2022-03-31T07:12:09Z</time>
      </trkpt>
      <trkpt lat="43.52561" lon="5.54187">
        <ele>303.44</ele>
        <time>2022-03-31T07:12:10Z</time>
      </trkpt>
      <trkpt lat="43.52561" lon="5.54188">
        <ele>303.36</ele>
        <time>2022-03-31T07:12:11Z</time>
      </trkpt>
      <trkpt lat="43.52557" lon="5.54207">
        <ele>302.27</ele>
        <time>2022-03-31T07:12:22Z</time>
      </trkpt>
      <trkpt lat="43.52553" lon="5.54228">
        <ele>300.82</ele>
        <time>2022-03-31T07:12:35Z</time>
      </trkpt>
      <trkpt lat="43.52548" lon="5.54252">
        <ele>298.65</ele>
        <time>2022-03-31T07:12:49Z</time>
      </trkpt>
      <trkpt lat="43.52546" lon="5.54259">
        <ele>298.05</ele>
        <time>2022-03-31T07:12:53Z</time>
      </trkpt>
      <trkpt lat="43.52544" lon="5.54273">
        <ele>296.7</ele>
        <time>2022-03-31T07:13:02Z</time>
      </trkpt>
      <trkpt lat="43.52544" lon="5.54274">
        <ele>296.56</ele>
        <time>2022-03-31T07:13:03Z</time>
      </trkpt>
      <trkpt lat="43.52544" lon="5.5428">
        <ele>296.13</ele>
        <time>2022-03-31T07:13:06Z</time>
      </trkpt>
      <trkpt lat="43.5254" lon="5.54291">
        <ele>294.78</ele>
        <time>2022-03-31T07:13:13Z</time>
      </trkpt>
      <trkpt lat="43.5254" lon="5.54294">
        <ele>294.46</ele>
        <time>2022-03-31T07:13:15Z</time>
      </trkpt>
      <trkpt lat="43.52539" lon="5.54312">
        <ele>293.03</ele>
        <time>2022-03-31T07:13:25Z</time>
      </trkpt>
      <trkpt lat="43.52538" lon="5.54333">
        <ele>291.23</ele>
        <time>2022-03-31T07:13:36Z</time>
      </trkpt>
      <trkpt lat="43.52538" lon="5.54338">
        <ele>290.59</ele>
        <time>2022-03-31T07:13:40Z</time>
      </trkpt>
      <trkpt lat="43.52539" lon="5.5434">
        <ele>290.42</ele>
        <time>2022-03-31T07:13:41Z</time>
      </trkpt>
      <trkpt lat="43.52541" lon="5.54359">
        <ele>288.83</ele>
        <time>2022-03-31T07:13:52Z</time>
      </trkpt>
      <trkpt lat="43.52543" lon="5.54379">
        <ele>287.11</ele>
        <time>2022-03-31T07:14:04Z</time>
      </trkpt>
      <trkpt lat="43.52544" lon="5.54384">
        <ele>286.43</ele>
        <time>2022-03-31T07:14:08Z</time>
      </trkpt>
      <trkpt lat="43.52544" lon="5.54388">
        <ele>286.07</ele>
        <time>2022-03-31T07:14:10Z</time>
      </trkpt>
      <trkpt lat="43.52544" lon="5.54389">
        <ele>285.86</ele>
        <time>2022-03-31T07:14:11Z</time>
      </trkpt>
      <trkpt lat="43.52544" lon="5.54391">
        <ele>285.64</ele>
        <time>2022-03-31T07:14:12Z</time>
      </trkpt>
      <trkpt lat="43.52544" lon="5.54393">
        <ele>285.43</ele>
        <time>2022-03-31T07:14:13Z</time>
      </trkpt>
      <trkpt lat="43.52545" lon="5.54395">
        <ele>285.23</ele>
        <time>2022-03-31T07:14:14Z</time>
      </trkpt>
      <trkpt lat="43.52548" lon="5.54413">
        <ele>283.55</ele>
        <time>2022-03-31T07:14:24Z</time>
      </trkpt>
      <trkpt lat="43.52549" lon="5.54414">
        <ele>283.14</ele>
        <time>2022-03-31T07:14:25Z</time>
      </trkpt>
      <trkpt lat="43.52549" lon="5.54419">
        <ele>282.68</ele>
        <time>2022-03-31T07:14:28Z</time>
      </trkpt>
      <trkpt lat="43.5255" lon="5.5442">
        <ele>282.52</ele>
        <time>2022-03-31T07:14:29Z</time>
      </trkpt>
      <trkpt lat="43.5255" lon="5.54422">
        <ele>282.35</ele>
        <time>2022-03-31T07:14:30Z</time>
      </trkpt>
      <trkpt lat="43.52551" lon="5.54423">
        <ele>282.17</ele>
        <time>2022-03-31T07:14:31Z</time>
      </trkpt>
      <trkpt lat="43.52551" lon="5.54425">
        <ele>281.98</ele>
        <time>2022-03-31T07:14:32Z</time>
      </trkpt>
      <trkpt lat="43.52553" lon="5.54442">
        <ele>280.56</ele>
        <time>2022-03-31T07:14:43Z</time>
      </trkpt>
      <trkpt lat="43.52555" lon="5.54459">
        <ele>278.74</ele>
        <time>2022-03-31T07:14:54Z</time>
      </trkpt>
      <trkpt lat="43.52559" lon="5.54479">
        <ele>277.43</ele>
        <time>2022-03-31T07:15:04Z</time>
      </trkpt>
      <trkpt lat="43.52563" lon="5.54496">
        <ele>276.37</ele>
        <time>2022-03-31T07:15:14Z</time>
      </trkpt>
      <trkpt lat="43.52568" lon="5.54515">
        <ele>275.11</ele>
        <time>2022-03-31T07:15:24Z</time>
      </trkpt>
      <trkpt lat="43.52568" lon="5.54519">
        <ele>274.91</ele>
        <time>2022-03-31T07:15:26Z</time>
      </trkpt>
      <trkpt lat="43.52568" lon="5.54521">
        <ele>274.8</ele>
        <time>2022-03-31T07:15:27Z</time>
      </trkpt>
      <trkpt lat="43.52568" lon="5.54522">
        <ele>274.7</ele>
        <time>2022-03-31T07:15:28Z</time>
      </trkpt>
      <trkpt lat="43.52568" lon="5.54524">
        <ele>274.61</ele>
        <time>2022-03-31T07:15:29Z</time>
      </trkpt>
      <trkpt lat="43.52569" lon="5.54526">
        <ele>274.52</ele>
        <time>2022-03-31T07:15:30Z</time>
      </trkpt>
      <trkpt lat="43.52569" lon="5.54528">
        <ele>274.45</ele>
        <time>2022-03-31T07:15:31Z</time>
      </trkpt>
      <trkpt lat="43.52577" lon="5.54546">
        <ele>273.59</ele>
        <time>2022-03-31T07:15:42Z</time>
      </trkpt>
      <trkpt lat="43.52589" lon="5.54564">
        <ele>273.34</ele>
        <time>2022-03-31T07:15:55Z</time>
      </trkpt>
      <trkpt lat="43.52598" lon="5.54582">
        <ele>273.11</ele>
        <time>2022-03-31T07:16:06Z</time>
      </trkpt>
      <trkpt lat="43.52605" lon="5.54592">
        <ele>273.03</ele>
        <time>2022-03-31T07:16:14Z</time>
      </trkpt>
      <trkpt lat="43.52613" lon="5.54606">
        <ele>272.99</ele>
        <time>2022-03-31T07:16:25Z</time>
      </trkpt>
      <trkpt lat="43.52615" lon="5.54609">
        <ele>272.96</ele>
        <time>2022-03-31T07:16:27Z</time>
      </trkpt>
      <trkpt lat="43.52616" lon="5.54612">
        <ele>272.95</ele>
        <time>2022-03-31T07:16:29Z</time>
      </trkpt>
      <trkpt lat="43.52616" lon="5.54614">
        <ele>272.95</ele>
        <time>2022-03-31T07:16:30Z</time>
      </trkpt>
      <trkpt lat="43.52617" lon="5.54615">
        <ele>272.95</ele>
        <time>2022-03-31T07:16:31Z</time>
      </trkpt>
      <trkpt lat="43.52627" lon="5.54636">
        <ele>273.15</ele>
        <time>2022-03-31T07:16:44Z</time>
      </trkpt>
      <trkpt lat="43.52638" lon="5.54652">
        <ele>273.45</ele>
        <time>2022-03-31T07:16:56Z</time>
      </trkpt>
      <trkpt lat="43.52647" lon="5.54669">
        <ele>273.29</ele>
        <time>2022-03-31T07:17:09Z</time>
      </trkpt>
      <trkpt lat="43.52656" lon="5.5469">
        <ele>273.43</ele>
        <time>2022-03-31T07:17:23Z</time>
      </trkpt>
      <trkpt lat="43.52663" lon="5.54703">
        <ele>273.63</ele>
        <time>2022-03-31T07:17:34Z</time>
      </trkpt>
      <trkpt lat="43.52672" lon="5.54716">
        <ele>273.19</ele>
        <time>2022-03-31T07:17:45Z</time>
      </trkpt>
      <trkpt lat="43.52678" lon="5.54723">
        <ele>273.07</ele>
        <time>2022-03-31T07:17:51Z</time>
      </trkpt>
      <trkpt lat="43.52679" lon="5.54724">
        <ele>273.05</ele>
        <time>2022-03-31T07:17:52Z</time>
      </trkpt>
      <trkpt lat="43.5269" lon="5.54739">
        <ele>272.85</ele>
        <time>2022-03-31T07:18:02Z</time>
      </trkpt>
      <trkpt lat="43.52701" lon="5.54755">
        <ele>272.81</ele>
        <time>2022-03-31T07:18:14Z</time>
      </trkpt>
      <trkpt lat="43.52702" lon="5.54756">
        <ele>272.82</ele>
        <time>2022-03-31T07:18:15Z</time>
      </trkpt>
      <trkpt lat="43.52703" lon="5.54757">
        <ele>272.84</ele>
        <time>2022-03-31T07:18:16Z</time>
      </trkpt>
      <trkpt lat="43.52704" lon="5.54758">
        <ele>272.85</ele>
        <time>2022-03-31T07:18:17Z</time>
      </trkpt>
      <trkpt lat="43.52705" lon="5.5476">
        <ele>272.87</ele>
        <time>2022-03-31T07:18:18Z</time>
      </trkpt>
      <trkpt lat="43.52716" lon="5.54769">
        <ele>272.85</ele>
        <time>2022-03-31T07:18:27Z</time>
      </trkpt>
      <trkpt lat="43.52729" lon="5.54778">
        <ele>272.93</ele>
        <time>2022-03-31T07:18:39Z</time>
      </trkpt>
      <trkpt lat="43.5273" lon="5.54779">
        <ele>272.93</ele>
        <time>2022-03-31T07:18:40Z</time>
      </trkpt>
      <trkpt lat="43.52732" lon="5.5478">
        <ele>272.93</ele>
        <time>2022-03-31T07:18:41Z</time>
      </trkpt>
      <trkpt lat="43.52733" lon="5.54782">
        <ele>272.93</ele>
        <time>2022-03-31T07:18:42Z</time>
      </trkpt>
      <trkpt lat="43.52734" lon="5.54784">
        <ele>272.93</ele>
        <time>2022-03-31T07:18:43Z</time>
      </trkpt>
      <trkpt lat="43.52734" lon="5.54787">
        <ele>272.93</ele>
        <time>2022-03-31T07:18:45Z</time>
      </trkpt>
      <trkpt lat="43.52734" lon="5.54788">
        <ele>272.89</ele>
        <time>2022-03-31T07:18:46Z</time>
      </trkpt>
      <trkpt lat="43.52734" lon="5.5481">
        <ele>272.02</ele>
        <time>2022-03-31T07:19:00Z</time>
      </trkpt>
      <trkpt lat="43.52732" lon="5.54814">
        <ele>271.87</ele>
        <time>2022-03-31T07:19:03Z</time>
      </trkpt>
      <trkpt lat="43.52731" lon="5.54816">
        <ele>271.86</ele>
        <time>2022-03-31T07:19:04Z</time>
      </trkpt>
      <trkpt lat="43.5273" lon="5.54818">
        <ele>271.87</ele>
        <time>2022-03-31T07:19:05Z</time>
      </trkpt>
      <trkpt lat="43.52725" lon="5.5484">
        <ele>272.37</ele>
        <time>2022-03-31T07:19:17Z</time>
      </trkpt>
      <trkpt lat="43.52727" lon="5.54843">
        <ele>273.39</ele>
        <time>2022-03-31T07:19:27Z</time>
      </trkpt>
      <trkpt lat="43.52727" lon="5.54846">
        <ele>273.39</ele>
        <time>2022-03-31T07:19:47Z</time>
      </trkpt>
      <trkpt lat="43.52726" lon="5.54853">
        <ele>273.39</ele>
        <time>2022-03-31T07:20:06Z</time>
      </trkpt>
      <trkpt lat="43.52724" lon="5.54866">
        <ele>273.53</ele>
        <time>2022-03-31T07:20:20Z</time>
      </trkpt>
      <trkpt lat="43.52723" lon="5.54878">
        <ele>274.2</ele>
        <time>2022-03-31T07:20:28Z</time>
      </trkpt>
      <trkpt lat="43.52723" lon="5.54879">
        <ele>274.29</ele>
        <time>2022-03-31T07:20:29Z</time>
      </trkpt>
      <trkpt lat="43.52723" lon="5.54881">
        <ele>274.35</ele>
        <time>2022-03-31T07:20:30Z</time>
      </trkpt>
      <trkpt lat="43.52724" lon="5.54901">
        <ele>275.55</ele>
        <time>2022-03-31T07:20:43Z</time>
      </trkpt>
      <trkpt lat="43.52726" lon="5.54917">
        <ele>276.52</ele>
        <time>2022-03-31T07:20:54Z</time>
      </trkpt>
      <trkpt lat="43.52728" lon="5.54931">
        <ele>277.74</ele>
        <time>2022-03-31T07:21:03Z</time>
      </trkpt>
      <trkpt lat="43.52731" lon="5.54948">
        <ele>278.52</ele>
        <time>2022-03-31T07:21:14Z</time>
      </trkpt>
      <trkpt lat="43.52735" lon="5.54966">
        <ele>280.39</ele>
        <time>2022-03-31T07:21:29Z</time>
      </trkpt>
      <trkpt lat="43.5274" lon="5.5498">
        <ele>282.48</ele>
        <time>2022-03-31T07:21:41Z</time>
      </trkpt>
      <trkpt lat="43.52745" lon="5.54992">
        <ele>284.36</ele>
        <time>2022-03-31T07:21:53Z</time>
      </trkpt>
      <trkpt lat="43.52747" lon="5.55004">
        <ele>285.97</ele>
        <time>2022-03-31T07:22:03Z</time>
      </trkpt>
      <trkpt lat="43.52748" lon="5.55006">
        <ele>286.28</ele>
        <time>2022-03-31T07:22:05Z</time>
      </trkpt>
      <trkpt lat="43.52752" lon="5.55015">
        <ele>287.32</ele>
        <time>2022-03-31T07:22:15Z</time>
      </trkpt>
      <trkpt lat="43.52758" lon="5.55029">
        <ele>288.29</ele>
        <time>2022-03-31T07:22:27Z</time>
      </trkpt>
      <trkpt lat="43.52765" lon="5.55044">
        <ele>290.51</ele>
        <time>2022-03-31T07:22:41Z</time>
      </trkpt>
      <trkpt lat="43.52766" lon="5.55062">
        <ele>291.78</ele>
        <time>2022-03-31T07:22:53Z</time>
      </trkpt>
      <trkpt lat="43.5277" lon="5.55077">
        <ele>292.97</ele>
        <time>2022-03-31T07:23:05Z</time>
      </trkpt>
      <trkpt lat="43.52771" lon="5.55082">
        <ele>293.44</ele>
        <time>2022-03-31T07:23:09Z</time>
      </trkpt>
      <trkpt lat="43.52777" lon="5.55098">
        <ele>294.79</ele>
        <time>2022-03-31T07:23:21Z</time>
      </trkpt>
      <trkpt lat="43.52782" lon="5.55112">
        <ele>296.03</ele>
        <time>2022-03-31T07:23:33Z</time>
      </trkpt>
      <trkpt lat="43.52783" lon="5.55128">
        <ele>297.18</ele>
        <time>2022-03-31T07:23:45Z</time>
      </trkpt>
      <trkpt lat="43.52784" lon="5.5513">
        <ele>297.26</ele>
        <time>2022-03-31T07:23:46Z</time>
      </trkpt>
      <trkpt lat="43.52786" lon="5.55144">
        <ele>298.39</ele>
        <time>2022-03-31T07:23:58Z</time>
      </trkpt>
      <trkpt lat="43.52791" lon="5.55159">
        <ele>299.55</ele>
        <time>2022-03-31T07:24:10Z</time>
      </trkpt>
      <trkpt lat="43.52791" lon="5.55163">
        <ele>300.08</ele>
        <time>2022-03-31T07:24:13Z</time>
      </trkpt>
      <trkpt lat="43.52792" lon="5.55164">
        <ele>300.22</ele>
        <time>2022-03-31T07:24:14Z</time>
      </trkpt>
      <trkpt lat="43.52797" lon="5.5518">
        <ele>301.63</ele>
        <time>2022-03-31T07:24:28Z</time>
      </trkpt>
      <trkpt lat="43.52799" lon="5.5519">
        <ele>302.51</ele>
        <time>2022-03-31T07:24:37Z</time>
      </trkpt>
      <trkpt lat="43.528" lon="5.55197">
        <ele>303.35</ele>
        <time>2022-03-31T07:24:43Z</time>
      </trkpt>
      <trkpt lat="43.52802" lon="5.55209">
        <ele>304.63</ele>
        <time>2022-03-31T07:24:53Z</time>
      </trkpt>
      <trkpt lat="43.52804" lon="5.55228">
        <ele>306.41</ele>
        <time>2022-03-31T07:25:07Z</time>
      </trkpt>
      <trkpt lat="43.52806" lon="5.55247">
        <ele>307.75</ele>
        <time>2022-03-31T07:25:21Z</time>
      </trkpt>
      <trkpt lat="43.52808" lon="5.55261">
        <ele>308.75</ele>
        <time>2022-03-31T07:25:32Z</time>
      </trkpt>
      <trkpt lat="43.5281" lon="5.55269">
        <ele>309.38</ele>
        <time>2022-03-31T07:25:38Z</time>
      </trkpt>
      <trkpt lat="43.52815" lon="5.5528">
        <ele>310.36</ele>
        <time>2022-03-31T07:25:48Z</time>
      </trkpt>
      <trkpt lat="43.52818" lon="5.55287">
        <ele>311.01</ele>
        <time>2022-03-31T07:25:54Z</time>
      </trkpt>
      <trkpt lat="43.52821" lon="5.55294">
        <ele>311.71</ele>
        <time>2022-03-31T07:26:00Z</time>
      </trkpt>
      <trkpt lat="43.52826" lon="5.55307">
        <ele>313.19</ele>
        <time>2022-03-31T07:26:13Z</time>
      </trkpt>
      <trkpt lat="43.5283" lon="5.55317">
        <ele>314.57</ele>
        <time>2022-03-31T07:26:23Z</time>
      </trkpt>
      <trkpt lat="43.52838" lon="5.55335">
        <ele>316.83</ele>
        <time>2022-03-31T07:26:41Z</time>
      </trkpt>
      <trkpt lat="43.52845" lon="5.55349">
        <ele>318.44</ele>
        <time>2022-03-31T07:26:53Z</time>
      </trkpt>
      <trkpt lat="43.52849" lon="5.55364">
        <ele>319.62</ele>
        <time>2022-03-31T07:27:04Z</time>
      </trkpt>
      <trkpt lat="43.52853" lon="5.55379">
        <ele>320.94</ele>
        <time>2022-03-31T07:27:15Z</time>
      </trkpt>
      <trkpt lat="43.52853" lon="5.55384">
        <ele>321.26</ele>
        <time>2022-03-31T07:27:18Z</time>
      </trkpt>
      <trkpt lat="43.52856" lon="5.55398">
        <ele>322.33</ele>
        <time>2022-03-31T07:27:29Z</time>
      </trkpt>
      <trkpt lat="43.52859" lon="5.55413">
        <ele>323.95</ele>
        <time>2022-03-31T07:27:41Z</time>
      </trkpt>
      <trkpt lat="43.5286" lon="5.55419">
        <ele>324.26</ele>
        <time>2022-03-31T07:27:46Z</time>
      </trkpt>
      <trkpt lat="43.52865" lon="5.55436">
        <ele>325.35</ele>
        <time>2022-03-31T07:27:59Z</time>
      </trkpt>
      <trkpt lat="43.52866" lon="5.55449">
        <ele>326.44</ele>
        <time>2022-03-31T07:28:09Z</time>
      </trkpt>
      <trkpt lat="43.52867" lon="5.55465">
        <ele>327.2</ele>
        <time>2022-03-31T07:28:20Z</time>
      </trkpt>
      <trkpt lat="43.52869" lon="5.55482">
        <ele>327.96</ele>
        <time>2022-03-31T07:28:31Z</time>
      </trkpt>
      <trkpt lat="43.52869" lon="5.55491">
        <ele>328.59</ele>
        <time>2022-03-31T07:28:38Z</time>
      </trkpt>
      <trkpt lat="43.52869" lon="5.55506">
        <ele>329.31</ele>
        <time>2022-03-31T07:28:48Z</time>
      </trkpt>
      <trkpt lat="43.52868" lon="5.55514">
        <ele>329</ele>
        <time>2022-03-31T07:28:52Z</time>
      </trkpt>
      <trkpt lat="43.52867" lon="5.55516">
        <ele>328.98</ele>
        <time>2022-03-31T07:28:53Z</time>
      </trkpt>
      <trkpt lat="43.52867" lon="5.55518">
        <ele>328.97</ele>
        <time>2022-03-31T07:28:54Z</time>
      </trkpt>
      <trkpt lat="43.52866" lon="5.55519">
        <ele>328.97</ele>
        <time>2022-03-31T07:28:55Z</time>
      </trkpt>
      <trkpt lat="43.52865" lon="5.5552">
        <ele>328.97</ele>
        <time>2022-03-31T07:28:56Z</time>
      </trkpt>
      <trkpt lat="43.52865" lon="5.55522">
        <ele>328.96</ele>
        <time>2022-03-31T07:28:57Z</time>
      </trkpt>
      <trkpt lat="43.52864" lon="5.55523">
        <ele>328.92</ele>
        <time>2022-03-31T07:28:58Z</time>
      </trkpt>
      <trkpt lat="43.52864" lon="5.55524">
        <ele>328.89</ele>
        <time>2022-03-31T07:28:59Z</time>
      </trkpt>
      <trkpt lat="43.52863" lon="5.55526">
        <ele>328.87</ele>
        <time>2022-03-31T07:29:00Z</time>
      </trkpt>
      <trkpt lat="43.52863" lon="5.55528">
        <ele>328.87</ele>
        <time>2022-03-31T07:29:01Z</time>
      </trkpt>
      <trkpt lat="43.52863" lon="5.55529">
        <ele>328.87</ele>
        <time>2022-03-31T07:29:02Z</time>
      </trkpt>
      <trkpt lat="43.52863" lon="5.55541">
        <ele>329.26</ele>
        <time>2022-03-31T07:29:09Z</time>
      </trkpt>
      <trkpt lat="43.52863" lon="5.55562">
        <ele>329.7</ele>
        <time>2022-03-31T07:29:22Z</time>
      </trkpt>
      <trkpt lat="43.52862" lon="5.55564">
        <ele>329.72</ele>
        <time>2022-03-31T07:29:23Z</time>
      </trkpt>
      <trkpt lat="43.5286" lon="5.55573">
        <ele>330.01</ele>
        <time>2022-03-31T07:29:29Z</time>
      </trkpt>
      <trkpt lat="43.5286" lon="5.55576">
        <ele>330.19</ele>
        <time>2022-03-31T07:29:31Z</time>
      </trkpt>
      <trkpt lat="43.52859" lon="5.55577">
        <ele>330.26</ele>
        <time>2022-03-31T07:29:32Z</time>
      </trkpt>
      <trkpt lat="43.52859" lon="5.55579">
        <ele>330.34</ele>
        <time>2022-03-31T07:29:33Z</time>
      </trkpt>
      <trkpt lat="43.52858" lon="5.55591">
        <ele>330.93</ele>
        <time>2022-03-31T07:29:40Z</time>
      </trkpt>
      <trkpt lat="43.52859" lon="5.55594">
        <ele>331.12</ele>
        <time>2022-03-31T07:29:42Z</time>
      </trkpt>
      <trkpt lat="43.52858" lon="5.55595">
        <ele>331.23</ele>
        <time>2022-03-31T07:29:43Z</time>
      </trkpt>
      <trkpt lat="43.52858" lon="5.55601">
        <ele>331.79</ele>
        <time>2022-03-31T07:29:47Z</time>
      </trkpt>
      <trkpt lat="43.52863" lon="5.55625">
        <ele>333.18</ele>
        <time>2022-03-31T07:30:03Z</time>
      </trkpt>
      <trkpt lat="43.52868" lon="5.55646">
        <ele>334.37</ele>
        <time>2022-03-31T07:30:17Z</time>
      </trkpt>
      <trkpt lat="43.52871" lon="5.55663">
        <ele>335.45</ele>
        <time>2022-03-31T07:30:28Z</time>
      </trkpt>
      <trkpt lat="43.52871" lon="5.55664">
        <ele>335.6</ele>
        <time>2022-03-31T07:30:29Z</time>
      </trkpt>
      <trkpt lat="43.52871" lon="5.55665">
        <ele>335.82</ele>
        <time>2022-03-31T07:30:30Z</time>
      </trkpt>
      <trkpt lat="43.52875" lon="5.55683">
        <ele>337.21</ele>
        <time>2022-03-31T07:30:42Z</time>
      </trkpt>
      <trkpt lat="43.52878" lon="5.55698">
        <ele>338.15</ele>
        <time>2022-03-31T07:30:53Z</time>
      </trkpt>
      <trkpt lat="43.52878" lon="5.55699">
        <ele>338.24</ele>
        <time>2022-03-31T07:30:54Z</time>
      </trkpt>
      <trkpt lat="43.52878" lon="5.55701">
        <ele>338.3</ele>
        <time>2022-03-31T07:30:55Z</time>
      </trkpt>
      <trkpt lat="43.52878" lon="5.55704">
        <ele>338.44</ele>
        <time>2022-03-31T07:30:57Z</time>
      </trkpt>
      <trkpt lat="43.52878" lon="5.55705">
        <ele>338.52</ele>
        <time>2022-03-31T07:30:58Z</time>
      </trkpt>
      <trkpt lat="43.52881" lon="5.55723">
        <ele>339.6</ele>
        <time>2022-03-31T07:31:10Z</time>
      </trkpt>
      <trkpt lat="43.52885" lon="5.55736">
        <ele>340.64</ele>
        <time>2022-03-31T07:31:20Z</time>
      </trkpt>
      <trkpt lat="43.52887" lon="5.55757">
        <ele>341.99</ele>
        <time>2022-03-31T07:31:35Z</time>
      </trkpt>
      <trkpt lat="43.52891" lon="5.55777">
        <ele>343.19</ele>
        <time>2022-03-31T07:31:48Z</time>
      </trkpt>
      <trkpt lat="43.52892" lon="5.5579">
        <ele>344.1</ele>
        <time>2022-03-31T07:31:57Z</time>
      </trkpt>
      <trkpt lat="43.52893" lon="5.55791">
        <ele>344.19</ele>
        <time>2022-03-31T07:31:58Z</time>
      </trkpt>
      <trkpt lat="43.52893" lon="5.55812">
        <ele>345.42</ele>
        <time>2022-03-31T07:32:12Z</time>
      </trkpt>
      <trkpt lat="43.52893" lon="5.55815">
        <ele>345.73</ele>
        <time>2022-03-31T07:32:14Z</time>
      </trkpt>
      <trkpt lat="43.52893" lon="5.55817">
        <ele>345.82</ele>
        <time>2022-03-31T07:32:15Z</time>
      </trkpt>
      <trkpt lat="43.52895" lon="5.55825">
        <ele>346.02</ele>
        <time>2022-03-31T07:32:21Z</time>
      </trkpt>
      <trkpt lat="43.52895" lon="5.55827">
        <ele>346.06</ele>
        <time>2022-03-31T07:32:22Z</time>
      </trkpt>
      <trkpt lat="43.52895" lon="5.55829">
        <ele>346.1</ele>
        <time>2022-03-31T07:32:23Z</time>
      </trkpt>
      <trkpt lat="43.52895" lon="5.55831">
        <ele>346.16</ele>
        <time>2022-03-31T07:32:24Z</time>
      </trkpt>
      <trkpt lat="43.52898" lon="5.55847">
        <ele>347.38</ele>
        <time>2022-03-31T07:32:36Z</time>
      </trkpt>
      <trkpt lat="43.529" lon="5.55864">
        <ele>348.21</ele>
        <time>2022-03-31T07:32:48Z</time>
      </trkpt>
      <trkpt lat="43.52901" lon="5.55882">
        <ele>349.81</ele>
        <time>2022-03-31T07:33:02Z</time>
      </trkpt>
      <trkpt lat="43.52902" lon="5.55891">
        <ele>350.95</ele>
        <time>2022-03-31T07:33:18Z</time>
      </trkpt>
      <trkpt lat="43.52904" lon="5.559">
        <ele>350.93</ele>
        <time>2022-03-31T07:33:22Z</time>
      </trkpt>
      <trkpt lat="43.52902" lon="5.55912">
        <ele>351.6</ele>
        <time>2022-03-31T07:33:29Z</time>
      </trkpt>
      <trkpt lat="43.52904" lon="5.55915">
        <ele>351.77</ele>
        <time>2022-03-31T07:33:31Z</time>
      </trkpt>
      <trkpt lat="43.52904" lon="5.55916">
        <ele>351.81</ele>
        <time>2022-03-31T07:33:32Z</time>
      </trkpt>
      <trkpt lat="43.52909" lon="5.55929">
        <ele>352.94</ele>
        <time>2022-03-31T07:33:43Z</time>
      </trkpt>
      <trkpt lat="43.52913" lon="5.55945">
        <ele>354.96</ele>
        <time>2022-03-31T07:33:56Z</time>
      </trkpt>
      <trkpt lat="43.52917" lon="5.55956">
        <ele>356.93</ele>
        <time>2022-03-31T07:34:08Z</time>
      </trkpt>
      <trkpt lat="43.52924" lon="5.55973">
        <ele>358.9</ele>
        <time>2022-03-31T07:34:21Z</time>
      </trkpt>
      <trkpt lat="43.5293" lon="5.55989">
        <ele>360.5</ele>
        <time>2022-03-31T07:34:33Z</time>
      </trkpt>
      <trkpt lat="43.52933" lon="5.56005">
        <ele>362.04</ele>
        <time>2022-03-31T07:34:45Z</time>
      </trkpt>
      <trkpt lat="43.52936" lon="5.56024">
        <ele>363.27</ele>
        <time>2022-03-31T07:34:58Z</time>
      </trkpt>
      <trkpt lat="43.52939" lon="5.56038">
        <ele>364.03</ele>
        <time>2022-03-31T07:35:09Z</time>
      </trkpt>
      <trkpt lat="43.5294" lon="5.5605">
        <ele>366.28</ele>
        <time>2022-03-31T07:35:20Z</time>
      </trkpt>
      <trkpt lat="43.52943" lon="5.56064">
        <ele>368.36</ele>
        <time>2022-03-31T07:35:32Z</time>
      </trkpt>
      <trkpt lat="43.52943" lon="5.56076">
        <ele>369.6</ele>
        <time>2022-03-31T07:35:45Z</time>
      </trkpt>
      <trkpt lat="43.52945" lon="5.5608">
        <ele>370.16</ele>
        <time>2022-03-31T07:35:48Z</time>
      </trkpt>
      <trkpt lat="43.52947" lon="5.56092">
        <ele>372.03</ele>
        <time>2022-03-31T07:36:01Z</time>
      </trkpt>
      <trkpt lat="43.5295" lon="5.56104">
        <ele>374.17</ele>
        <time>2022-03-31T07:36:17Z</time>
      </trkpt>
      <trkpt lat="43.52953" lon="5.56118">
        <ele>375.84</ele>
        <time>2022-03-31T07:36:30Z</time>
      </trkpt>
      <trkpt lat="43.52953" lon="5.5613">
        <ele>377.84</ele>
        <time>2022-03-31T07:36:43Z</time>
      </trkpt>
      <trkpt lat="43.52953" lon="5.56147">
        <ele>380.09</ele>
        <time>2022-03-31T07:37:00Z</time>
      </trkpt>
      <trkpt lat="43.52953" lon="5.56163">
        <ele>382.97</ele>
        <time>2022-03-31T07:37:18Z</time>
      </trkpt>
      <trkpt lat="43.52953" lon="5.56176">
        <ele>385.59</ele>
        <time>2022-03-31T07:37:33Z</time>
      </trkpt>
      <trkpt lat="43.52951" lon="5.5619">
        <ele>387.14</ele>
        <time>2022-03-31T07:37:46Z</time>
      </trkpt>
      <trkpt lat="43.5295" lon="5.56205">
        <ele>389.01</ele>
        <time>2022-03-31T07:38:01Z</time>
      </trkpt>
      <trkpt lat="43.52949" lon="5.56219">
        <ele>390.34</ele>
        <time>2022-03-31T07:38:15Z</time>
      </trkpt>
      <trkpt lat="43.52948" lon="5.56233">
        <ele>392.75</ele>
        <time>2022-03-31T07:38:28Z</time>
      </trkpt>
      <trkpt lat="43.52946" lon="5.56248">
        <ele>395.09</ele>
        <time>2022-03-31T07:38:45Z</time>
      </trkpt>
      <trkpt lat="43.52941" lon="5.56264">
        <ele>398.18</ele>
        <time>2022-03-31T07:39:01Z</time>
      </trkpt>
      <trkpt lat="43.52941" lon="5.56274">
        <ele>400.62</ele>
        <time>2022-03-31T07:39:15Z</time>
      </trkpt>
      <trkpt lat="43.5294" lon="5.56287">
        <ele>403.2</ele>
        <time>2022-03-31T07:39:31Z</time>
      </trkpt>
      <trkpt lat="43.52938" lon="5.56303">
        <ele>406.2</ele>
        <time>2022-03-31T07:39:47Z</time>
      </trkpt>
      <trkpt lat="43.52936" lon="5.56318">
        <ele>408.52</ele>
        <time>2022-03-31T07:40:02Z</time>
      </trkpt>
      <trkpt lat="43.52933" lon="5.56332">
        <ele>410.67</ele>
        <time>2022-03-31T07:40:16Z</time>
      </trkpt>
      <trkpt lat="43.52933" lon="5.56349">
        <ele>413.24</ele>
        <time>2022-03-31T07:40:32Z</time>
      </trkpt>
      <trkpt lat="43.52929" lon="5.56361">
        <ele>414.95</ele>
        <time>2022-03-31T07:40:45Z</time>
      </trkpt>
      <trkpt lat="43.52922" lon="5.56371">
        <ele>416.14</ele>
        <time>2022-03-31T07:40:55Z</time>
      </trkpt>
      <trkpt lat="43.52916" lon="5.56378">
        <ele>416.91</ele>
        <time>2022-03-31T07:41:03Z</time>
      </trkpt>
      <trkpt lat="43.52914" lon="5.5638">
        <ele>417.2</ele>
        <time>2022-03-31T07:41:05Z</time>
      </trkpt>
      <trkpt lat="43.52907" lon="5.5639">
        <ele>419.33</ele>
        <time>2022-03-31T07:41:17Z</time>
      </trkpt>
      <trkpt lat="43.52905" lon="5.56404">
        <ele>420.81</ele>
        <time>2022-03-31T07:41:30Z</time>
      </trkpt>
      <trkpt lat="43.52901" lon="5.56416">
        <ele>422.76</ele>
        <time>2022-03-31T07:41:41Z</time>
      </trkpt>
      <trkpt lat="43.52893" lon="5.56431">
        <ele>424.17</ele>
        <time>2022-03-31T07:41:56Z</time>
      </trkpt>
      <trkpt lat="43.52892" lon="5.56436">
        <ele>424.75</ele>
        <time>2022-03-31T07:42:00Z</time>
      </trkpt>
      <trkpt lat="43.52887" lon="5.56447">
        <ele>427.26</ele>
        <time>2022-03-31T07:42:12Z</time>
      </trkpt>
      <trkpt lat="43.52886" lon="5.56462">
        <ele>428.2</ele>
        <time>2022-03-31T07:42:24Z</time>
      </trkpt>
      <trkpt lat="43.52893" lon="5.5648">
        <ele>427.82</ele>
        <time>2022-03-31T07:42:37Z</time>
      </trkpt>
      <trkpt lat="43.52898" lon="5.56496">
        <ele>428.08</ele>
        <time>2022-03-31T07:42:49Z</time>
      </trkpt>
      <trkpt lat="43.52906" lon="5.56514">
        <ele>428.4</ele>
        <time>2022-03-31T07:43:01Z</time>
      </trkpt>
      <trkpt lat="43.52914" lon="5.56529">
        <ele>429.29</ele>
        <time>2022-03-31T07:43:14Z</time>
      </trkpt>
      <trkpt lat="43.52916" lon="5.56545">
        <ele>430.46</ele>
        <time>2022-03-31T07:43:26Z</time>
      </trkpt>
      <trkpt lat="43.52916" lon="5.56546">
        <ele>430.64</ele>
        <time>2022-03-31T07:43:27Z</time>
      </trkpt>
      <trkpt lat="43.52916" lon="5.5656">
        <ele>432.15</ele>
        <time>2022-03-31T07:43:37Z</time>
      </trkpt>
      <trkpt lat="43.52911" lon="5.56576">
        <ele>433.3</ele>
        <time>2022-03-31T07:43:49Z</time>
      </trkpt>
      <trkpt lat="43.52907" lon="5.5659">
        <ele>434.4</ele>
        <time>2022-03-31T07:44:00Z</time>
      </trkpt>
      <trkpt lat="43.52904" lon="5.56601">
        <ele>435.59</ele>
        <time>2022-03-31T07:44:08Z</time>
      </trkpt>
      <trkpt lat="43.52903" lon="5.56602">
        <ele>435.6</ele>
        <time>2022-03-31T07:44:09Z</time>
      </trkpt>
      <trkpt lat="43.52903" lon="5.56604">
        <ele>435.6</ele>
        <time>2022-03-31T07:44:10Z</time>
      </trkpt>
      <trkpt lat="43.52902" lon="5.56605">
        <ele>435.6</ele>
        <time>2022-03-31T07:44:11Z</time>
      </trkpt>
      <trkpt lat="43.52902" lon="5.56607">
        <ele>435.6</ele>
        <time>2022-03-31T07:44:12Z</time>
      </trkpt>
      <trkpt lat="43.52902" lon="5.56608">
        <ele>435.6</ele>
        <time>2022-03-31T07:44:13Z</time>
      </trkpt>
      <trkpt lat="43.52901" lon="5.5661">
        <ele>435.59</ele>
        <time>2022-03-31T07:44:14Z</time>
      </trkpt>
      <trkpt lat="43.52901" lon="5.56612">
        <ele>435.57</ele>
        <time>2022-03-31T07:44:15Z</time>
      </trkpt>
      <trkpt lat="43.52901" lon="5.56613">
        <ele>435.52</ele>
        <time>2022-03-31T07:44:16Z</time>
      </trkpt>
      <trkpt lat="43.52898" lon="5.56629">
        <ele>435.28</ele>
        <time>2022-03-31T07:44:26Z</time>
      </trkpt>
      <trkpt lat="43.52898" lon="5.56631">
        <ele>435.28</ele>
        <time>2022-03-31T07:44:27Z</time>
      </trkpt>
      <trkpt lat="43.52898" lon="5.56632">
        <ele>435.3</ele>
        <time>2022-03-31T07:44:28Z</time>
      </trkpt>
      <trkpt lat="43.52897" lon="5.56634">
        <ele>435.32</ele>
        <time>2022-03-31T07:44:29Z</time>
      </trkpt>
      <trkpt lat="43.52897" lon="5.56635">
        <ele>435.35</ele>
        <time>2022-03-31T07:44:30Z</time>
      </trkpt>
      <trkpt lat="43.52892" lon="5.56656">
        <ele>435.84</ele>
        <time>2022-03-31T07:44:43Z</time>
      </trkpt>
      <trkpt lat="43.52892" lon="5.56658">
        <ele>435.91</ele>
        <time>2022-03-31T07:44:44Z</time>
      </trkpt>
      <trkpt lat="43.5289" lon="5.56672">
        <ele>437.02</ele>
        <time>2022-03-31T07:44:55Z</time>
      </trkpt>
      <trkpt lat="43.52888" lon="5.56686">
        <ele>439.58</ele>
        <time>2022-03-31T07:45:08Z</time>
      </trkpt>
      <trkpt lat="43.52888" lon="5.56691">
        <ele>440.28</ele>
        <time>2022-03-31T07:45:12Z</time>
      </trkpt>
      <trkpt lat="43.52885" lon="5.56704">
        <ele>442.14</ele>
        <time>2022-03-31T07:45:24Z</time>
      </trkpt>
      <trkpt lat="43.52885" lon="5.56705">
        <ele>442.16</ele>
        <time>2022-03-31T07:45:25Z</time>
      </trkpt>
      <trkpt lat="43.52887" lon="5.56723">
        <ele>441.78</ele>
        <time>2022-03-31T07:45:37Z</time>
      </trkpt>
      <trkpt lat="43.5289" lon="5.56741">
        <ele>441.14</ele>
        <time>2022-03-31T07:45:49Z</time>
      </trkpt>
      <trkpt lat="43.52891" lon="5.5675">
        <ele>441.25</ele>
        <time>2022-03-31T07:45:55Z</time>
      </trkpt>
      <trkpt lat="43.52891" lon="5.56751">
        <ele>441.7</ele>
        <time>2022-03-31T07:46:06Z</time>
      </trkpt>
      <trkpt lat="43.52895" lon="5.56753">
        <ele>441.34</ele>
        <time>2022-03-31T07:46:27Z</time>
      </trkpt>
      <trkpt lat="43.52895" lon="5.56759">
        <ele>441.8</ele>
        <time>2022-03-31T07:46:42Z</time>
      </trkpt>
      <trkpt lat="43.52894" lon="5.5676">
        <ele>441.84</ele>
        <time>2022-03-31T07:46:43Z</time>
      </trkpt>
      <trkpt lat="43.52894" lon="5.56761">
        <ele>441.86</ele>
        <time>2022-03-31T07:46:44Z</time>
      </trkpt>
      <trkpt lat="43.52893" lon="5.56778">
        <ele>442.22</ele>
        <time>2022-03-31T07:46:55Z</time>
      </trkpt>
      <trkpt lat="43.52887" lon="5.568">
        <ele>442.71</ele>
        <time>2022-03-31T07:47:10Z</time>
      </trkpt>
      <trkpt lat="43.52883" lon="5.56809">
        <ele>443.17</ele>
        <time>2022-03-31T07:47:17Z</time>
      </trkpt>
      <trkpt lat="43.52883" lon="5.5681">
        <ele>443.28</ele>
        <time>2022-03-31T07:47:18Z</time>
      </trkpt>
      <trkpt lat="43.52883" lon="5.56812">
        <ele>443.37</ele>
        <time>2022-03-31T07:47:19Z</time>
      </trkpt>
      <trkpt lat="43.5288" lon="5.56826">
        <ele>444.41</ele>
        <time>2022-03-31T07:47:29Z</time>
      </trkpt>
      <trkpt lat="43.52878" lon="5.56837">
        <ele>444.54</ele>
        <time>2022-03-31T07:47:38Z</time>
      </trkpt>
      <trkpt lat="43.52878" lon="5.56839">
        <ele>444.6</ele>
        <time>2022-03-31T07:47:39Z</time>
      </trkpt>
      <trkpt lat="43.52877" lon="5.5684">
        <ele>444.65</ele>
        <time>2022-03-31T07:47:40Z</time>
      </trkpt>
      <trkpt lat="43.52877" lon="5.56842">
        <ele>444.7</ele>
        <time>2022-03-31T07:47:41Z</time>
      </trkpt>
      <trkpt lat="43.52877" lon="5.56844">
        <ele>444.75</ele>
        <time>2022-03-31T07:47:42Z</time>
      </trkpt>
      <trkpt lat="43.52877" lon="5.56845">
        <ele>444.82</ele>
        <time>2022-03-31T07:47:43Z</time>
      </trkpt>
      <trkpt lat="43.52878" lon="5.56867">
        <ele>445.32</ele>
        <time>2022-03-31T07:47:57Z</time>
      </trkpt>
      <trkpt lat="43.52877" lon="5.56875">
        <ele>445.26</ele>
        <time>2022-03-31T07:48:03Z</time>
      </trkpt>
      <trkpt lat="43.52877" lon="5.56877">
        <ele>445.24</ele>
        <time>2022-03-31T07:48:04Z</time>
      </trkpt>
      <trkpt lat="43.52878" lon="5.56878">
        <ele>445.2</ele>
        <time>2022-03-31T07:48:05Z</time>
      </trkpt>
      <trkpt lat="43.52876" lon="5.56897">
        <ele>444.54</ele>
        <time>2022-03-31T07:48:19Z</time>
      </trkpt>
      <trkpt lat="43.52877" lon="5.56905">
        <ele>444.63</ele>
        <time>2022-03-31T07:48:34Z</time>
      </trkpt>
      <trkpt lat="43.52881" lon="5.56908">
        <ele>445.91</ele>
        <time>2022-03-31T07:48:40Z</time>
      </trkpt>
      <trkpt lat="43.52892" lon="5.56916">
        <ele>447.97</ele>
        <time>2022-03-31T07:48:54Z</time>
      </trkpt>
      <trkpt lat="43.52909" lon="5.56917">
        <ele>450.73</ele>
        <time>2022-03-31T07:49:10Z</time>
      </trkpt>
      <trkpt lat="43.52919" lon="5.5692">
        <ele>452.05</ele>
        <time>2022-03-31T07:49:21Z</time>
      </trkpt>
      <trkpt lat="43.52928" lon="5.56923">
        <ele>453.27</ele>
        <time>2022-03-31T07:49:32Z</time>
      </trkpt>
      <trkpt lat="43.52934" lon="5.56926">
        <ele>455.51</ele>
        <time>2022-03-31T07:49:50Z</time>
      </trkpt>
      <trkpt lat="43.52949" lon="5.56928">
        <ele>457.12</ele>
        <time>2022-03-31T07:50:06Z</time>
      </trkpt>
      <trkpt lat="43.52958" lon="5.56928">
        <ele>458.95</ele>
        <time>2022-03-31T07:50:19Z</time>
      </trkpt>
      <trkpt lat="43.52965" lon="5.56922">
        <ele>460.81</ele>
        <time>2022-03-31T07:50:32Z</time>
      </trkpt>
      <trkpt lat="43.52971" lon="5.56904">
        <ele>461.2</ele>
        <time>2022-03-31T07:50:47Z</time>
      </trkpt>
      <trkpt lat="43.52978" lon="5.56887">
        <ele>461.87</ele>
        <time>2022-03-31T07:51:01Z</time>
      </trkpt>
      <trkpt lat="43.52984" lon="5.56891">
        <ele>463.05</ele>
        <time>2022-03-31T07:51:15Z</time>
      </trkpt>
      <trkpt lat="43.52991" lon="5.5688">
        <ele>463.46</ele>
        <time>2022-03-31T07:51:57Z</time>
      </trkpt>
      <trkpt lat="43.52999" lon="5.56875">
        <ele>466.56</ele>
        <time>2022-03-31T07:52:12Z</time>
      </trkpt>
      <trkpt lat="43.53011" lon="5.56867">
        <ele>469.38</ele>
        <time>2022-03-31T07:52:29Z</time>
      </trkpt>
      <trkpt lat="43.5302" lon="5.56861">
        <ele>471.62</ele>
        <time>2022-03-31T07:52:45Z</time>
      </trkpt>
      <trkpt lat="43.53028" lon="5.56846">
        <ele>473.32</ele>
        <time>2022-03-31T07:53:02Z</time>
      </trkpt>
      <trkpt lat="43.53031" lon="5.56831">
        <ele>475.5</ele>
        <time>2022-03-31T07:53:18Z</time>
      </trkpt>
      <trkpt lat="43.53035" lon="5.56817">
        <ele>477.32</ele>
        <time>2022-03-31T07:53:34Z</time>
      </trkpt>
      <trkpt lat="43.53038" lon="5.56808">
        <ele>479.24</ele>
        <time>2022-03-31T07:53:48Z</time>
      </trkpt>
      <trkpt lat="43.53046" lon="5.56805">
        <ele>481.51</ele>
        <time>2022-03-31T07:54:05Z</time>
      </trkpt>
      <trkpt lat="43.53053" lon="5.56801">
        <ele>483.9</ele>
        <time>2022-03-31T07:54:20Z</time>
      </trkpt>
      <trkpt lat="43.53058" lon="5.56794">
        <ele>485.12</ele>
        <time>2022-03-31T07:54:36Z</time>
      </trkpt>
      <trkpt lat="43.53052" lon="5.56784">
        <ele>488.23</ele>
        <time>2022-03-31T07:54:51Z</time>
      </trkpt>
      <trkpt lat="43.53047" lon="5.56773">
        <ele>490.12</ele>
        <time>2022-03-31T07:55:07Z</time>
      </trkpt>
      <trkpt lat="43.53042" lon="5.56759">
        <ele>492.61</ele>
        <time>2022-03-31T07:55:23Z</time>
      </trkpt>
      <trkpt lat="43.53038" lon="5.56746">
        <ele>494.8</ele>
        <time>2022-03-31T07:55:41Z</time>
      </trkpt>
      <trkpt lat="43.53043" lon="5.56731">
        <ele>496.8</ele>
        <time>2022-03-31T07:55:58Z</time>
      </trkpt>
      <trkpt lat="43.53055" lon="5.56722">
        <ele>498.86</ele>
        <time>2022-03-31T07:56:12Z</time>
      </trkpt>
      <trkpt lat="43.53068" lon="5.56718">
        <ele>500.59</ele>
        <time>2022-03-31T07:56:27Z</time>
      </trkpt>
      <trkpt lat="43.53071" lon="5.56705">
        <ele>502.52</ele>
        <time>2022-03-31T07:56:41Z</time>
      </trkpt>
      <trkpt lat="43.53076" lon="5.56692">
        <ele>505.48</ele>
        <time>2022-03-31T07:56:57Z</time>
      </trkpt>
      <trkpt lat="43.53077" lon="5.56689">
        <ele>506.66</ele>
        <time>2022-03-31T07:57:12Z</time>
      </trkpt>
      <trkpt lat="43.53077" lon="5.56689">
        <ele>506.6</ele>
        <time>2022-03-31T07:57:40Z</time>
      </trkpt>
      <trkpt lat="43.53085" lon="5.56693">
        <ele>507.59</ele>
        <time>2022-03-31T07:57:51Z</time>
      </trkpt>
      <trkpt lat="43.53096" lon="5.56697">
        <ele>510.36</ele>
        <time>2022-03-31T07:58:07Z</time>
      </trkpt>
      <trkpt lat="43.53099" lon="5.56698">
        <ele>511.84</ele>
        <time>2022-03-31T07:58:22Z</time>
      </trkpt>
      <trkpt lat="43.53099" lon="5.56696">
        <ele>512.79</ele>
        <time>2022-03-31T07:58:36Z</time>
      </trkpt>
      <trkpt lat="43.53099" lon="5.56696">
        <ele>513.2</ele>
        <time>2022-03-31T07:58:56Z</time>
      </trkpt>
      <trkpt lat="43.531" lon="5.56696">
        <ele>514.43</ele>
        <time>2022-03-31T07:58:58Z</time>
      </trkpt>
      <trkpt lat="43.53106" lon="5.56699">
        <ele>514.12</ele>
        <time>2022-03-31T07:59:08Z</time>
      </trkpt>
      <trkpt lat="43.53113" lon="5.56704">
        <ele>515.91</ele>
        <time>2022-03-31T07:59:19Z</time>
      </trkpt>
      <trkpt lat="43.5312" lon="5.56715">
        <ele>518.48</ele>
        <time>2022-03-31T07:59:33Z</time>
      </trkpt>
      <trkpt lat="43.53122" lon="5.56721">
        <ele>519.44</ele>
        <time>2022-03-31T07:59:46Z</time>
      </trkpt>
      <trkpt lat="43.53129" lon="5.56727">
        <ele>521.66</ele>
        <time>2022-03-31T08:00:01Z</time>
      </trkpt>
      <trkpt lat="43.53131" lon="5.56719">
        <ele>524.03</ele>
        <time>2022-03-31T08:00:15Z</time>
      </trkpt>
      <trkpt lat="43.53136" lon="5.56709">
        <ele>525.49</ele>
        <time>2022-03-31T08:00:29Z</time>
      </trkpt>
      <trkpt lat="43.53142" lon="5.56709">
        <ele>527.4</ele>
        <time>2022-03-31T08:00:42Z</time>
      </trkpt>
      <trkpt lat="43.53145" lon="5.56709">
        <ele>528.08</ele>
        <time>2022-03-31T08:01:05Z</time>
      </trkpt>
      <trkpt lat="43.5315" lon="5.56718">
        <ele>528.62</ele>
        <time>2022-03-31T08:01:19Z</time>
      </trkpt>
      <trkpt lat="43.5315" lon="5.5673">
        <ele>530.56</ele>
        <time>2022-03-31T08:01:37Z</time>
      </trkpt>
      <trkpt lat="43.5315" lon="5.56739">
        <ele>533.17</ele>
        <time>2022-03-31T08:01:54Z</time>
      </trkpt>
      <trkpt lat="43.53149" lon="5.56752">
        <ele>536.19</ele>
        <time>2022-03-31T08:02:09Z</time>
      </trkpt>
      <trkpt lat="43.53148" lon="5.56758">
        <ele>537.96</ele>
        <time>2022-03-31T08:02:20Z</time>
      </trkpt>
      <trkpt lat="43.53149" lon="5.56758">
        <ele>538.29</ele>
        <time>2022-03-31T08:02:40Z</time>
      </trkpt>
      <trkpt lat="43.53152" lon="5.56767">
        <ele>539.23</ele>
        <time>2022-03-31T08:02:58Z</time>
      </trkpt>
      <trkpt lat="43.5316" lon="5.56778">
        <ele>542.3</ele>
        <time>2022-03-31T08:03:16Z</time>
      </trkpt>
      <trkpt lat="43.53169" lon="5.56782">
        <ele>544.87</ele>
        <time>2022-03-31T08:03:32Z</time>
      </trkpt>
      <trkpt lat="43.53177" lon="5.56788">
        <ele>547.27</ele>
        <time>2022-03-31T08:03:48Z</time>
      </trkpt>
      <trkpt lat="43.53187" lon="5.56793">
        <ele>549.3</ele>
        <time>2022-03-31T08:04:05Z</time>
      </trkpt>
      <trkpt lat="43.53195" lon="5.56803">
        <ele>550.75</ele>
        <time>2022-03-31T08:04:21Z</time>
      </trkpt>
      <trkpt lat="43.53206" lon="5.56815">
        <ele>553.15</ele>
        <time>2022-03-31T08:04:40Z</time>
      </trkpt>
      <trkpt lat="43.53212" lon="5.56829">
        <ele>556.23</ele>
        <time>2022-03-31T08:04:58Z</time>
      </trkpt>
      <trkpt lat="43.53217" lon="5.56846">
        <ele>558.45</ele>
        <time>2022-03-31T08:05:15Z</time>
      </trkpt>
      <trkpt lat="43.5322" lon="5.56863">
        <ele>560.07</ele>
        <time>2022-03-31T08:05:32Z</time>
      </trkpt>
      <trkpt lat="43.53223" lon="5.56872">
        <ele>560.95</ele>
        <time>2022-03-31T08:05:46Z</time>
      </trkpt>
      <trkpt lat="43.53227" lon="5.56877">
        <ele>560.31</ele>
        <time>2022-03-31T08:06:02Z</time>
      </trkpt>
      <trkpt lat="43.53238" lon="5.56885">
        <ele>559.55</ele>
        <time>2022-03-31T08:06:16Z</time>
      </trkpt>
      <trkpt lat="43.53243" lon="5.56899">
        <ele>559.6</ele>
        <time>2022-03-31T08:06:29Z</time>
      </trkpt>
      <trkpt lat="43.53247" lon="5.56912">
        <ele>560.07</ele>
        <time>2022-03-31T08:06:41Z</time>
      </trkpt>
      <trkpt lat="43.5325" lon="5.56919">
        <ele>560.91</ele>
        <time>2022-03-31T08:06:48Z</time>
      </trkpt>
      <trkpt lat="43.53257" lon="5.56932">
        <ele>560.98</ele>
        <time>2022-03-31T08:07:00Z</time>
      </trkpt>
      <trkpt lat="43.53269" lon="5.56944">
        <ele>562.71</ele>
        <time>2022-03-31T08:07:22Z</time>
      </trkpt>
      <trkpt lat="43.53282" lon="5.56947">
        <ele>565.84</ele>
        <time>2022-03-31T08:07:41Z</time>
      </trkpt>
      <trkpt lat="43.53289" lon="5.56954">
        <ele>568.94</ele>
        <time>2022-03-31T08:07:58Z</time>
      </trkpt>
      <trkpt lat="43.53296" lon="5.56961">
        <ele>571.85</ele>
        <time>2022-03-31T08:08:16Z</time>
      </trkpt>
      <trkpt lat="43.53303" lon="5.56968">
        <ele>574.27</ele>
        <time>2022-03-31T08:08:33Z</time>
      </trkpt>
      <trkpt lat="43.53311" lon="5.5697">
        <ele>575.47</ele>
        <time>2022-03-31T08:08:48Z</time>
      </trkpt>
      <trkpt lat="43.53322" lon="5.56974">
        <ele>577.46</ele>
        <time>2022-03-31T08:09:04Z</time>
      </trkpt>
      <trkpt lat="43.5333" lon="5.5699">
        <ele>578.62</ele>
        <time>2022-03-31T08:09:20Z</time>
      </trkpt>
      <trkpt lat="43.53332" lon="5.56993">
        <ele>579.11</ele>
        <time>2022-03-31T08:09:24Z</time>
      </trkpt>
      <trkpt lat="43.53342" lon="5.57">
        <ele>580.22</ele>
        <time>2022-03-31T08:09:37Z</time>
      </trkpt>
      <trkpt lat="43.53352" lon="5.56999">
        <ele>581.69</ele>
        <time>2022-03-31T08:09:50Z</time>
      </trkpt>
      <trkpt lat="43.53359" lon="5.5701">
        <ele>582.96</ele>
        <time>2022-03-31T08:10:02Z</time>
      </trkpt>
      <trkpt lat="43.53366" lon="5.57022">
        <ele>584.01</ele>
        <time>2022-03-31T08:10:16Z</time>
      </trkpt>
      <trkpt lat="43.5338" lon="5.57025">
        <ele>585.39</ele>
        <time>2022-03-31T08:10:32Z</time>
      </trkpt>
      <trkpt lat="43.5339" lon="5.57024">
        <ele>588.12</ele>
        <time>2022-03-31T08:10:51Z</time>
      </trkpt>
      <trkpt lat="43.53397" lon="5.57022">
        <ele>590.44</ele>
        <time>2022-03-31T08:11:08Z</time>
      </trkpt>
      <trkpt lat="43.53406" lon="5.57024">
        <ele>593.34</ele>
        <time>2022-03-31T08:11:25Z</time>
      </trkpt>
      <trkpt lat="43.53413" lon="5.57023">
        <ele>595.69</ele>
        <time>2022-03-31T08:11:39Z</time>
      </trkpt>
      <trkpt lat="43.53421" lon="5.5703">
        <ele>598.38</ele>
        <time>2022-03-31T08:11:56Z</time>
      </trkpt>
      <trkpt lat="43.53427" lon="5.57034">
        <ele>600</ele>
        <time>2022-03-31T08:12:12Z</time>
      </trkpt>
      <trkpt lat="43.5343" lon="5.57041">
        <ele>602.45</ele>
        <time>2022-03-31T08:12:28Z</time>
      </trkpt>
      <trkpt lat="43.53439" lon="5.5704">
        <ele>604.65</ele>
        <time>2022-03-31T08:12:44Z</time>
      </trkpt>
      <trkpt lat="43.53439" lon="5.57042">
        <ele>604.43</ele>
        <time>2022-03-31T08:13:08Z</time>
      </trkpt>
      <trkpt lat="43.5344" lon="5.57039">
        <ele>604.72</ele>
        <time>2022-03-31T08:13:30Z</time>
      </trkpt>
      <trkpt lat="43.53445" lon="5.57044">
        <ele>605.31</ele>
        <time>2022-03-31T08:13:40Z</time>
      </trkpt>
      <trkpt lat="43.53454" lon="5.5705">
        <ele>608.03</ele>
        <time>2022-03-31T08:13:59Z</time>
      </trkpt>
      <trkpt lat="43.53462" lon="5.57052">
        <ele>610.33</ele>
        <time>2022-03-31T08:14:13Z</time>
      </trkpt>
      <trkpt lat="43.53467" lon="5.57051">
        <ele>612.17</ele>
        <time>2022-03-31T08:14:28Z</time>
      </trkpt>
      <trkpt lat="43.53479" lon="5.57051">
        <ele>614.65</ele>
        <time>2022-03-31T08:14:46Z</time>
      </trkpt>
      <trkpt lat="43.53488" lon="5.57044">
        <ele>616.72</ele>
        <time>2022-03-31T08:15:03Z</time>
      </trkpt>
      <trkpt lat="43.53489" lon="5.57051">
        <ele>618.9</ele>
        <time>2022-03-31T08:15:20Z</time>
      </trkpt>
      <trkpt lat="43.53492" lon="5.57053">
        <ele>620.27</ele>
        <time>2022-03-31T08:15:37Z</time>
      </trkpt>
      <trkpt lat="43.53494" lon="5.57056">
        <ele>621.34</ele>
        <time>2022-03-31T08:15:55Z</time>
      </trkpt>
      <trkpt lat="43.53501" lon="5.57059">
        <ele>624.36</ele>
        <time>2022-03-31T08:16:11Z</time>
      </trkpt>
      <trkpt lat="43.53507" lon="5.57058">
        <ele>627.49</ele>
        <time>2022-03-31T08:16:25Z</time>
      </trkpt>
      <trkpt lat="43.53513" lon="5.57059">
        <ele>630.37</ele>
        <time>2022-03-31T08:16:43Z</time>
      </trkpt>
      <trkpt lat="43.5352" lon="5.5706">
        <ele>633.4</ele>
        <time>2022-03-31T08:16:59Z</time>
      </trkpt>
      <trkpt lat="43.53527" lon="5.5706">
        <ele>636.44</ele>
        <time>2022-03-31T08:17:16Z</time>
      </trkpt>
      <trkpt lat="43.53533" lon="5.5706">
        <ele>639.29</ele>
        <time>2022-03-31T08:17:32Z</time>
      </trkpt>
      <trkpt lat="43.53539" lon="5.5706">
        <ele>642.29</ele>
        <time>2022-03-31T08:17:47Z</time>
      </trkpt>
      <trkpt lat="43.53541" lon="5.57071">
        <ele>645.39</ele>
        <time>2022-03-31T08:18:07Z</time>
      </trkpt>
      <trkpt lat="43.53543" lon="5.57074">
        <ele>647.72</ele>
        <time>2022-03-31T08:18:26Z</time>
      </trkpt>
      <trkpt lat="43.53543" lon="5.57077">
        <ele>647.66</ele>
        <time>2022-03-31T08:18:48Z</time>
      </trkpt>
      <trkpt lat="43.53547" lon="5.57083">
        <ele>647.89</ele>
        <time>2022-03-31T08:19:14Z</time>
      </trkpt>
      <trkpt lat="43.5355" lon="5.57077">
        <ele>650.37</ele>
        <time>2022-03-31T08:19:31Z</time>
      </trkpt>
      <trkpt lat="43.53555" lon="5.57077">
        <ele>653.38</ele>
        <time>2022-03-31T08:19:49Z</time>
      </trkpt>
      <trkpt lat="43.5356" lon="5.57077">
        <ele>655.77</ele>
        <time>2022-03-31T08:20:05Z</time>
      </trkpt>
      <trkpt lat="43.53568" lon="5.57074">
        <ele>657.84</ele>
        <time>2022-03-31T08:20:22Z</time>
      </trkpt>
      <trkpt lat="43.53575" lon="5.57074">
        <ele>659.3</ele>
        <time>2022-03-31T08:20:40Z</time>
      </trkpt>
      <trkpt lat="43.53578" lon="5.57077">
        <ele>661.95</ele>
        <time>2022-03-31T08:20:57Z</time>
      </trkpt>
      <trkpt lat="43.53586" lon="5.57077">
        <ele>665.23</ele>
        <time>2022-03-31T08:21:13Z</time>
      </trkpt>
      <trkpt lat="43.53593" lon="5.57078">
        <ele>667.85</ele>
        <time>2022-03-31T08:21:31Z</time>
      </trkpt>
      <trkpt lat="43.53597" lon="5.57081">
        <ele>670.87</ele>
        <time>2022-03-31T08:21:48Z</time>
      </trkpt>
      <trkpt lat="43.53605" lon="5.57083">
        <ele>673.38</ele>
        <time>2022-03-31T08:22:07Z</time>
      </trkpt>
      <trkpt lat="43.53612" lon="5.57085">
        <ele>675.73</ele>
        <time>2022-03-31T08:22:24Z</time>
      </trkpt>
      <trkpt lat="43.53612" lon="5.57083">
        <ele>676.68</ele>
        <time>2022-03-31T08:23:30Z</time>
      </trkpt>
      <trkpt lat="43.53614" lon="5.57083">
        <ele>676.26</ele>
        <time>2022-03-31T08:23:57Z</time>
      </trkpt>
      <trkpt lat="43.53619" lon="5.57085">
        <ele>676.26</ele>
        <time>2022-03-31T08:24:13Z</time>
      </trkpt>
      <trkpt lat="43.53627" lon="5.57091">
        <ele>676.26</ele>
        <time>2022-03-31T08:24:31Z</time>
      </trkpt>
      <trkpt lat="43.53631" lon="5.57094">
        <ele>676.26</ele>
        <time>2022-03-31T08:24:49Z</time>
      </trkpt>
      <trkpt lat="43.53633" lon="5.57093">
        <ele>686.96</ele>
        <time>2022-03-31T08:24:54Z</time>
      </trkpt>
      <trkpt lat="43.53634" lon="5.57092">
        <ele>687.11</ele>
        <time>2022-03-31T08:24:55Z</time>
      </trkpt>
      <trkpt lat="43.53637" lon="5.57092">
        <ele>688.58</ele>
        <time>2022-03-31T08:25:11Z</time>
      </trkpt>
      <trkpt lat="43.53643" lon="5.57089">
        <ele>691.82</ele>
        <time>2022-03-31T08:26:21Z</time>
      </trkpt>
      <trkpt lat="43.53642" lon="5.57089">
        <ele>690.67</ele>
        <time>2022-03-31T08:26:42Z</time>
      </trkpt>
      <trkpt lat="43.53642" lon="5.57089">
        <ele>691.22</ele>
        <time>2022-03-31T08:27:16Z</time>
      </trkpt>
      <trkpt lat="43.53642" lon="5.57088">
        <ele>691.22</ele>
        <time>2022-03-31T08:27:48Z</time>
      </trkpt>
      <trkpt lat="43.53642" lon="5.57086">
        <ele>691.22</ele>
        <time>2022-03-31T08:28:15Z</time>
      </trkpt>
      <trkpt lat="43.53642" lon="5.57086">
        <ele>691.22</ele>
        <time>2022-03-31T08:28:35Z</time>
      </trkpt>
      <trkpt lat="43.53647" lon="5.57079">
        <ele>691.22</ele>
        <time>2022-03-31T08:28:47Z</time>
      </trkpt>
      <trkpt lat="43.53653" lon="5.5707">
        <ele>691.22</ele>
        <time>2022-03-31T08:29:05Z</time>
      </trkpt>
      <trkpt lat="43.53662" lon="5.5707">
        <ele>691.22</ele>
        <time>2022-03-31T08:29:20Z</time>
      </trkpt>
      <trkpt lat="43.53667" lon="5.57067">
        <ele>691.22</ele>
        <time>2022-03-31T08:29:36Z</time>
      </trkpt>
      <trkpt lat="43.5367" lon="5.57067">
        <ele>694.66</ele>
        <time>2022-03-31T08:29:59Z</time>
      </trkpt>
      <trkpt lat="43.5367" lon="5.57067">
        <ele>694.38</ele>
        <time>2022-03-31T08:30:00Z</time>
      </trkpt>
      <trkpt lat="43.53676" lon="5.57058">
        <ele>692.3</ele>
        <time>2022-03-31T08:30:16Z</time>
      </trkpt>
      <trkpt lat="43.5368" lon="5.57056">
        <ele>689.3</ele>
        <time>2022-03-31T08:30:31Z</time>
      </trkpt>
      <trkpt lat="43.53688" lon="5.57053">
        <ele>687.77</ele>
        <time>2022-03-31T08:30:51Z</time>
      </trkpt>
      <trkpt lat="43.53694" lon="5.57044">
        <ele>685.56</ele>
        <time>2022-03-31T08:31:04Z</time>
      </trkpt>
      <trkpt lat="43.53699" lon="5.57034">
        <ele>682.42</ele>
        <time>2022-03-31T08:31:19Z</time>
      </trkpt>
      <trkpt lat="43.53706" lon="5.57029">
        <ele>679.15</ele>
        <time>2022-03-31T08:31:33Z</time>
      </trkpt>
      <trkpt lat="43.53714" lon="5.57019">
        <ele>675.98</ele>
        <time>2022-03-31T08:31:46Z</time>
      </trkpt>
      <trkpt lat="43.53719" lon="5.57014">
        <ele>673.91</ele>
        <time>2022-03-31T08:32:00Z</time>
      </trkpt>
      <trkpt lat="43.53728" lon="5.57004">
        <ele>671.66</ele>
        <time>2022-03-31T08:32:12Z</time>
      </trkpt>
      <trkpt lat="43.53736" lon="5.56993">
        <ele>669.02</ele>
        <time>2022-03-31T08:32:24Z</time>
      </trkpt>
      <trkpt lat="43.53743" lon="5.56982">
        <ele>666.39</ele>
        <time>2022-03-31T08:32:38Z</time>
      </trkpt>
      <trkpt lat="43.53748" lon="5.56965">
        <ele>663.85</ele>
        <time>2022-03-31T08:32:54Z</time>
      </trkpt>
      <trkpt lat="43.53754" lon="5.56945">
        <ele>662.12</ele>
        <time>2022-03-31T08:33:07Z</time>
      </trkpt>
      <trkpt lat="43.53755" lon="5.56932">
        <ele>660.78</ele>
        <time>2022-03-31T08:33:19Z</time>
      </trkpt>
      <trkpt lat="43.53755" lon="5.56931">
        <ele>660.65</ele>
        <time>2022-03-31T08:33:43Z</time>
      </trkpt>
      <trkpt lat="43.53754" lon="5.56931">
        <ele>660.52</ele>
        <time>2022-03-31T08:34:05Z</time>
      </trkpt>
      <trkpt lat="43.53757" lon="5.56921">
        <ele>659.47</ele>
        <time>2022-03-31T08:34:22Z</time>
      </trkpt>
      <trkpt lat="43.53769" lon="5.56911">
        <ele>658.39</ele>
        <time>2022-03-31T08:34:37Z</time>
      </trkpt>
      <trkpt lat="43.53773" lon="5.56902">
        <ele>658.05</ele>
        <time>2022-03-31T08:34:51Z</time>
      </trkpt>
      <trkpt lat="43.53778" lon="5.56882">
        <ele>659.47</ele>
        <time>2022-03-31T08:35:09Z</time>
      </trkpt>
      <trkpt lat="43.53786" lon="5.56872">
        <ele>659.87</ele>
        <time>2022-03-31T08:35:24Z</time>
      </trkpt>
      <trkpt lat="43.53794" lon="5.5686">
        <ele>658.57</ele>
        <time>2022-03-31T08:35:41Z</time>
      </trkpt>
      <trkpt lat="43.53799" lon="5.56841">
        <ele>657.81</ele>
        <time>2022-03-31T08:36:00Z</time>
      </trkpt>
      <trkpt lat="43.53804" lon="5.56831">
        <ele>657.33</ele>
        <time>2022-03-31T08:36:12Z</time>
      </trkpt>
      <trkpt lat="43.53811" lon="5.56822">
        <ele>656.43</ele>
        <time>2022-03-31T08:36:26Z</time>
      </trkpt>
      <trkpt lat="43.53818" lon="5.5681">
        <ele>655.96</ele>
        <time>2022-03-31T08:36:41Z</time>
      </trkpt>
      <trkpt lat="43.53825" lon="5.56793">
        <ele>654.9</ele>
        <time>2022-03-31T08:36:59Z</time>
      </trkpt>
      <trkpt lat="43.53825" lon="5.56776">
        <ele>655.05</ele>
        <time>2022-03-31T08:37:12Z</time>
      </trkpt>
      <trkpt lat="43.53833" lon="5.56764">
        <ele>654.02</ele>
        <time>2022-03-31T08:37:30Z</time>
      </trkpt>
      <trkpt lat="43.53837" lon="5.56747">
        <ele>653.5</ele>
        <time>2022-03-31T08:37:49Z</time>
      </trkpt>
      <trkpt lat="43.53837" lon="5.56745">
        <ele>653.25</ele>
        <time>2022-03-31T08:38:11Z</time>
      </trkpt>
      <trkpt lat="43.5384" lon="5.56738">
        <ele>653.26</ele>
        <time>2022-03-31T08:38:30Z</time>
      </trkpt>
      <trkpt lat="43.53846" lon="5.56723">
        <ele>652.32</ele>
        <time>2022-03-31T08:38:46Z</time>
      </trkpt>
      <trkpt lat="43.5385" lon="5.56706">
        <ele>651.07</ele>
        <time>2022-03-31T08:39:01Z</time>
      </trkpt>
      <trkpt lat="43.53854" lon="5.56688">
        <ele>650.42</ele>
        <time>2022-03-31T08:39:19Z</time>
      </trkpt>
      <trkpt lat="43.53851" lon="5.56677">
        <ele>652.25</ele>
        <time>2022-03-31T08:39:35Z</time>
      </trkpt>
      <trkpt lat="43.53853" lon="5.56662">
        <ele>652.63</ele>
        <time>2022-03-31T08:39:49Z</time>
      </trkpt>
      <trkpt lat="43.53857" lon="5.56649">
        <ele>652.33</ele>
        <time>2022-03-31T08:40:03Z</time>
      </trkpt>
      <trkpt lat="43.53861" lon="5.56636">
        <ele>650.79</ele>
        <time>2022-03-31T08:40:19Z</time>
      </trkpt>
      <trkpt lat="43.53862" lon="5.56627">
        <ele>649.85</ele>
        <time>2022-03-31T08:40:26Z</time>
      </trkpt>
      <trkpt lat="43.5386" lon="5.56617">
        <ele>649.68</ele>
        <time>2022-03-31T08:40:32Z</time>
      </trkpt>
      <trkpt lat="43.53859" lon="5.56604">
        <ele>648.56</ele>
        <time>2022-03-31T08:40:44Z</time>
      </trkpt>
      <trkpt lat="43.53858" lon="5.56588">
        <ele>646.33</ele>
        <time>2022-03-31T08:41:01Z</time>
      </trkpt>
      <trkpt lat="43.5386" lon="5.56579">
        <ele>643.17</ele>
        <time>2022-03-31T08:41:13Z</time>
      </trkpt>
      <trkpt lat="43.53864" lon="5.56566">
        <ele>640.55</ele>
        <time>2022-03-31T08:41:27Z</time>
      </trkpt>
      <trkpt lat="43.53865" lon="5.56555">
        <ele>637.33</ele>
        <time>2022-03-31T08:41:39Z</time>
      </trkpt>
      <trkpt lat="43.53859" lon="5.56541">
        <ele>634.64</ele>
        <time>2022-03-31T08:41:53Z</time>
      </trkpt>
      <trkpt lat="43.53856" lon="5.56528">
        <ele>633.23</ele>
        <time>2022-03-31T08:42:06Z</time>
      </trkpt>
      <trkpt lat="43.53853" lon="5.56521">
        <ele>632.83</ele>
        <time>2022-03-31T08:42:28Z</time>
      </trkpt>
      <trkpt lat="43.5385" lon="5.56509">
        <ele>631.66</ele>
        <time>2022-03-31T08:42:39Z</time>
      </trkpt>
      <trkpt lat="43.53849" lon="5.56493">
        <ele>630.03</ele>
        <time>2022-03-31T08:42:52Z</time>
      </trkpt>
      <trkpt lat="43.5385" lon="5.56478">
        <ele>627.53</ele>
        <time>2022-03-31T08:43:08Z</time>
      </trkpt>
      <trkpt lat="43.53849" lon="5.56468">
        <ele>625.59</ele>
        <time>2022-03-31T08:43:18Z</time>
      </trkpt>
      <trkpt lat="43.53844" lon="5.56456">
        <ele>624.19</ele>
        <time>2022-03-31T08:43:30Z</time>
      </trkpt>
      <trkpt lat="43.53844" lon="5.56447">
        <ele>621.83</ele>
        <time>2022-03-31T08:43:46Z</time>
      </trkpt>
      <trkpt lat="43.53846" lon="5.56443">
        <ele>621.07</ele>
        <time>2022-03-31T08:44:06Z</time>
      </trkpt>
      <trkpt lat="43.5384" lon="5.56422">
        <ele>618.82</ele>
        <time>2022-03-31T08:44:25Z</time>
      </trkpt>
      <trkpt lat="43.53838" lon="5.56406">
        <ele>617.68</ele>
        <time>2022-03-31T08:44:36Z</time>
      </trkpt>
      <trkpt lat="43.53838" lon="5.56389">
        <ele>615.94</ele>
        <time>2022-03-31T08:44:50Z</time>
      </trkpt>
      <trkpt lat="43.53835" lon="5.56374">
        <ele>614.11</ele>
        <time>2022-03-31T08:45:05Z</time>
      </trkpt>
      <trkpt lat="43.53832" lon="5.56364">
        <ele>614.78</ele>
        <time>2022-03-31T08:45:12Z</time>
      </trkpt>
      <trkpt lat="43.5383" lon="5.56345">
        <ele>615.07</ele>
        <time>2022-03-31T08:45:26Z</time>
      </trkpt>
      <trkpt lat="43.5383" lon="5.56329">
        <ele>613.2</ele>
        <time>2022-03-31T08:45:38Z</time>
      </trkpt>
      <trkpt lat="43.53832" lon="5.56314">
        <ele>611.96</ele>
        <time>2022-03-31T08:45:53Z</time>
      </trkpt>
      <trkpt lat="43.53833" lon="5.56295">
        <ele>612.79</ele>
        <time>2022-03-31T08:46:06Z</time>
      </trkpt>
      <trkpt lat="43.5383" lon="5.56279">
        <ele>612.46</ele>
        <time>2022-03-31T08:46:20Z</time>
      </trkpt>
      <trkpt lat="43.53828" lon="5.56262">
        <ele>612.28</ele>
        <time>2022-03-31T08:46:34Z</time>
      </trkpt>
      <trkpt lat="43.53827" lon="5.56244">
        <ele>613.46</ele>
        <time>2022-03-31T08:46:48Z</time>
      </trkpt>
      <trkpt lat="43.53829" lon="5.56228">
        <ele>615.12</ele>
        <time>2022-03-31T08:47:02Z</time>
      </trkpt>
      <trkpt lat="43.53832" lon="5.56212">
        <ele>615.06</ele>
        <time>2022-03-31T08:47:15Z</time>
      </trkpt>
      <trkpt lat="43.53833" lon="5.56206">
        <ele>615.06</ele>
        <time>2022-03-31T08:47:20Z</time>
      </trkpt>
      <trkpt lat="43.53834" lon="5.56205">
        <ele>615.11</ele>
        <time>2022-03-31T08:47:21Z</time>
      </trkpt>
      <trkpt lat="43.53834" lon="5.56203">
        <ele>615.13</ele>
        <time>2022-03-31T08:47:22Z</time>
      </trkpt>
      <trkpt lat="43.53836" lon="5.56189">
        <ele>615.68</ele>
        <time>2022-03-31T08:47:34Z</time>
      </trkpt>
      <trkpt lat="43.53839" lon="5.56184">
        <ele>615.91</ele>
        <time>2022-03-31T08:47:39Z</time>
      </trkpt>
      <trkpt lat="43.5384" lon="5.56183">
        <ele>615.94</ele>
        <time>2022-03-31T08:47:40Z</time>
      </trkpt>
      <trkpt lat="43.53843" lon="5.56169">
        <ele>616.26</ele>
        <time>2022-03-31T08:47:52Z</time>
      </trkpt>
      <trkpt lat="43.53849" lon="5.56157">
        <ele>615.24</ele>
        <time>2022-03-31T08:48:05Z</time>
      </trkpt>
      <trkpt lat="43.5385" lon="5.56156">
        <ele>615.22</ele>
        <time>2022-03-31T08:48:06Z</time>
      </trkpt>
      <trkpt lat="43.53853" lon="5.56153">
        <ele>615.15</ele>
        <time>2022-03-31T08:48:09Z</time>
      </trkpt>
      <trkpt lat="43.53862" lon="5.56141">
        <ele>614.76</ele>
        <time>2022-03-31T08:48:22Z</time>
      </trkpt>
      <trkpt lat="43.5387" lon="5.56131">
        <ele>616.72</ele>
        <time>2022-03-31T08:48:36Z</time>
      </trkpt>
      <trkpt lat="43.53883" lon="5.56118">
        <ele>619.44</ele>
        <time>2022-03-31T08:48:53Z</time>
      </trkpt>
      <trkpt lat="43.5389" lon="5.56106">
        <ele>618.7</ele>
        <time>2022-03-31T08:49:07Z</time>
      </trkpt>
      <trkpt lat="43.53897" lon="5.56092">
        <ele>617.62</ele>
        <time>2022-03-31T08:49:21Z</time>
      </trkpt>
      <trkpt lat="43.53899" lon="5.56076">
        <ele>616.64</ele>
        <time>2022-03-31T08:49:35Z</time>
      </trkpt>
      <trkpt lat="43.53894" lon="5.56062">
        <ele>616.61</ele>
        <time>2022-03-31T08:49:48Z</time>
      </trkpt>
      <trkpt lat="43.5389" lon="5.56047">
        <ele>616.86</ele>
        <time>2022-03-31T08:50:00Z</time>
      </trkpt>
      <trkpt lat="43.53886" lon="5.56036">
        <ele>617.17</ele>
        <time>2022-03-31T08:50:09Z</time>
      </trkpt>
      <trkpt lat="43.53886" lon="5.56033">
        <ele>615.51</ele>
        <time>2022-03-31T08:50:21Z</time>
      </trkpt>
      <trkpt lat="43.53882" lon="5.56019">
        <ele>618.08</ele>
        <time>2022-03-31T08:50:33Z</time>
      </trkpt>
      <trkpt lat="43.53879" lon="5.56007">
        <ele>616.96</ele>
        <time>2022-03-31T08:50:42Z</time>
      </trkpt>
      <trkpt lat="43.53879" lon="5.56005">
        <ele>616.85</ele>
        <time>2022-03-31T08:50:43Z</time>
      </trkpt>
      <trkpt lat="43.53878" lon="5.56004">
        <ele>616.79</ele>
        <time>2022-03-31T08:50:44Z</time>
      </trkpt>
      <trkpt lat="43.53873" lon="5.55993">
        <ele>617.7</ele>
        <time>2022-03-31T08:50:52Z</time>
      </trkpt>
      <trkpt lat="43.53873" lon="5.55977">
        <ele>616.11</ele>
        <time>2022-03-31T08:51:05Z</time>
      </trkpt>
      <trkpt lat="43.53874" lon="5.55964">
        <ele>614.38</ele>
        <time>2022-03-31T08:51:19Z</time>
      </trkpt>
      <trkpt lat="43.53874" lon="5.55942">
        <ele>611.93</ele>
        <time>2022-03-31T08:51:36Z</time>
      </trkpt>
      <trkpt lat="43.53873" lon="5.5594">
        <ele>611.85</ele>
        <time>2022-03-31T08:51:38Z</time>
      </trkpt>
      <trkpt lat="43.53873" lon="5.55938">
        <ele>611.84</ele>
        <time>2022-03-31T08:51:39Z</time>
      </trkpt>
      <trkpt lat="43.53872" lon="5.55925">
        <ele>610.7</ele>
        <time>2022-03-31T08:51:52Z</time>
      </trkpt>
      <trkpt lat="43.53872" lon="5.55913">
        <ele>608.27</ele>
        <time>2022-03-31T08:52:04Z</time>
      </trkpt>
      <trkpt lat="43.53872" lon="5.55911">
        <ele>607.88</ele>
        <time>2022-03-31T08:52:05Z</time>
      </trkpt>
      <trkpt lat="43.53872" lon="5.5591">
        <ele>607.51</ele>
        <time>2022-03-31T08:52:06Z</time>
      </trkpt>
      <trkpt lat="43.53872" lon="5.55906">
        <ele>607.1</ele>
        <time>2022-03-31T08:52:08Z</time>
      </trkpt>
      <trkpt lat="43.53872" lon="5.55904">
        <ele>606.99</ele>
        <time>2022-03-31T08:52:09Z</time>
      </trkpt>
      <trkpt lat="43.53872" lon="5.55884">
        <ele>604.8</ele>
        <time>2022-03-31T08:52:23Z</time>
      </trkpt>
      <trkpt lat="43.5387" lon="5.55868">
        <ele>601.74</ele>
        <time>2022-03-31T08:52:36Z</time>
      </trkpt>
      <trkpt lat="43.53869" lon="5.55852">
        <ele>601.24</ele>
        <time>2022-03-31T08:52:48Z</time>
      </trkpt>
      <trkpt lat="43.53872" lon="5.55834">
        <ele>598.31</ele>
        <time>2022-03-31T08:53:05Z</time>
      </trkpt>
      <trkpt lat="43.53875" lon="5.55816">
        <ele>595.13</ele>
        <time>2022-03-31T08:53:18Z</time>
      </trkpt>
      <trkpt lat="43.53875" lon="5.55802">
        <ele>593.5</ele>
        <time>2022-03-31T08:53:29Z</time>
      </trkpt>
      <trkpt lat="43.53877" lon="5.55786">
        <ele>590.61</ele>
        <time>2022-03-31T08:53:42Z</time>
      </trkpt>
      <trkpt lat="43.53871" lon="5.55772">
        <ele>589.22</ele>
        <time>2022-03-31T08:53:54Z</time>
      </trkpt>
      <trkpt lat="43.53871" lon="5.55762">
        <ele>589.99</ele>
        <time>2022-03-31T08:54:05Z</time>
      </trkpt>
      <trkpt lat="43.53868" lon="5.55753">
        <ele>589.05</ele>
        <time>2022-03-31T08:54:15Z</time>
      </trkpt>
      <trkpt lat="43.53867" lon="5.55751">
        <ele>588.88</ele>
        <time>2022-03-31T08:54:34Z</time>
      </trkpt>
      <trkpt lat="43.53867" lon="5.55751">
        <ele>588.64</ele>
        <time>2022-03-31T08:54:58Z</time>
      </trkpt>
      <trkpt lat="43.53866" lon="5.55747">
        <ele>588.3</ele>
        <time>2022-03-31T08:55:18Z</time>
      </trkpt>
      <trkpt lat="43.53867" lon="5.55736">
        <ele>586.29</ele>
        <time>2022-03-31T08:55:30Z</time>
      </trkpt>
      <trkpt lat="43.53867" lon="5.55734">
        <ele>585.89</ele>
        <time>2022-03-31T08:55:31Z</time>
      </trkpt>
      <trkpt lat="43.53859" lon="5.55724">
        <ele>584.66</ele>
        <time>2022-03-31T08:55:42Z</time>
      </trkpt>
      <trkpt lat="43.53852" lon="5.55713">
        <ele>584.99</ele>
        <time>2022-03-31T08:55:57Z</time>
      </trkpt>
      <trkpt lat="43.53849" lon="5.55707">
        <ele>586.11</ele>
        <time>2022-03-31T08:56:10Z</time>
      </trkpt>
      <trkpt lat="43.53845" lon="5.55695">
        <ele>585.72</ele>
        <time>2022-03-31T08:56:23Z</time>
      </trkpt>
      <trkpt lat="43.53846" lon="5.55693">
        <ele>585.31</ele>
        <time>2022-03-31T08:56:36Z</time>
      </trkpt>
      <trkpt lat="43.53842" lon="5.55688">
        <ele>585.21</ele>
        <time>2022-03-31T08:56:52Z</time>
      </trkpt>
      <trkpt lat="43.53845" lon="5.55679">
        <ele>585.79</ele>
        <time>2022-03-31T08:57:13Z</time>
      </trkpt>
      <trkpt lat="43.53843" lon="5.55668">
        <ele>585.79</ele>
        <time>2022-03-31T08:57:25Z</time>
      </trkpt>
      <trkpt lat="43.53842" lon="5.5566">
        <ele>582.78</ele>
        <time>2022-03-31T08:57:33Z</time>
      </trkpt>
      <trkpt lat="43.53841" lon="5.55649">
        <ele>581.33</ele>
        <time>2022-03-31T08:57:48Z</time>
      </trkpt>
      <trkpt lat="43.53839" lon="5.55635">
        <ele>580.38</ele>
        <time>2022-03-31T08:58:01Z</time>
      </trkpt>
      <trkpt lat="43.53839" lon="5.55619">
        <ele>578.63</ele>
        <time>2022-03-31T08:58:14Z</time>
      </trkpt>
      <trkpt lat="43.5384" lon="5.5561">
        <ele>576.31</ele>
        <time>2022-03-31T08:58:23Z</time>
      </trkpt>
      <trkpt lat="43.5384" lon="5.55597">
        <ele>574.87</ele>
        <time>2022-03-31T08:58:35Z</time>
      </trkpt>
      <trkpt lat="43.53843" lon="5.55588">
        <ele>571.57</ele>
        <time>2022-03-31T08:58:45Z</time>
      </trkpt>
      <trkpt lat="43.53842" lon="5.55573">
        <ele>568.79</ele>
        <time>2022-03-31T08:59:01Z</time>
      </trkpt>
      <trkpt lat="43.53841" lon="5.55569">
        <ele>568.6</ele>
        <time>2022-03-31T08:59:04Z</time>
      </trkpt>
      <trkpt lat="43.53841" lon="5.55567">
        <ele>568.56</ele>
        <time>2022-03-31T08:59:05Z</time>
      </trkpt>
      <trkpt lat="43.53844" lon="5.55555">
        <ele>565.2</ele>
        <time>2022-03-31T08:59:16Z</time>
      </trkpt>
      <trkpt lat="43.53846" lon="5.5555">
        <ele>561.91</ele>
        <time>2022-03-31T08:59:21Z</time>
      </trkpt>
      <trkpt lat="43.53852" lon="5.55542">
        <ele>558.4</ele>
        <time>2022-03-31T08:59:34Z</time>
      </trkpt>
      <trkpt lat="43.53858" lon="5.55538">
        <ele>555.39</ele>
        <time>2022-03-31T08:59:43Z</time>
      </trkpt>
      <trkpt lat="43.53858" lon="5.55523">
        <ele>552.84</ele>
        <time>2022-03-31T08:59:58Z</time>
      </trkpt>
      <trkpt lat="43.5386" lon="5.55513">
        <ele>549.72</ele>
        <time>2022-03-31T09:00:10Z</time>
      </trkpt>
      <trkpt lat="43.53859" lon="5.55502">
        <ele>546.6</ele>
        <time>2022-03-31T09:00:23Z</time>
      </trkpt>
      <trkpt lat="43.5386" lon="5.55491">
        <ele>543.43</ele>
        <time>2022-03-31T09:00:34Z</time>
      </trkpt>
      <trkpt lat="43.5386" lon="5.5549">
        <ele>543.14</ele>
        <time>2022-03-31T09:00:35Z</time>
      </trkpt>
      <trkpt lat="43.53861" lon="5.55484">
        <ele>539.79</ele>
        <time>2022-03-31T09:00:44Z</time>
      </trkpt>
      <trkpt lat="43.53858" lon="5.55478">
        <ele>538.03</ele>
        <time>2022-03-31T09:00:57Z</time>
      </trkpt>
      <trkpt lat="43.53859" lon="5.55471">
        <ele>535</ele>
        <time>2022-03-31T09:01:07Z</time>
      </trkpt>
      <trkpt lat="43.53854" lon="5.55465">
        <ele>531.91</ele>
        <time>2022-03-31T09:01:20Z</time>
      </trkpt>
      <trkpt lat="43.53853" lon="5.55458">
        <ele>528.82</ele>
        <time>2022-03-31T09:01:31Z</time>
      </trkpt>
      <trkpt lat="43.53854" lon="5.55447">
        <ele>525.72</ele>
        <time>2022-03-31T09:01:46Z</time>
      </trkpt>
      <trkpt lat="43.53854" lon="5.55435">
        <ele>522.54</ele>
        <time>2022-03-31T09:01:59Z</time>
      </trkpt>
      <trkpt lat="43.53858" lon="5.55427">
        <ele>520.2</ele>
        <time>2022-03-31T09:02:07Z</time>
      </trkpt>
      <trkpt lat="43.53858" lon="5.55426">
        <ele>519.96</ele>
        <time>2022-03-31T09:02:08Z</time>
      </trkpt>
      <trkpt lat="43.53859" lon="5.55424">
        <ele>519.73</ele>
        <time>2022-03-31T09:02:09Z</time>
      </trkpt>
      <trkpt lat="43.5386" lon="5.55423">
        <ele>519.49</ele>
        <time>2022-03-31T09:02:10Z</time>
      </trkpt>
      <trkpt lat="43.53861" lon="5.55421">
        <ele>519.23</ele>
        <time>2022-03-31T09:02:11Z</time>
      </trkpt>
      <trkpt lat="43.53865" lon="5.55413">
        <ele>515.87</ele>
        <time>2022-03-31T09:02:21Z</time>
      </trkpt>
      <trkpt lat="43.5387" lon="5.55404">
        <ele>514.06</ele>
        <time>2022-03-31T09:02:35Z</time>
      </trkpt>
      <trkpt lat="43.53872" lon="5.55399">
        <ele>512.37</ele>
        <time>2022-03-31T09:02:51Z</time>
      </trkpt>
      <trkpt lat="43.53875" lon="5.55391">
        <ele>509.39</ele>
        <time>2022-03-31T09:03:00Z</time>
      </trkpt>
      <trkpt lat="43.53877" lon="5.55386">
        <ele>509.1</ele>
        <time>2022-03-31T09:03:05Z</time>
      </trkpt>
      <trkpt lat="43.53886" lon="5.5538">
        <ele>508.21</ele>
        <time>2022-03-31T09:03:19Z</time>
      </trkpt>
      <trkpt lat="43.5389" lon="5.55371">
        <ele>506.38</ele>
        <time>2022-03-31T09:03:34Z</time>
      </trkpt>
      <trkpt lat="43.53896" lon="5.55369">
        <ele>505.66</ele>
        <time>2022-03-31T09:03:46Z</time>
      </trkpt>
      <trkpt lat="43.53902" lon="5.5536">
        <ele>502.91</ele>
        <time>2022-03-31T09:03:59Z</time>
      </trkpt>
      <trkpt lat="43.53911" lon="5.55352">
        <ele>501.93</ele>
        <time>2022-03-31T09:04:16Z</time>
      </trkpt>
      <trkpt lat="43.53916" lon="5.55342">
        <ele>499.98</ele>
        <time>2022-03-31T09:04:31Z</time>
      </trkpt>
      <trkpt lat="43.53921" lon="5.55327">
        <ele>497.31</ele>
        <time>2022-03-31T09:04:48Z</time>
      </trkpt>
      <trkpt lat="43.5392" lon="5.55314">
        <ele>495.63</ele>
        <time>2022-03-31T09:05:03Z</time>
      </trkpt>
      <trkpt lat="43.5392" lon="5.55302">
        <ele>494.18</ele>
        <time>2022-03-31T09:05:17Z</time>
      </trkpt>
      <trkpt lat="43.53924" lon="5.55291">
        <ele>492.96</ele>
        <time>2022-03-31T09:05:32Z</time>
      </trkpt>
      <trkpt lat="43.5393" lon="5.55284">
        <ele>491.3</ele>
        <time>2022-03-31T09:05:48Z</time>
      </trkpt>
      <trkpt lat="43.53933" lon="5.55271">
        <ele>488.21</ele>
        <time>2022-03-31T09:06:01Z</time>
      </trkpt>
      <trkpt lat="43.5393" lon="5.55259">
        <ele>486.64</ele>
        <time>2022-03-31T09:06:15Z</time>
      </trkpt>
      <trkpt lat="43.53922" lon="5.55236">
        <ele>484.26</ele>
        <time>2022-03-31T09:06:48Z</time>
      </trkpt>
      <trkpt lat="43.53923" lon="5.55238">
        <ele>484.63</ele>
        <time>2022-03-31T09:12:26Z</time>
      </trkpt>
      <trkpt lat="43.53921" lon="5.55229">
        <ele>484.63</ele>
        <time>2022-03-31T09:13:12Z</time>
      </trkpt>
      <trkpt lat="43.5392" lon="5.55221">
        <ele>484.63</ele>
        <time>2022-03-31T09:13:29Z</time>
      </trkpt>
      <trkpt lat="43.53913" lon="5.55198">
        <ele>484.63</ele>
        <time>2022-03-31T09:13:49Z</time>
      </trkpt>
      <trkpt lat="43.53913" lon="5.55171">
        <ele>484.78</ele>
        <time>2022-03-31T09:14:05Z</time>
      </trkpt>
      <trkpt lat="43.53913" lon="5.55149">
        <ele>483.34</ele>
        <time>2022-03-31T09:14:18Z</time>
      </trkpt>
      <trkpt lat="43.53913" lon="5.55147">
        <ele>483.22</ele>
        <time>2022-03-31T09:14:19Z</time>
      </trkpt>
      <trkpt lat="43.53918" lon="5.55132">
        <ele>480.31</ele>
        <time>2022-03-31T09:14:31Z</time>
      </trkpt>
      <trkpt lat="43.53915" lon="5.55113">
        <ele>478.64</ele>
        <time>2022-03-31T09:14:47Z</time>
      </trkpt>
      <trkpt lat="43.53914" lon="5.55096">
        <ele>477.25</ele>
        <time>2022-03-31T09:14:59Z</time>
      </trkpt>
      <trkpt lat="43.53908" lon="5.55077">
        <ele>474.42</ele>
        <time>2022-03-31T09:15:16Z</time>
      </trkpt>
      <trkpt lat="43.53905" lon="5.55069">
        <ele>473.01</ele>
        <time>2022-03-31T09:15:30Z</time>
      </trkpt>
      <trkpt lat="43.539" lon="5.55047">
        <ele>469.98</ele>
        <time>2022-03-31T09:15:47Z</time>
      </trkpt>
      <trkpt lat="43.53892" lon="5.55024">
        <ele>466.89</ele>
        <time>2022-03-31T09:16:04Z</time>
      </trkpt>
      <trkpt lat="43.53886" lon="5.55004">
        <ele>464.12</ele>
        <time>2022-03-31T09:16:20Z</time>
      </trkpt>
      <trkpt lat="43.53878" lon="5.54988">
        <ele>461.02</ele>
        <time>2022-03-31T09:16:35Z</time>
      </trkpt>
      <trkpt lat="43.53875" lon="5.54975">
        <ele>457.9</ele>
        <time>2022-03-31T09:16:47Z</time>
      </trkpt>
      <trkpt lat="43.53872" lon="5.54959">
        <ele>455.11</ele>
        <time>2022-03-31T09:17:03Z</time>
      </trkpt>
      <trkpt lat="43.53866" lon="5.54939">
        <ele>453.08</ele>
        <time>2022-03-31T09:17:17Z</time>
      </trkpt>
      <trkpt lat="43.53863" lon="5.54925">
        <ele>450.36</ele>
        <time>2022-03-31T09:17:33Z</time>
      </trkpt>
      <trkpt lat="43.53849" lon="5.54905">
        <ele>447.78</ele>
        <time>2022-03-31T09:17:51Z</time>
      </trkpt>
      <trkpt lat="43.53833" lon="5.54884">
        <ele>445.41</ele>
        <time>2022-03-31T09:18:09Z</time>
      </trkpt>
      <trkpt lat="43.53817" lon="5.54867">
        <ele>442.88</ele>
        <time>2022-03-31T09:18:25Z</time>
      </trkpt>
      <trkpt lat="43.53812" lon="5.5486">
        <ele>442.52</ele>
        <time>2022-03-31T09:18:28Z</time>
      </trkpt>
      <trkpt lat="43.538" lon="5.54841">
        <ele>441.1</ele>
        <time>2022-03-31T09:18:41Z</time>
      </trkpt>
      <trkpt lat="43.53796" lon="5.54828">
        <ele>439.51</ele>
        <time>2022-03-31T09:18:51Z</time>
      </trkpt>
      <trkpt lat="43.53788" lon="5.54819">
        <ele>438.39</ele>
        <time>2022-03-31T09:19:03Z</time>
      </trkpt>
      <trkpt lat="43.53791" lon="5.54814">
        <ele>437.08</ele>
        <time>2022-03-31T09:19:17Z</time>
      </trkpt>
      <trkpt lat="43.53793" lon="5.54813">
        <ele>437.04</ele>
        <time>2022-03-31T09:19:19Z</time>
      </trkpt>
      <trkpt lat="43.53796" lon="5.54799">
        <ele>436.52</ele>
        <time>2022-03-31T09:19:33Z</time>
      </trkpt>
      <trkpt lat="43.53797" lon="5.54789">
        <ele>433.4</ele>
        <time>2022-03-31T09:19:48Z</time>
      </trkpt>
      <trkpt lat="43.53797" lon="5.54779">
        <ele>430.37</ele>
        <time>2022-03-31T09:19:59Z</time>
      </trkpt>
      <trkpt lat="43.538" lon="5.54763">
        <ele>427.46</ele>
        <time>2022-03-31T09:20:15Z</time>
      </trkpt>
      <trkpt lat="43.53799" lon="5.54755">
        <ele>424.45</ele>
        <time>2022-03-31T09:20:26Z</time>
      </trkpt>
      <trkpt lat="43.53794" lon="5.54747">
        <ele>421.32</ele>
        <time>2022-03-31T09:20:40Z</time>
      </trkpt>
      <trkpt lat="43.5379" lon="5.54739">
        <ele>418.26</ele>
        <time>2022-03-31T09:20:54Z</time>
      </trkpt>
      <trkpt lat="43.53789" lon="5.54729">
        <ele>415.16</ele>
        <time>2022-03-31T09:21:10Z</time>
      </trkpt>
      <trkpt lat="43.53786" lon="5.54702">
        <ele>412.27</ele>
        <time>2022-03-31T09:21:23Z</time>
      </trkpt>
      <trkpt lat="43.53784" lon="5.54697">
        <ele>411.72</ele>
        <time>2022-03-31T09:21:26Z</time>
      </trkpt>
      <trkpt lat="43.53783" lon="5.5469">
        <ele>409.81</ele>
        <time>2022-03-31T09:21:35Z</time>
      </trkpt>
      <trkpt lat="43.5378" lon="5.54677">
        <ele>407.71</ele>
        <time>2022-03-31T09:21:48Z</time>
      </trkpt>
      <trkpt lat="43.53781" lon="5.54663">
        <ele>405.48</ele>
        <time>2022-03-31T09:22:02Z</time>
      </trkpt>
      <trkpt lat="43.53779" lon="5.54639">
        <ele>403.78</ele>
        <time>2022-03-31T09:22:16Z</time>
      </trkpt>
      <trkpt lat="43.53773" lon="5.54633">
        <ele>402.25</ele>
        <time>2022-03-31T09:22:30Z</time>
      </trkpt>
      <trkpt lat="43.53765" lon="5.54619">
        <ele>399.8</ele>
        <time>2022-03-31T09:22:47Z</time>
      </trkpt>
      <trkpt lat="43.53757" lon="5.54604">
        <ele>397.14</ele>
        <time>2022-03-31T09:23:02Z</time>
      </trkpt>
      <trkpt lat="43.5375" lon="5.54592">
        <ele>394.44</ele>
        <time>2022-03-31T09:23:21Z</time>
      </trkpt>
      <trkpt lat="43.53737" lon="5.54571">
        <ele>392.51</ele>
        <time>2022-03-31T09:23:38Z</time>
      </trkpt>
      <trkpt lat="43.53734" lon="5.54549">
        <ele>390.15</ele>
        <time>2022-03-31T09:23:59Z</time>
      </trkpt>
      <trkpt lat="43.53735" lon="5.54531">
        <ele>387.63</ele>
        <time>2022-03-31T09:24:15Z</time>
      </trkpt>
      <trkpt lat="43.53731" lon="5.54515">
        <ele>384.85</ele>
        <time>2022-03-31T09:24:32Z</time>
      </trkpt>
      <trkpt lat="43.53723" lon="5.54492">
        <ele>382.65</ele>
        <time>2022-03-31T09:24:52Z</time>
      </trkpt>
      <trkpt lat="43.53719" lon="5.54478">
        <ele>379.6</ele>
        <time>2022-03-31T09:25:10Z</time>
      </trkpt>
      <trkpt lat="43.53715" lon="5.54459">
        <ele>377.65</ele>
        <time>2022-03-31T09:25:30Z</time>
      </trkpt>
      <trkpt lat="43.53706" lon="5.54434">
        <ele>375.29</ele>
        <time>2022-03-31T09:25:46Z</time>
      </trkpt>
      <trkpt lat="43.53702" lon="5.54417">
        <ele>373.86</ele>
        <time>2022-03-31T09:26:01Z</time>
      </trkpt>
      <trkpt lat="43.53697" lon="5.54406">
        <ele>371.95</ele>
        <time>2022-03-31T09:26:13Z</time>
      </trkpt>
      <trkpt lat="43.53688" lon="5.54392">
        <ele>370.29</ele>
        <time>2022-03-31T09:26:27Z</time>
      </trkpt>
      <trkpt lat="43.53682" lon="5.54381">
        <ele>368.47</ele>
        <time>2022-03-31T09:26:38Z</time>
      </trkpt>
      <trkpt lat="43.53677" lon="5.54376">
        <ele>366.7</ele>
        <time>2022-03-31T09:26:53Z</time>
      </trkpt>
      <trkpt lat="43.53672" lon="5.54351">
        <ele>365.13</ele>
        <time>2022-03-31T09:27:06Z</time>
      </trkpt>
      <trkpt lat="43.53675" lon="5.54336">
        <ele>364.47</ele>
        <time>2022-03-31T09:27:15Z</time>
      </trkpt>
      <trkpt lat="43.5368" lon="5.54306">
        <ele>362.62</ele>
        <time>2022-03-31T09:27:31Z</time>
      </trkpt>
      <trkpt lat="43.53677" lon="5.54274">
        <ele>361.8</ele>
        <time>2022-03-31T09:27:48Z</time>
      </trkpt>
      <trkpt lat="43.53679" lon="5.54261">
        <ele>361.55</ele>
        <time>2022-03-31T09:27:57Z</time>
      </trkpt>
      <trkpt lat="43.5368" lon="5.54259">
        <ele>361.54</ele>
        <time>2022-03-31T09:27:58Z</time>
      </trkpt>
      <trkpt lat="43.53681" lon="5.54257">
        <ele>361.54</ele>
        <time>2022-03-31T09:27:59Z</time>
      </trkpt>
      <trkpt lat="43.53681" lon="5.54256">
        <ele>361.47</ele>
        <time>2022-03-31T09:28:00Z</time>
      </trkpt>
      <trkpt lat="43.53679" lon="5.54243">
        <ele>362.85</ele>
        <time>2022-03-31T09:28:15Z</time>
      </trkpt>
      <trkpt lat="43.53673" lon="5.54227">
        <ele>364.04</ele>
        <time>2022-03-31T09:28:30Z</time>
      </trkpt>
      <trkpt lat="43.53673" lon="5.54225">
        <ele>364.05</ele>
        <time>2022-03-31T09:28:31Z</time>
      </trkpt>
      <trkpt lat="43.53673" lon="5.54223">
        <ele>364.03</ele>
        <time>2022-03-31T09:28:32Z</time>
      </trkpt>
      <trkpt lat="43.53669" lon="5.54207">
        <ele>364.42</ele>
        <time>2022-03-31T09:28:43Z</time>
      </trkpt>
      <trkpt lat="43.53667" lon="5.54202">
        <ele>364.74</ele>
        <time>2022-03-31T09:29:53Z</time>
      </trkpt>
      <trkpt lat="43.53666" lon="5.54187">
        <ele>366.13</ele>
        <time>2022-03-31T09:30:07Z</time>
      </trkpt>
      <trkpt lat="43.53668" lon="5.54177">
        <ele>367.38</ele>
        <time>2022-03-31T09:30:13Z</time>
      </trkpt>
      <trkpt lat="43.53672" lon="5.5417">
        <ele>368.34</ele>
        <time>2022-03-31T09:30:18Z</time>
      </trkpt>
      <trkpt lat="43.53673" lon="5.54169">
        <ele>368.6</ele>
        <time>2022-03-31T09:30:19Z</time>
      </trkpt>
      <trkpt lat="43.53678" lon="5.54158">
        <ele>369.56</ele>
        <time>2022-03-31T09:30:31Z</time>
      </trkpt>
      <trkpt lat="43.53681" lon="5.54146">
        <ele>371.64</ele>
        <time>2022-03-31T09:30:46Z</time>
      </trkpt>
      <trkpt lat="43.53683" lon="5.54137">
        <ele>372.81</ele>
        <time>2022-03-31T09:30:56Z</time>
      </trkpt>
      <trkpt lat="43.53689" lon="5.54133">
        <ele>373.14</ele>
        <time>2022-03-31T09:31:04Z</time>
      </trkpt>
      <trkpt lat="43.53691" lon="5.54133">
        <ele>373.2</ele>
        <time>2022-03-31T09:31:05Z</time>
      </trkpt>
      <trkpt lat="43.53692" lon="5.54134">
        <ele>373.28</ele>
        <time>2022-03-31T09:31:06Z</time>
      </trkpt>
      <trkpt lat="43.53693" lon="5.54133">
        <ele>373.33</ele>
        <time>2022-03-31T09:31:07Z</time>
      </trkpt>
      <trkpt lat="43.53694" lon="5.54133">
        <ele>373.34</ele>
        <time>2022-03-31T09:31:08Z</time>
      </trkpt>
      <trkpt lat="43.53697" lon="5.5412">
        <ele>373.86</ele>
        <time>2022-03-31T09:31:21Z</time>
      </trkpt>
      <trkpt lat="43.53704" lon="5.54109">
        <ele>376.3</ele>
        <time>2022-03-31T09:31:35Z</time>
      </trkpt>
      <trkpt lat="43.53708" lon="5.541">
        <ele>378.67</ele>
        <time>2022-03-31T09:31:51Z</time>
      </trkpt>
      <trkpt lat="43.53711" lon="5.54088">
        <ele>380.28</ele>
        <time>2022-03-31T09:32:08Z</time>
      </trkpt>
      <trkpt lat="43.53715" lon="5.54073">
        <ele>382.67</ele>
        <time>2022-03-31T09:32:26Z</time>
      </trkpt>
      <trkpt lat="43.53715" lon="5.54062">
        <ele>385.38</ele>
        <time>2022-03-31T09:32:41Z</time>
      </trkpt>
      <trkpt lat="43.53716" lon="5.54044">
        <ele>385.76</ele>
        <time>2022-03-31T09:32:57Z</time>
      </trkpt>
      <trkpt lat="43.53714" lon="5.54026">
        <ele>385.93</ele>
        <time>2022-03-31T09:33:10Z</time>
      </trkpt>
      <trkpt lat="43.53723" lon="5.54008">
        <ele>385.7</ele>
        <time>2022-03-31T09:33:27Z</time>
      </trkpt>
      <trkpt lat="43.53736" lon="5.53994">
        <ele>385.32</ele>
        <time>2022-03-31T09:33:45Z</time>
      </trkpt>
      <trkpt lat="43.53753" lon="5.5398">
        <ele>386.32</ele>
        <time>2022-03-31T09:33:59Z</time>
      </trkpt>
      <trkpt lat="43.53764" lon="5.53967">
        <ele>386.61</ele>
        <time>2022-03-31T09:34:13Z</time>
      </trkpt>
      <trkpt lat="43.53772" lon="5.53954">
        <ele>385.29</ele>
        <time>2022-03-31T09:34:29Z</time>
      </trkpt>
      <trkpt lat="43.53782" lon="5.53938">
        <ele>384.37</ele>
        <time>2022-03-31T09:34:45Z</time>
      </trkpt>
      <trkpt lat="43.5379" lon="5.53926">
        <ele>383.42</ele>
        <time>2022-03-31T09:35:01Z</time>
      </trkpt>
      <trkpt lat="43.53797" lon="5.5391">
        <ele>381.87</ele>
        <time>2022-03-31T09:35:17Z</time>
      </trkpt>
      <trkpt lat="43.53802" lon="5.53882">
        <ele>380.63</ele>
        <time>2022-03-31T09:35:36Z</time>
      </trkpt>
      <trkpt lat="43.53804" lon="5.53877">
        <ele>380.6</ele>
        <time>2022-03-31T09:35:40Z</time>
      </trkpt>
      <trkpt lat="43.53805" lon="5.53874">
        <ele>380.58</ele>
        <time>2022-03-31T09:35:42Z</time>
      </trkpt>
      <trkpt lat="43.5381" lon="5.5386">
        <ele>380.38</ele>
        <time>2022-03-31T09:35:55Z</time>
      </trkpt>
      <trkpt lat="43.53812" lon="5.53857">
        <ele>380.38</ele>
        <time>2022-03-31T09:36:13Z</time>
      </trkpt>
      <trkpt lat="43.53816" lon="5.53853">
        <ele>380.38</ele>
        <time>2022-03-31T09:36:31Z</time>
      </trkpt>
      <trkpt lat="43.53816" lon="5.53852">
        <ele>380.38</ele>
        <time>2022-03-31T09:36:32Z</time>
      </trkpt>
      <trkpt lat="43.53817" lon="5.53851">
        <ele>380.38</ele>
        <time>2022-03-31T09:36:33Z</time>
      </trkpt>
      <trkpt lat="43.53818" lon="5.5385">
        <ele>380.38</ele>
        <time>2022-03-31T09:36:34Z</time>
      </trkpt>
      <trkpt lat="43.53831" lon="5.53835">
        <ele>380.53</ele>
        <time>2022-03-31T09:36:48Z</time>
      </trkpt>
      <trkpt lat="43.53844" lon="5.53814">
        <ele>380.1</ele>
        <time>2022-03-31T09:37:04Z</time>
      </trkpt>
      <trkpt lat="43.53845" lon="5.53813">
        <ele>380.22</ele>
        <time>2022-03-31T09:37:05Z</time>
      </trkpt>
      <trkpt lat="43.53857" lon="5.53796">
        <ele>379.88</ele>
        <time>2022-03-31T09:37:20Z</time>
      </trkpt>
      <trkpt lat="43.53869" lon="5.53776">
        <ele>378.96</ele>
        <time>2022-03-31T09:37:34Z</time>
      </trkpt>
      <trkpt lat="43.53882" lon="5.53763">
        <ele>378.66</ele>
        <time>2022-03-31T09:37:46Z</time>
      </trkpt>
      <trkpt lat="43.53886" lon="5.53762">
        <ele>378.32</ele>
        <time>2022-03-31T09:37:50Z</time>
      </trkpt>
      <trkpt lat="43.53887" lon="5.53761">
        <ele>378.29</ele>
        <time>2022-03-31T09:37:51Z</time>
      </trkpt>
      <trkpt lat="43.53892" lon="5.53756">
        <ele>377.92</ele>
        <time>2022-03-31T09:37:58Z</time>
      </trkpt>
      <trkpt lat="43.53897" lon="5.53747">
        <ele>376.51</ele>
        <time>2022-03-31T09:38:08Z</time>
      </trkpt>
      <trkpt lat="43.53906" lon="5.53733">
        <ele>375.62</ele>
        <time>2022-03-31T09:38:21Z</time>
      </trkpt>
      <trkpt lat="43.53906" lon="5.53731">
        <ele>375.55</ele>
        <time>2022-03-31T09:38:22Z</time>
      </trkpt>
      <trkpt lat="43.53907" lon="5.5373">
        <ele>375.47</ele>
        <time>2022-03-31T09:38:23Z</time>
      </trkpt>
      <trkpt lat="43.53912" lon="5.53718">
        <ele>374.45</ele>
        <time>2022-03-31T09:38:35Z</time>
      </trkpt>
      <trkpt lat="43.53919" lon="5.53705">
        <ele>372.95</ele>
        <time>2022-03-31T09:38:49Z</time>
      </trkpt>
      <trkpt lat="43.53928" lon="5.53695">
        <ele>371.91</ele>
        <time>2022-03-31T09:39:01Z</time>
      </trkpt>
      <trkpt lat="43.5393" lon="5.53683">
        <ele>371.19</ele>
        <time>2022-03-31T09:39:11Z</time>
      </trkpt>
      <trkpt lat="43.53935" lon="5.53675">
        <ele>368.85</ele>
        <time>2022-03-31T09:39:25Z</time>
      </trkpt>
      <trkpt lat="43.53936" lon="5.53672">
        <ele>368.7</ele>
        <time>2022-03-31T09:39:27Z</time>
      </trkpt>
      <trkpt lat="43.5394" lon="5.53661">
        <ele>368.51</ele>
        <time>2022-03-31T09:39:40Z</time>
      </trkpt>
      <trkpt lat="43.5394" lon="5.53649">
        <ele>367.48</ele>
        <time>2022-03-31T09:39:54Z</time>
      </trkpt>
      <trkpt lat="43.53947" lon="5.5364">
        <ele>364.66</ele>
        <time>2022-03-31T09:40:12Z</time>
      </trkpt>
      <trkpt lat="43.53954" lon="5.53631">
        <ele>361.83</ele>
        <time>2022-03-31T09:40:28Z</time>
      </trkpt>
      <trkpt lat="43.53951" lon="5.53619">
        <ele>361.31</ele>
        <time>2022-03-31T09:42:40Z</time>
      </trkpt>
      <trkpt lat="43.53947" lon="5.53617">
        <ele>361.35</ele>
        <time>2022-03-31T09:42:54Z</time>
      </trkpt>
      <trkpt lat="43.53949" lon="5.53603">
        <ele>362.32</ele>
        <time>2022-03-31T09:43:12Z</time>
      </trkpt>
      <trkpt lat="43.5395" lon="5.53604">
        <ele>362.17</ele>
        <time>2022-03-31T09:43:30Z</time>
      </trkpt>
      <trkpt lat="43.53952" lon="5.53605">
        <ele>361.67</ele>
        <time>2022-03-31T09:43:54Z</time>
      </trkpt>
      <trkpt lat="43.53951" lon="5.53605">
        <ele>361.67</ele>
        <time>2022-03-31T09:44:20Z</time>
      </trkpt>
      <trkpt lat="43.53951" lon="5.53605">
        <ele>361.67</ele>
        <time>2022-03-31T09:44:45Z</time>
      </trkpt>
      <trkpt lat="43.53954" lon="5.53609">
        <ele>361.67</ele>
        <time>2022-03-31T09:44:49Z</time>
      </trkpt>
      <trkpt lat="43.53956" lon="5.5361">
        <ele>361.67</ele>
        <time>2022-03-31T09:44:50Z</time>
      </trkpt>
      <trkpt lat="43.53957" lon="5.5361">
        <ele>361.67</ele>
        <time>2022-03-31T09:44:51Z</time>
      </trkpt>
      <trkpt lat="43.53966" lon="5.5362">
        <ele>362.2</ele>
        <time>2022-03-31T09:45:03Z</time>
      </trkpt>
      <trkpt lat="43.53968" lon="5.53623">
        <ele>362.96</ele>
        <time>2022-03-31T09:46:00Z</time>
      </trkpt>
      <trkpt lat="43.53969" lon="5.53623">
        <ele>362.92</ele>
        <time>2022-03-31T09:46:01Z</time>
      </trkpt>
      <trkpt lat="43.53971" lon="5.53623">
        <ele>362.88</ele>
        <time>2022-03-31T09:46:02Z</time>
      </trkpt>
      <trkpt lat="43.53975" lon="5.53629">
        <ele>362.75</ele>
        <time>2022-03-31T09:46:27Z</time>
      </trkpt>
      <trkpt lat="43.53976" lon="5.5363">
        <ele>362.78</ele>
        <time>2022-03-31T09:46:28Z</time>
      </trkpt>
      <trkpt lat="43.53978" lon="5.5363">
        <ele>362.81</ele>
        <time>2022-03-31T09:46:29Z</time>
      </trkpt>
      <trkpt lat="43.53979" lon="5.53631">
        <ele>362.84</ele>
        <time>2022-03-31T09:46:30Z</time>
      </trkpt>
      <trkpt lat="43.5398" lon="5.53632">
        <ele>362.87</ele>
        <time>2022-03-31T09:46:31Z</time>
      </trkpt>
      <trkpt lat="43.53994" lon="5.53645">
        <ele>363.01</ele>
        <time>2022-03-31T09:46:45Z</time>
      </trkpt>
      <trkpt lat="43.53996" lon="5.53648">
        <ele>363.57</ele>
        <time>2022-03-31T09:46:57Z</time>
      </trkpt>
      <trkpt lat="43.54" lon="5.53649">
        <ele>363.42</ele>
        <time>2022-03-31T09:47:12Z</time>
      </trkpt>
      <trkpt lat="43.54003" lon="5.53649">
        <ele>363.62</ele>
        <time>2022-03-31T09:47:14Z</time>
      </trkpt>
      <trkpt lat="43.54022" lon="5.53654">
        <ele>362.87</ele>
        <time>2022-03-31T09:47:29Z</time>
      </trkpt>
      <trkpt lat="43.54043" lon="5.53653">
        <ele>362.47</ele>
        <time>2022-03-31T09:47:46Z</time>
      </trkpt>
      <trkpt lat="43.5406" lon="5.5365">
        <ele>362.26</ele>
        <time>2022-03-31T09:47:59Z</time>
      </trkpt>
      <trkpt lat="43.54082" lon="5.53643">
        <ele>363.57</ele>
        <time>2022-03-31T09:48:16Z</time>
      </trkpt>
      <trkpt lat="43.54097" lon="5.53633">
        <ele>362.34</ele>
        <time>2022-03-31T09:48:30Z</time>
      </trkpt>
      <trkpt lat="43.54115" lon="5.53617">
        <ele>362.97</ele>
        <time>2022-03-31T09:48:46Z</time>
      </trkpt>
      <trkpt lat="43.54129" lon="5.53601">
        <ele>362.48</ele>
        <time>2022-03-31T09:49:00Z</time>
      </trkpt>
      <trkpt lat="43.54141" lon="5.53585">
        <ele>362.86</ele>
        <time>2022-03-31T09:49:13Z</time>
      </trkpt>
      <trkpt lat="43.5415" lon="5.53569">
        <ele>362.41</ele>
        <time>2022-03-31T09:49:26Z</time>
      </trkpt>
      <trkpt lat="43.54155" lon="5.53544">
        <ele>363.94</ele>
        <time>2022-03-31T09:49:40Z</time>
      </trkpt>
      <trkpt lat="43.54154" lon="5.53527">
        <ele>364.89</ele>
        <time>2022-03-31T09:49:50Z</time>
      </trkpt>
      <trkpt lat="43.54148" lon="5.53507">
        <ele>365.89</ele>
        <time>2022-03-31T09:50:04Z</time>
      </trkpt>
      <trkpt lat="43.54142" lon="5.53481">
        <ele>366.78</ele>
        <time>2022-03-31T09:50:20Z</time>
      </trkpt>
      <trkpt lat="43.54143" lon="5.53467">
        <ele>368.18</ele>
        <time>2022-03-31T09:50:31Z</time>
      </trkpt>
      <trkpt lat="43.54144" lon="5.53454">
        <ele>368.92</ele>
        <time>2022-03-31T09:50:43Z</time>
      </trkpt>
      <trkpt lat="43.54145" lon="5.53448">
        <ele>369.3</ele>
        <time>2022-03-31T09:50:52Z</time>
      </trkpt>
      <trkpt lat="43.54146" lon="5.53446">
        <ele>369.36</ele>
        <time>2022-03-31T09:50:53Z</time>
      </trkpt>
      <trkpt lat="43.54153" lon="5.53423">
        <ele>368.83</ele>
        <time>2022-03-31T09:51:07Z</time>
      </trkpt>
      <trkpt lat="43.5416" lon="5.53402">
        <ele>368.28</ele>
        <time>2022-03-31T09:51:19Z</time>
      </trkpt>
      <trkpt lat="43.54163" lon="5.53396">
        <ele>368.4</ele>
        <time>2022-03-31T09:51:23Z</time>
      </trkpt>
      <trkpt lat="43.54163" lon="5.53394">
        <ele>368.5</ele>
        <time>2022-03-31T09:51:24Z</time>
      </trkpt>
      <trkpt lat="43.54168" lon="5.53377">
        <ele>368.33</ele>
        <time>2022-03-31T09:51:37Z</time>
      </trkpt>
      <trkpt lat="43.5417" lon="5.53363">
        <ele>368.36</ele>
        <time>2022-03-31T09:51:48Z</time>
      </trkpt>
      <trkpt lat="43.5417" lon="5.5336">
        <ele>368.3</ele>
        <time>2022-03-31T09:51:49Z</time>
      </trkpt>
      <trkpt lat="43.5417" lon="5.53357">
        <ele>368.25</ele>
        <time>2022-03-31T09:51:50Z</time>
      </trkpt>
      <trkpt lat="43.54168" lon="5.53327">
        <ele>368.09</ele>
        <time>2022-03-31T09:52:02Z</time>
      </trkpt>
      <trkpt lat="43.54168" lon="5.53305">
        <ele>367.87</ele>
        <time>2022-03-31T09:52:13Z</time>
      </trkpt>
      <trkpt lat="43.54161" lon="5.53284">
        <ele>367.28</ele>
        <time>2022-03-31T09:52:25Z</time>
      </trkpt>
      <trkpt lat="43.54159" lon="5.53277">
        <ele>367.18</ele>
        <time>2022-03-31T09:52:29Z</time>
      </trkpt>
      <trkpt lat="43.54159" lon="5.53275">
        <ele>367.15</ele>
        <time>2022-03-31T09:52:30Z</time>
      </trkpt>
      <trkpt lat="43.54159" lon="5.53274">
        <ele>367.12</ele>
        <time>2022-03-31T09:52:31Z</time>
      </trkpt>
      <trkpt lat="43.54158" lon="5.53272">
        <ele>367.09</ele>
        <time>2022-03-31T09:52:32Z</time>
      </trkpt>
      <trkpt lat="43.54158" lon="5.53271">
        <ele>367.06</ele>
        <time>2022-03-31T09:52:33Z</time>
      </trkpt>
      <trkpt lat="43.54158" lon="5.53269">
        <ele>367.05</ele>
        <time>2022-03-31T09:52:34Z</time>
      </trkpt>
      <trkpt lat="43.54157" lon="5.53268">
        <ele>367.04</ele>
        <time>2022-03-31T09:52:35Z</time>
      </trkpt>
      <trkpt lat="43.54157" lon="5.53266">
        <ele>367.04</ele>
        <time>2022-03-31T09:52:36Z</time>
      </trkpt>
      <trkpt lat="43.54156" lon="5.53262">
        <ele>367.09</ele>
        <time>2022-03-31T09:52:39Z</time>
      </trkpt>
      <trkpt lat="43.54154" lon="5.53259">
        <ele>367.19</ele>
        <time>2022-03-31T09:52:41Z</time>
      </trkpt>
      <trkpt lat="43.54153" lon="5.53258">
        <ele>367.3</ele>
        <time>2022-03-31T09:52:42Z</time>
      </trkpt>
      <trkpt lat="43.54152" lon="5.53256">
        <ele>367.33</ele>
        <time>2022-03-31T09:52:43Z</time>
      </trkpt>
      <trkpt lat="43.5415" lon="5.53255">
        <ele>367.34</ele>
        <time>2022-03-31T09:52:44Z</time>
      </trkpt>
      <trkpt lat="43.54149" lon="5.53254">
        <ele>367.34</ele>
        <time>2022-03-31T09:52:45Z</time>
      </trkpt>
      <trkpt lat="43.54148" lon="5.53252">
        <ele>367.29</ele>
        <time>2022-03-31T09:52:46Z</time>
      </trkpt>
      <trkpt lat="43.54147" lon="5.53251">
        <ele>367.19</ele>
        <time>2022-03-31T09:52:47Z</time>
      </trkpt>
      <trkpt lat="43.54135" lon="5.53233">
        <ele>366.42</ele>
        <time>2022-03-31T09:53:00Z</time>
      </trkpt>
      <trkpt lat="43.5413" lon="5.53225">
        <ele>366.86</ele>
        <time>2022-03-31T09:53:07Z</time>
      </trkpt>
      <trkpt lat="43.54129" lon="5.53223">
        <ele>366.86</ele>
        <time>2022-03-31T09:53:08Z</time>
      </trkpt>
      <trkpt lat="43.54118" lon="5.532">
        <ele>366.52</ele>
        <time>2022-03-31T09:53:23Z</time>
      </trkpt>
      <trkpt lat="43.54104" lon="5.5318">
        <ele>367.1</ele>
        <time>2022-03-31T09:53:38Z</time>
      </trkpt>
      <trkpt lat="43.54093" lon="5.53158">
        <ele>366.31</ele>
        <time>2022-03-31T09:53:52Z</time>
      </trkpt>
      <trkpt lat="43.54087" lon="5.53137">
        <ele>366.78</ele>
        <time>2022-03-31T09:54:04Z</time>
      </trkpt>
      <trkpt lat="43.54083" lon="5.53116">
        <ele>366.85</ele>
        <time>2022-03-31T09:54:15Z</time>
      </trkpt>
      <trkpt lat="43.54085" lon="5.53094">
        <ele>366.69</ele>
        <time>2022-03-31T09:54:28Z</time>
      </trkpt>
      <trkpt lat="43.5409" lon="5.53076">
        <ele>367.21</ele>
        <time>2022-03-31T09:54:38Z</time>
      </trkpt>
      <trkpt lat="43.54095" lon="5.53057">
        <ele>366.92</ele>
        <time>2022-03-31T09:54:49Z</time>
      </trkpt>
      <trkpt lat="43.5411" lon="5.53044">
        <ele>366.78</ele>
        <time>2022-03-31T09:55:03Z</time>
      </trkpt>
      <trkpt lat="43.54124" lon="5.53032">
        <ele>366.22</ele>
        <time>2022-03-31T09:55:15Z</time>
      </trkpt>
      <trkpt lat="43.54125" lon="5.53032">
        <ele>366.16</ele>
        <time>2022-03-31T09:55:27Z</time>
      </trkpt>
      <trkpt lat="43.54127" lon="5.53031">
        <ele>365.78</ele>
        <time>2022-03-31T09:55:46Z</time>
      </trkpt>
      <trkpt lat="43.54128" lon="5.53028">
        <ele>365.94</ele>
        <time>2022-03-31T09:56:08Z</time>
      </trkpt>
      <trkpt lat="43.54128" lon="5.53026">
        <ele>365.79</ele>
        <time>2022-03-31T09:56:10Z</time>
      </trkpt>
      <trkpt lat="43.54128" lon="5.53025">
        <ele>365.75</ele>
        <time>2022-03-31T09:56:11Z</time>
      </trkpt>
      <trkpt lat="43.54128" lon="5.53023">
        <ele>365.71</ele>
        <time>2022-03-31T09:56:12Z</time>
      </trkpt>
      <trkpt lat="43.54129" lon="5.53021">
        <ele>365.66</ele>
        <time>2022-03-31T09:56:13Z</time>
      </trkpt>
      <trkpt lat="43.5413" lon="5.5302">
        <ele>365.6</ele>
        <time>2022-03-31T09:56:14Z</time>
      </trkpt>
      <trkpt lat="43.54136" lon="5.53002">
        <ele>365.11</ele>
        <time>2022-03-31T09:56:25Z</time>
      </trkpt>
      <trkpt lat="43.54133" lon="5.52982">
        <ele>365.05</ele>
        <time>2022-03-31T09:56:39Z</time>
      </trkpt>
      <trkpt lat="43.5413" lon="5.5298">
        <ele>364.94</ele>
        <time>2022-03-31T09:56:41Z</time>
      </trkpt>
      <trkpt lat="43.54115" lon="5.52968">
        <ele>364.79</ele>
        <time>2022-03-31T09:56:51Z</time>
      </trkpt>
      <trkpt lat="43.54104" lon="5.52956">
        <ele>365.04</ele>
        <time>2022-03-31T09:57:01Z</time>
      </trkpt>
      <trkpt lat="43.54095" lon="5.52937">
        <ele>365.35</ele>
        <time>2022-03-31T09:57:12Z</time>
      </trkpt>
      <trkpt lat="43.54087" lon="5.52922">
        <ele>365.08</ele>
        <time>2022-03-31T09:57:22Z</time>
      </trkpt>
      <trkpt lat="43.54082" lon="5.52915">
        <ele>364.88</ele>
        <time>2022-03-31T09:57:26Z</time>
      </trkpt>
      <trkpt lat="43.54082" lon="5.52913">
        <ele>364.88</ele>
        <time>2022-03-31T09:57:27Z</time>
      </trkpt>
      <trkpt lat="43.54081" lon="5.52911">
        <ele>364.89</ele>
        <time>2022-03-31T09:57:28Z</time>
      </trkpt>
      <trkpt lat="43.54081" lon="5.52909">
        <ele>364.91</ele>
        <time>2022-03-31T09:57:29Z</time>
      </trkpt>
      <trkpt lat="43.5408" lon="5.52906">
        <ele>364.92</ele>
        <time>2022-03-31T09:57:30Z</time>
      </trkpt>
      <trkpt lat="43.54079" lon="5.52904">
        <ele>364.92</ele>
        <time>2022-03-31T09:57:31Z</time>
      </trkpt>
      <trkpt lat="43.5407" lon="5.52881">
        <ele>364.12</ele>
        <time>2022-03-31T09:57:45Z</time>
      </trkpt>
      <trkpt lat="43.54051" lon="5.5287">
        <ele>364.04</ele>
        <time>2022-03-31T09:57:58Z</time>
      </trkpt>
      <trkpt lat="43.54041" lon="5.52859">
        <ele>363.78</ele>
        <time>2022-03-31T09:58:07Z</time>
      </trkpt>
      <trkpt lat="43.54032" lon="5.52845">
        <ele>363.76</ele>
        <time>2022-03-31T09:58:16Z</time>
      </trkpt>
      <trkpt lat="43.54031" lon="5.52844">
        <ele>363.8</ele>
        <time>2022-03-31T09:58:17Z</time>
      </trkpt>
      <trkpt lat="43.5403" lon="5.52842">
        <ele>363.84</ele>
        <time>2022-03-31T09:58:18Z</time>
      </trkpt>
      <trkpt lat="43.54029" lon="5.52841">
        <ele>363.87</ele>
        <time>2022-03-31T09:58:19Z</time>
      </trkpt>
      <trkpt lat="43.54016" lon="5.52827">
        <ele>364.5</ele>
        <time>2022-03-31T09:58:31Z</time>
      </trkpt>
      <trkpt lat="43.54001" lon="5.5282">
        <ele>364.69</ele>
        <time>2022-03-31T09:58:41Z</time>
      </trkpt>
      <trkpt lat="43.53993" lon="5.52814">
        <ele>364.44</ele>
        <time>2022-03-31T09:58:48Z</time>
      </trkpt>
      <trkpt lat="43.53992" lon="5.52813">
        <ele>364.39</ele>
        <time>2022-03-31T09:58:49Z</time>
      </trkpt>
      <trkpt lat="43.5399" lon="5.52806">
        <ele>364.26</ele>
        <time>2022-03-31T09:58:54Z</time>
      </trkpt>
      <trkpt lat="43.53989" lon="5.52804">
        <ele>364.25</ele>
        <time>2022-03-31T09:58:55Z</time>
      </trkpt>
      <trkpt lat="43.53989" lon="5.52802">
        <ele>364.25</ele>
        <time>2022-03-31T09:58:56Z</time>
      </trkpt>
      <trkpt lat="43.5399" lon="5.52799">
        <ele>364.24</ele>
        <time>2022-03-31T09:58:58Z</time>
      </trkpt>
      <trkpt lat="43.53992" lon="5.52779">
        <ele>364.12</ele>
        <time>2022-03-31T09:59:09Z</time>
      </trkpt>
      <trkpt lat="43.53991" lon="5.52775">
        <ele>364.05</ele>
        <time>2022-03-31T09:59:11Z</time>
      </trkpt>
      <trkpt lat="43.53991" lon="5.52773">
        <ele>363.99</ele>
        <time>2022-03-31T09:59:12Z</time>
      </trkpt>
      <trkpt lat="43.53993" lon="5.52757">
        <ele>363.03</ele>
        <time>2022-03-31T09:59:22Z</time>
      </trkpt>
      <trkpt lat="43.53994" lon="5.52748">
        <ele>362.59</ele>
        <time>2022-03-31T09:59:26Z</time>
      </trkpt>
      <trkpt lat="43.53991" lon="5.52732">
        <ele>361.37</ele>
        <time>2022-03-31T09:59:36Z</time>
      </trkpt>
      <trkpt lat="43.53989" lon="5.52714">
        <ele>360.1</ele>
        <time>2022-03-31T09:59:47Z</time>
      </trkpt>
      <trkpt lat="43.53985" lon="5.52697">
        <ele>359.63</ele>
        <time>2022-03-31T09:59:57Z</time>
      </trkpt>
      <trkpt lat="43.53976" lon="5.52673">
        <ele>359.11</ele>
        <time>2022-03-31T10:00:10Z</time>
      </trkpt>
      <trkpt lat="43.5397" lon="5.52661">
        <ele>358.43</ele>
        <time>2022-03-31T10:00:18Z</time>
      </trkpt>
      <trkpt lat="43.53971" lon="5.52646">
        <ele>357.72</ele>
        <time>2022-03-31T10:00:28Z</time>
      </trkpt>
      <trkpt lat="43.53972" lon="5.52627">
        <ele>357.44</ele>
        <time>2022-03-31T10:00:39Z</time>
      </trkpt>
      <trkpt lat="43.53966" lon="5.52609">
        <ele>358.27</ele>
        <time>2022-03-31T10:00:49Z</time>
      </trkpt>
      <trkpt lat="43.53965" lon="5.52606">
        <ele>358.27</ele>
        <time>2022-03-31T10:00:50Z</time>
      </trkpt>
      <trkpt lat="43.53964" lon="5.52604">
        <ele>358.27</ele>
        <time>2022-03-31T10:00:51Z</time>
      </trkpt>
      <trkpt lat="43.53961" lon="5.52592">
        <ele>357.58</ele>
        <time>2022-03-31T10:01:01Z</time>
      </trkpt>
      <trkpt lat="43.53956" lon="5.52569">
        <ele>357.02</ele>
        <time>2022-03-31T10:01:15Z</time>
      </trkpt>
      <trkpt lat="43.53954" lon="5.52552">
        <ele>357.04</ele>
        <time>2022-03-31T10:01:26Z</time>
      </trkpt>
      <trkpt lat="43.53954" lon="5.5255">
        <ele>357.04</ele>
        <time>2022-03-31T10:01:27Z</time>
      </trkpt>
      <trkpt lat="43.53958" lon="5.52541">
        <ele>357.35</ele>
        <time>2022-03-31T10:01:32Z</time>
      </trkpt>
      <trkpt lat="43.53958" lon="5.52521">
        <ele>357.96</ele>
        <time>2022-03-31T10:01:43Z</time>
      </trkpt>
      <trkpt lat="43.53952" lon="5.52497">
        <ele>360</ele>
        <time>2022-03-31T10:01:59Z</time>
      </trkpt>
      <trkpt lat="43.53934" lon="5.52483">
        <ele>360.47</ele>
        <time>2022-03-31T10:02:14Z</time>
      </trkpt>
      <trkpt lat="43.53929" lon="5.52482">
        <ele>360.24</ele>
        <time>2022-03-31T10:02:17Z</time>
      </trkpt>
      <trkpt lat="43.53928" lon="5.52482">
        <ele>360.18</ele>
        <time>2022-03-31T10:02:18Z</time>
      </trkpt>
      <trkpt lat="43.53922" lon="5.5248">
        <ele>359.85</ele>
        <time>2022-03-31T10:02:33Z</time>
      </trkpt>
      <trkpt lat="43.53917" lon="5.52476">
        <ele>359.44</ele>
        <time>2022-03-31T10:02:46Z</time>
      </trkpt>
      <trkpt lat="43.53916" lon="5.52475">
        <ele>359.49</ele>
        <time>2022-03-31T10:02:47Z</time>
      </trkpt>
      <trkpt lat="43.53912" lon="5.52468">
        <ele>360.35</ele>
        <time>2022-03-31T10:02:52Z</time>
      </trkpt>
      <trkpt lat="43.53911" lon="5.52467">
        <ele>360.53</ele>
        <time>2022-03-31T10:02:53Z</time>
      </trkpt>
      <trkpt lat="43.5391" lon="5.52466">
        <ele>360.64</ele>
        <time>2022-03-31T10:02:54Z</time>
      </trkpt>
      <trkpt lat="43.53901" lon="5.52448">
        <ele>361.52</ele>
        <time>2022-03-31T10:03:08Z</time>
      </trkpt>
      <trkpt lat="43.53899" lon="5.52428">
        <ele>361.08</ele>
        <time>2022-03-31T10:03:19Z</time>
      </trkpt>
      <trkpt lat="43.53898" lon="5.52426">
        <ele>360.98</ele>
        <time>2022-03-31T10:03:20Z</time>
      </trkpt>
      <trkpt lat="43.53897" lon="5.5241">
        <ele>359.75</ele>
        <time>2022-03-31T10:03:30Z</time>
      </trkpt>
      <trkpt lat="43.53896" lon="5.52382">
        <ele>359.68</ele>
        <time>2022-03-31T10:03:47Z</time>
      </trkpt>
      <trkpt lat="43.53889" lon="5.5236">
        <ele>360</ele>
        <time>2022-03-31T10:04:01Z</time>
      </trkpt>
      <trkpt lat="43.53885" lon="5.52334">
        <ele>358.57</ele>
        <time>2022-03-31T10:04:16Z</time>
      </trkpt>
      <trkpt lat="43.53879" lon="5.52307">
        <ele>358.43</ele>
        <time>2022-03-31T10:04:30Z</time>
      </trkpt>
      <trkpt lat="43.53866" lon="5.52282">
        <ele>358.09</ele>
        <time>2022-03-31T10:04:44Z</time>
      </trkpt>
      <trkpt lat="43.53853" lon="5.52261">
        <ele>357.56</ele>
        <time>2022-03-31T10:04:58Z</time>
      </trkpt>
      <trkpt lat="43.53844" lon="5.5225">
        <ele>357.77</ele>
        <time>2022-03-31T10:05:06Z</time>
      </trkpt>
      <trkpt lat="43.53827" lon="5.52231">
        <ele>357.35</ele>
        <time>2022-03-31T10:05:18Z</time>
      </trkpt>
      <trkpt lat="43.53819" lon="5.52229">
        <ele>356.81</ele>
        <time>2022-03-31T10:05:23Z</time>
      </trkpt>
      <trkpt lat="43.53809" lon="5.52211">
        <ele>354.96</ele>
        <time>2022-03-31T10:05:34Z</time>
      </trkpt>
      <trkpt lat="43.53808" lon="5.52209">
        <ele>354.81</ele>
        <time>2022-03-31T10:05:35Z</time>
      </trkpt>
      <trkpt lat="43.53808" lon="5.52207">
        <ele>354.6</ele>
        <time>2022-03-31T10:05:36Z</time>
      </trkpt>
      <trkpt lat="43.53807" lon="5.52206">
        <ele>354.46</ele>
        <time>2022-03-31T10:05:37Z</time>
      </trkpt>
      <trkpt lat="43.53806" lon="5.52204">
        <ele>354.38</ele>
        <time>2022-03-31T10:05:38Z</time>
      </trkpt>
      <trkpt lat="43.53806" lon="5.52202">
        <ele>354.35</ele>
        <time>2022-03-31T10:05:39Z</time>
      </trkpt>
      <trkpt lat="43.53805" lon="5.52201">
        <ele>354.37</ele>
        <time>2022-03-31T10:05:40Z</time>
      </trkpt>
      <trkpt lat="43.53804" lon="5.52199">
        <ele>354.58</ele>
        <time>2022-03-31T10:05:41Z</time>
      </trkpt>
      <trkpt lat="43.53803" lon="5.52197">
        <ele>354.9</ele>
        <time>2022-03-31T10:05:42Z</time>
      </trkpt>
      <trkpt lat="43.53803" lon="5.52196">
        <ele>355.21</ele>
        <time>2022-03-31T10:05:43Z</time>
      </trkpt>
      <trkpt lat="43.538" lon="5.52179">
        <ele>354.57</ele>
        <time>2022-03-31T10:05:54Z</time>
      </trkpt>
      <trkpt lat="43.53801" lon="5.52176">
        <ele>354.35</ele>
        <time>2022-03-31T10:05:56Z</time>
      </trkpt>
      <trkpt lat="43.53802" lon="5.52174">
        <ele>354.19</ele>
        <time>2022-03-31T10:05:57Z</time>
      </trkpt>
      <trkpt lat="43.5381" lon="5.52163">
        <ele>353.39</ele>
        <time>2022-03-31T10:06:07Z</time>
      </trkpt>
      <trkpt lat="43.53821" lon="5.52157">
        <ele>352.32</ele>
        <time>2022-03-31T10:06:17Z</time>
      </trkpt>
      <trkpt lat="43.53827" lon="5.52152">
        <ele>352.75</ele>
        <time>2022-03-31T10:06:22Z</time>
      </trkpt>
      <trkpt lat="43.53829" lon="5.52152">
        <ele>352.86</ele>
        <time>2022-03-31T10:06:23Z</time>
      </trkpt>
      <trkpt lat="43.5383" lon="5.52152">
        <ele>352.92</ele>
        <time>2022-03-31T10:06:24Z</time>
      </trkpt>
      <trkpt lat="43.53834" lon="5.52153">
        <ele>352.84</ele>
        <time>2022-03-31T10:06:28Z</time>
      </trkpt>
      <trkpt lat="43.53854" lon="5.52164">
        <ele>353.63</ele>
        <time>2022-03-31T10:06:44Z</time>
      </trkpt>
      <trkpt lat="43.53869" lon="5.52174">
        <ele>353.26</ele>
        <time>2022-03-31T10:06:56Z</time>
      </trkpt>
      <trkpt lat="43.53889" lon="5.5218">
        <ele>352.84</ele>
        <time>2022-03-31T10:07:10Z</time>
      </trkpt>
      <trkpt lat="43.5389" lon="5.5218">
        <ele>352.81</ele>
        <time>2022-03-31T10:07:11Z</time>
      </trkpt>
      <trkpt lat="43.53892" lon="5.52179">
        <ele>352.76</ele>
        <time>2022-03-31T10:07:12Z</time>
      </trkpt>
      <trkpt lat="43.53893" lon="5.52178">
        <ele>352.66</ele>
        <time>2022-03-31T10:07:13Z</time>
      </trkpt>
      <trkpt lat="43.53911" lon="5.52171">
        <ele>352.61</ele>
        <time>2022-03-31T10:07:26Z</time>
      </trkpt>
      <trkpt lat="43.53925" lon="5.52165">
        <ele>352.37</ele>
        <time>2022-03-31T10:07:38Z</time>
      </trkpt>
      <trkpt lat="43.53936" lon="5.52156">
        <ele>351.48</ele>
        <time>2022-03-31T10:07:49Z</time>
      </trkpt>
      <trkpt lat="43.53947" lon="5.52147">
        <ele>352.34</ele>
        <time>2022-03-31T10:07:58Z</time>
      </trkpt>
      <trkpt lat="43.5396" lon="5.52141">
        <ele>352.3</ele>
        <time>2022-03-31T10:08:10Z</time>
      </trkpt>
      <trkpt lat="43.53971" lon="5.52117">
        <ele>352.83</ele>
        <time>2022-03-31T10:08:27Z</time>
      </trkpt>
      <trkpt lat="43.53972" lon="5.52098">
        <ele>354.33</ele>
        <time>2022-03-31T10:08:40Z</time>
      </trkpt>
      <trkpt lat="43.53962" lon="5.52082">
        <ele>354.95</ele>
        <time>2022-03-31T10:08:56Z</time>
      </trkpt>
      <trkpt lat="43.53949" lon="5.52057">
        <ele>357.11</ele>
        <time>2022-03-31T10:09:13Z</time>
      </trkpt>
      <trkpt lat="43.53935" lon="5.52039">
        <ele>357.23</ele>
        <time>2022-03-31T10:09:27Z</time>
      </trkpt>
      <trkpt lat="43.53933" lon="5.52022">
        <ele>357</ele>
        <time>2022-03-31T10:09:38Z</time>
      </trkpt>
      <trkpt lat="43.53938" lon="5.52004">
        <ele>356.91</ele>
        <time>2022-03-31T10:09:48Z</time>
      </trkpt>
      <trkpt lat="43.53945" lon="5.51995">
        <ele>356.94</ele>
        <time>2022-03-31T10:09:58Z</time>
      </trkpt>
      <trkpt lat="43.53951" lon="5.51983">
        <ele>356.64</ele>
        <time>2022-03-31T10:10:08Z</time>
      </trkpt>
      <trkpt lat="43.53967" lon="5.51969">
        <ele>353.65</ele>
        <time>2022-03-31T10:10:24Z</time>
      </trkpt>
      <trkpt lat="43.53977" lon="5.51966">
        <ele>354.34</ele>
        <time>2022-03-31T10:10:31Z</time>
      </trkpt>
      <trkpt lat="43.53979" lon="5.51966">
        <ele>354.47</ele>
        <time>2022-03-31T10:10:32Z</time>
      </trkpt>
      <trkpt lat="43.53997" lon="5.51962">
        <ele>353.73</ele>
        <time>2022-03-31T10:10:43Z</time>
      </trkpt>
      <trkpt lat="43.54008" lon="5.51954">
        <ele>352.81</ele>
        <time>2022-03-31T10:10:53Z</time>
      </trkpt>
      <trkpt lat="43.54022" lon="5.51941">
        <ele>350.71</ele>
        <time>2022-03-31T10:11:06Z</time>
      </trkpt>
      <trkpt lat="43.54039" lon="5.51921">
        <ele>350.16</ele>
        <time>2022-03-31T10:11:22Z</time>
      </trkpt>
      <trkpt lat="43.54052" lon="5.51901">
        <ele>348.97</ele>
        <time>2022-03-31T10:11:36Z</time>
      </trkpt>
      <trkpt lat="43.54051" lon="5.51892">
        <ele>346.84</ele>
        <time>2022-03-31T10:11:50Z</time>
      </trkpt>
      <trkpt lat="43.54041" lon="5.51864">
        <ele>346.57</ele>
        <time>2022-03-31T10:12:02Z</time>
      </trkpt>
      <trkpt lat="43.5404" lon="5.51862">
        <ele>346.45</ele>
        <time>2022-03-31T10:12:03Z</time>
      </trkpt>
      <trkpt lat="43.54038" lon="5.51861">
        <ele>346.35</ele>
        <time>2022-03-31T10:12:04Z</time>
      </trkpt>
      <trkpt lat="43.54028" lon="5.51856">
        <ele>345.97</ele>
        <time>2022-03-31T10:12:12Z</time>
      </trkpt>
      <trkpt lat="43.54011" lon="5.51851">
        <ele>347.25</ele>
        <time>2022-03-31T10:12:26Z</time>
      </trkpt>
      <trkpt lat="43.54003" lon="5.51849">
        <ele>347.95</ele>
        <time>2022-03-31T10:12:32Z</time>
      </trkpt>
      <trkpt lat="43.54002" lon="5.51849">
        <ele>348.11</ele>
        <time>2022-03-31T10:12:33Z</time>
      </trkpt>
      <trkpt lat="43.53992" lon="5.51845">
        <ele>349.24</ele>
        <time>2022-03-31T10:12:40Z</time>
      </trkpt>
      <trkpt lat="43.53983" lon="5.51839">
        <ele>349.32</ele>
        <time>2022-03-31T10:12:48Z</time>
      </trkpt>
      <trkpt lat="43.53982" lon="5.51839">
        <ele>349.32</ele>
        <time>2022-03-31T10:12:49Z</time>
      </trkpt>
      <trkpt lat="43.5398" lon="5.51839">
        <ele>349.34</ele>
        <time>2022-03-31T10:12:50Z</time>
      </trkpt>
      <trkpt lat="43.53979" lon="5.51838">
        <ele>349.36</ele>
        <time>2022-03-31T10:12:51Z</time>
      </trkpt>
      <trkpt lat="43.53977" lon="5.51837">
        <ele>349.37</ele>
        <time>2022-03-31T10:12:52Z</time>
      </trkpt>
      <trkpt lat="43.53969" lon="5.51831">
        <ele>348.21</ele>
        <time>2022-03-31T10:13:01Z</time>
      </trkpt>
      <trkpt lat="43.53968" lon="5.51829">
        <ele>347.98</ele>
        <time>2022-03-31T10:13:02Z</time>
      </trkpt>
      <trkpt lat="43.53967" lon="5.51828">
        <ele>347.84</ele>
        <time>2022-03-31T10:13:03Z</time>
      </trkpt>
      <trkpt lat="43.53964" lon="5.51819">
        <ele>347.82</ele>
        <time>2022-03-31T10:13:09Z</time>
      </trkpt>
      <trkpt lat="43.53964" lon="5.51817">
        <ele>347.87</ele>
        <time>2022-03-31T10:13:10Z</time>
      </trkpt>
      <trkpt lat="43.53963" lon="5.51815">
        <ele>347.92</ele>
        <time>2022-03-31T10:13:11Z</time>
      </trkpt>
      <trkpt lat="43.53958" lon="5.51797">
        <ele>347.48</ele>
        <time>2022-03-31T10:13:22Z</time>
      </trkpt>
      <trkpt lat="43.53957" lon="5.51796">
        <ele>347.45</ele>
        <time>2022-03-31T10:13:23Z</time>
      </trkpt>
      <trkpt lat="43.53957" lon="5.51794">
        <ele>347.42</ele>
        <time>2022-03-31T10:13:24Z</time>
      </trkpt>
      <trkpt lat="43.5395" lon="5.51773">
        <ele>347.26</ele>
        <time>2022-03-31T10:13:36Z</time>
      </trkpt>
      <trkpt lat="43.53938" lon="5.51752">
        <ele>346.34</ele>
        <time>2022-03-31T10:13:49Z</time>
      </trkpt>
      <trkpt lat="43.53938" lon="5.5175">
        <ele>346.25</ele>
        <time>2022-03-31T10:13:50Z</time>
      </trkpt>
      <trkpt lat="43.53935" lon="5.51744">
        <ele>346.08</ele>
        <time>2022-03-31T10:13:54Z</time>
      </trkpt>
      <trkpt lat="43.53934" lon="5.51742">
        <ele>346.07</ele>
        <time>2022-03-31T10:13:55Z</time>
      </trkpt>
      <trkpt lat="43.53933" lon="5.5174">
        <ele>346.07</ele>
        <time>2022-03-31T10:13:56Z</time>
      </trkpt>
      <trkpt lat="43.53932" lon="5.51738">
        <ele>346.07</ele>
        <time>2022-03-31T10:13:57Z</time>
      </trkpt>
      <trkpt lat="43.53931" lon="5.51736">
        <ele>346.07</ele>
        <time>2022-03-31T10:13:58Z</time>
      </trkpt>
      <trkpt lat="43.53921" lon="5.51724">
        <ele>346.32</ele>
        <time>2022-03-31T10:14:07Z</time>
      </trkpt>
      <trkpt lat="43.5391" lon="5.51717">
        <ele>346.06</ele>
        <time>2022-03-31T10:14:17Z</time>
      </trkpt>
      <trkpt lat="43.53894" lon="5.51709">
        <ele>346.88</ele>
        <time>2022-03-31T10:14:30Z</time>
      </trkpt>
      <trkpt lat="43.5388" lon="5.51702">
        <ele>346.63</ele>
        <time>2022-03-31T10:14:40Z</time>
      </trkpt>
      <trkpt lat="43.53866" lon="5.51694">
        <ele>346.34</ele>
        <time>2022-03-31T10:14:52Z</time>
      </trkpt>
      <trkpt lat="43.53852" lon="5.51683">
        <ele>346.37</ele>
        <time>2022-03-31T10:15:03Z</time>
      </trkpt>
      <trkpt lat="43.53845" lon="5.51681">
        <ele>346.31</ele>
        <time>2022-03-31T10:15:09Z</time>
      </trkpt>
      <trkpt lat="43.53841" lon="5.5168">
        <ele>346.13</ele>
        <time>2022-03-31T10:15:12Z</time>
      </trkpt>
      <trkpt lat="43.53839" lon="5.51679">
        <ele>346.11</ele>
        <time>2022-03-31T10:15:13Z</time>
      </trkpt>
      <trkpt lat="43.53838" lon="5.51679">
        <ele>346.1</ele>
        <time>2022-03-31T10:15:14Z</time>
      </trkpt>
      <trkpt lat="43.53836" lon="5.51678">
        <ele>346.09</ele>
        <time>2022-03-31T10:15:15Z</time>
      </trkpt>
      <trkpt lat="43.53835" lon="5.51677">
        <ele>346.09</ele>
        <time>2022-03-31T10:15:16Z</time>
      </trkpt>
      <trkpt lat="43.53834" lon="5.51677">
        <ele>346.12</ele>
        <time>2022-03-31T10:15:17Z</time>
      </trkpt>
      <trkpt lat="43.53823" lon="5.5167">
        <ele>346.77</ele>
        <time>2022-03-31T10:15:28Z</time>
      </trkpt>
      <trkpt lat="43.53807" lon="5.51664">
        <ele>346.81</ele>
        <time>2022-03-31T10:15:39Z</time>
      </trkpt>
      <trkpt lat="43.53798" lon="5.51656">
        <ele>345.95</ele>
        <time>2022-03-31T10:15:48Z</time>
      </trkpt>
      <trkpt lat="43.53798" lon="5.51655">
        <ele>345.9</ele>
        <time>2022-03-31T10:15:49Z</time>
      </trkpt>
      <trkpt lat="43.53798" lon="5.51653">
        <ele>345.89</ele>
        <time>2022-03-31T10:15:50Z</time>
      </trkpt>
      <trkpt lat="43.53798" lon="5.51652">
        <ele>345.89</ele>
        <time>2022-03-31T10:15:51Z</time>
      </trkpt>
      <trkpt lat="43.53798" lon="5.5165">
        <ele>345.89</ele>
        <time>2022-03-31T10:15:52Z</time>
      </trkpt>
      <trkpt lat="43.53798" lon="5.51649">
        <ele>345.93</ele>
        <time>2022-03-31T10:15:53Z</time>
      </trkpt>
      <trkpt lat="43.53799" lon="5.51647">
        <ele>346.01</ele>
        <time>2022-03-31T10:15:54Z</time>
      </trkpt>
      <trkpt lat="43.53799" lon="5.51645">
        <ele>346.12</ele>
        <time>2022-03-31T10:15:55Z</time>
      </trkpt>
      <trkpt lat="43.53798" lon="5.51643">
        <ele>346.26</ele>
        <time>2022-03-31T10:15:56Z</time>
      </trkpt>
      <trkpt lat="43.53798" lon="5.51642">
        <ele>346.42</ele>
        <time>2022-03-31T10:15:57Z</time>
      </trkpt>
      <trkpt lat="43.53798" lon="5.5164">
        <ele>346.61</ele>
        <time>2022-03-31T10:15:58Z</time>
      </trkpt>
      <trkpt lat="43.53797" lon="5.51627">
        <ele>346.98</ele>
        <time>2022-03-31T10:16:05Z</time>
      </trkpt>
      <trkpt lat="43.53797" lon="5.51624">
        <ele>346.87</ele>
        <time>2022-03-31T10:16:06Z</time>
      </trkpt>
      <trkpt lat="43.53789" lon="5.51605">
        <ele>346.26</ele>
        <time>2022-03-31T10:16:18Z</time>
      </trkpt>
      <trkpt lat="43.53786" lon="5.51588">
        <ele>345.84</ele>
        <time>2022-03-31T10:16:28Z</time>
      </trkpt>
      <trkpt lat="43.53785" lon="5.51587">
        <ele>345.81</ele>
        <time>2022-03-31T10:16:29Z</time>
      </trkpt>
      <trkpt lat="43.53771" lon="5.51573">
        <ele>345.71</ele>
        <time>2022-03-31T10:16:42Z</time>
      </trkpt>
      <trkpt lat="43.53759" lon="5.51559">
        <ele>345.6</ele>
        <time>2022-03-31T10:16:53Z</time>
      </trkpt>
      <trkpt lat="43.5375" lon="5.51543">
        <ele>345.32</ele>
        <time>2022-03-31T10:17:04Z</time>
      </trkpt>
      <trkpt lat="43.53745" lon="5.51535">
        <ele>345.1</ele>
        <time>2022-03-31T10:17:11Z</time>
      </trkpt>
      <trkpt lat="43.53744" lon="5.51529">
        <ele>345.1</ele>
        <time>2022-03-31T10:17:15Z</time>
      </trkpt>
      <trkpt lat="43.53743" lon="5.51528">
        <ele>345.06</ele>
        <time>2022-03-31T10:17:16Z</time>
      </trkpt>
      <trkpt lat="43.53742" lon="5.51526">
        <ele>344.99</ele>
        <time>2022-03-31T10:17:17Z</time>
      </trkpt>
      <trkpt lat="43.53728" lon="5.51505">
        <ele>344.25</ele>
        <time>2022-03-31T10:17:31Z</time>
      </trkpt>
      <trkpt lat="43.5372" lon="5.5149">
        <ele>344.16</ele>
        <time>2022-03-31T10:17:41Z</time>
      </trkpt>
      <trkpt lat="43.53719" lon="5.51486">
        <ele>344.16</ele>
        <time>2022-03-31T10:17:43Z</time>
      </trkpt>
      <trkpt lat="43.53718" lon="5.51484">
        <ele>344.16</ele>
        <time>2022-03-31T10:17:44Z</time>
      </trkpt>
      <trkpt lat="43.53712" lon="5.51464">
        <ele>344.37</ele>
        <time>2022-03-31T10:17:57Z</time>
      </trkpt>
      <trkpt lat="43.53712" lon="5.51461">
        <ele>344.23</ele>
        <time>2022-03-31T10:17:59Z</time>
      </trkpt>
      <trkpt lat="43.53712" lon="5.5146">
        <ele>344.15</ele>
        <time>2022-03-31T10:18:00Z</time>
      </trkpt>
      <trkpt lat="43.53712" lon="5.51458">
        <ele>344.06</ele>
        <time>2022-03-31T10:18:01Z</time>
      </trkpt>
      <trkpt lat="43.53712" lon="5.51456">
        <ele>343.99</ele>
        <time>2022-03-31T10:18:02Z</time>
      </trkpt>
      <trkpt lat="43.53713" lon="5.51454">
        <ele>343.93</ele>
        <time>2022-03-31T10:18:03Z</time>
      </trkpt>
      <trkpt lat="43.53714" lon="5.51453">
        <ele>343.9</ele>
        <time>2022-03-31T10:18:04Z</time>
      </trkpt>
      <trkpt lat="43.53714" lon="5.51452">
        <ele>343.86</ele>
        <time>2022-03-31T10:18:05Z</time>
      </trkpt>
      <trkpt lat="43.53716" lon="5.51447">
        <ele>343.79</ele>
        <time>2022-03-31T10:18:09Z</time>
      </trkpt>
      <trkpt lat="43.53717" lon="5.51445">
        <ele>343.78</ele>
        <time>2022-03-31T10:18:10Z</time>
      </trkpt>
      <trkpt lat="43.53717" lon="5.51443">
        <ele>343.78</ele>
        <time>2022-03-31T10:18:11Z</time>
      </trkpt>
      <trkpt lat="43.53718" lon="5.51442">
        <ele>343.77</ele>
        <time>2022-03-31T10:18:12Z</time>
      </trkpt>
      <trkpt lat="43.53719" lon="5.5144">
        <ele>343.75</ele>
        <time>2022-03-31T10:18:13Z</time>
      </trkpt>
      <trkpt lat="43.53719" lon="5.51438">
        <ele>343.72</ele>
        <time>2022-03-31T10:18:14Z</time>
      </trkpt>
      <trkpt lat="43.5372" lon="5.51437">
        <ele>343.67</ele>
        <time>2022-03-31T10:18:15Z</time>
      </trkpt>
      <trkpt lat="43.53721" lon="5.51436">
        <ele>343.62</ele>
        <time>2022-03-31T10:18:16Z</time>
      </trkpt>
      <trkpt lat="43.53723" lon="5.51434">
        <ele>343.56</ele>
        <time>2022-03-31T10:18:17Z</time>
      </trkpt>
      <trkpt lat="43.53723" lon="5.51433">
        <ele>343.5</ele>
        <time>2022-03-31T10:18:18Z</time>
      </trkpt>
      <trkpt lat="43.53725" lon="5.51432">
        <ele>343.39</ele>
        <time>2022-03-31T10:18:19Z</time>
      </trkpt>
      <trkpt lat="43.53726" lon="5.51431">
        <ele>343.34</ele>
        <time>2022-03-31T10:18:20Z</time>
      </trkpt>
      <trkpt lat="43.53734" lon="5.51423">
        <ele>343.2</ele>
        <time>2022-03-31T10:18:28Z</time>
      </trkpt>
      <trkpt lat="43.53735" lon="5.51422">
        <ele>343.19</ele>
        <time>2022-03-31T10:18:29Z</time>
      </trkpt>
      <trkpt lat="43.53742" lon="5.51412">
        <ele>343.1</ele>
        <time>2022-03-31T10:18:38Z</time>
      </trkpt>
      <trkpt lat="43.53742" lon="5.5141">
        <ele>343.11</ele>
        <time>2022-03-31T10:18:39Z</time>
      </trkpt>
      <trkpt lat="43.53742" lon="5.51408">
        <ele>343.11</ele>
        <time>2022-03-31T10:18:40Z</time>
      </trkpt>
      <trkpt lat="43.53742" lon="5.51406">
        <ele>343.11</ele>
        <time>2022-03-31T10:18:41Z</time>
      </trkpt>
      <trkpt lat="43.53741" lon="5.51405">
        <ele>343.11</ele>
        <time>2022-03-31T10:18:42Z</time>
      </trkpt>
      <trkpt lat="43.5374" lon="5.51402">
        <ele>343.1</ele>
        <time>2022-03-31T10:18:44Z</time>
      </trkpt>
      <trkpt lat="43.53736" lon="5.51392">
        <ele>342.98</ele>
        <time>2022-03-31T10:18:51Z</time>
      </trkpt>
      <trkpt lat="43.53729" lon="5.51381">
        <ele>343.16</ele>
        <time>2022-03-31T10:19:00Z</time>
      </trkpt>
      <trkpt lat="43.53727" lon="5.5138">
        <ele>343.22</ele>
        <time>2022-03-31T10:19:01Z</time>
      </trkpt>
      <trkpt lat="43.53726" lon="5.5138">
        <ele>343.28</ele>
        <time>2022-03-31T10:19:02Z</time>
      </trkpt>
      <trkpt lat="43.53724" lon="5.51379">
        <ele>343.33</ele>
        <time>2022-03-31T10:19:03Z</time>
      </trkpt>
      <trkpt lat="43.53722" lon="5.51378">
        <ele>343.36</ele>
        <time>2022-03-31T10:19:04Z</time>
      </trkpt>
      <trkpt lat="43.53721" lon="5.51377">
        <ele>343.37</ele>
        <time>2022-03-31T10:19:05Z</time>
      </trkpt>
      <trkpt lat="43.53708" lon="5.51366">
        <ele>343.3</ele>
        <time>2022-03-31T10:19:16Z</time>
      </trkpt>
      <trkpt lat="43.537" lon="5.51358">
        <ele>343.22</ele>
        <time>2022-03-31T10:19:25Z</time>
      </trkpt>
      <trkpt lat="43.53688" lon="5.51345">
        <ele>343.04</ele>
        <time>2022-03-31T10:19:35Z</time>
      </trkpt>
      <trkpt lat="43.53679" lon="5.51327">
        <ele>343.01</ele>
        <time>2022-03-31T10:19:48Z</time>
      </trkpt>
      <trkpt lat="43.53673" lon="5.5131">
        <ele>343.37</ele>
        <time>2022-03-31T10:19:58Z</time>
      </trkpt>
      <trkpt lat="43.53673" lon="5.51289">
        <ele>342.9</ele>
        <time>2022-03-31T10:20:10Z</time>
      </trkpt>
      <trkpt lat="43.53673" lon="5.51285">
        <ele>342.38</ele>
        <time>2022-03-31T10:20:21Z</time>
      </trkpt>
      <trkpt lat="43.53671" lon="5.51278">
        <ele>340.95</ele>
        <time>2022-03-31T10:21:29Z</time>
      </trkpt>
      <trkpt lat="43.53677" lon="5.51254">
        <ele>341.49</ele>
        <time>2022-03-31T10:21:44Z</time>
      </trkpt>
      <trkpt lat="43.53684" lon="5.51233">
        <ele>341.29</ele>
        <time>2022-03-31T10:21:58Z</time>
      </trkpt>
      <trkpt lat="43.53696" lon="5.51213">
        <ele>339.37</ele>
        <time>2022-03-31T10:22:14Z</time>
      </trkpt>
      <trkpt lat="43.53698" lon="5.51212">
        <ele>339.58</ele>
        <time>2022-03-31T10:22:15Z</time>
      </trkpt>
      <trkpt lat="43.537" lon="5.51209">
        <ele>339.92</ele>
        <time>2022-03-31T10:22:17Z</time>
      </trkpt>
      <trkpt lat="43.53702" lon="5.51206">
        <ele>339.99</ele>
        <time>2022-03-31T10:22:18Z</time>
      </trkpt>
      <trkpt lat="43.53703" lon="5.51205">
        <ele>340.02</ele>
        <time>2022-03-31T10:22:19Z</time>
      </trkpt>
      <trkpt lat="43.53704" lon="5.51203">
        <ele>340.03</ele>
        <time>2022-03-31T10:22:20Z</time>
      </trkpt>
      <trkpt lat="43.53706" lon="5.51201">
        <ele>340.04</ele>
        <time>2022-03-31T10:22:21Z</time>
      </trkpt>
      <trkpt lat="43.53719" lon="5.51189">
        <ele>339.88</ele>
        <time>2022-03-31T10:22:33Z</time>
      </trkpt>
      <trkpt lat="43.53734" lon="5.51181">
        <ele>339.92</ele>
        <time>2022-03-31T10:22:44Z</time>
      </trkpt>
      <trkpt lat="43.53742" lon="5.51169">
        <ele>339.73</ele>
        <time>2022-03-31T10:22:53Z</time>
      </trkpt>
      <trkpt lat="43.53746" lon="5.51161">
        <ele>339.4</ele>
        <time>2022-03-31T10:22:58Z</time>
      </trkpt>
      <trkpt lat="43.53747" lon="5.51159">
        <ele>339.36</ele>
        <time>2022-03-31T10:22:59Z</time>
      </trkpt>
      <trkpt lat="43.53748" lon="5.51156">
        <ele>339.34</ele>
        <time>2022-03-31T10:23:00Z</time>
      </trkpt>
      <trkpt lat="43.53748" lon="5.51154">
        <ele>339.31</ele>
        <time>2022-03-31T10:23:01Z</time>
      </trkpt>
      <trkpt lat="43.53749" lon="5.51151">
        <ele>339.23</ele>
        <time>2022-03-31T10:23:02Z</time>
      </trkpt>
      <trkpt lat="43.53749" lon="5.51149">
        <ele>339.14</ele>
        <time>2022-03-31T10:23:03Z</time>
      </trkpt>
      <trkpt lat="43.53748" lon="5.51147">
        <ele>339.04</ele>
        <time>2022-03-31T10:23:04Z</time>
      </trkpt>
      <trkpt lat="43.53748" lon="5.51144">
        <ele>338.98</ele>
        <time>2022-03-31T10:23:05Z</time>
      </trkpt>
      <trkpt lat="43.53747" lon="5.51143">
        <ele>338.91</ele>
        <time>2022-03-31T10:23:06Z</time>
      </trkpt>
      <trkpt lat="43.53737" lon="5.51133">
        <ele>338.56</ele>
        <time>2022-03-31T10:23:17Z</time>
      </trkpt>
      <trkpt lat="43.53735" lon="5.5113">
        <ele>338.5</ele>
        <time>2022-03-31T10:23:19Z</time>
      </trkpt>
      <trkpt lat="43.53734" lon="5.51129">
        <ele>338.49</ele>
        <time>2022-03-31T10:23:20Z</time>
      </trkpt>
      <trkpt lat="43.53732" lon="5.51128">
        <ele>338.48</ele>
        <time>2022-03-31T10:23:21Z</time>
      </trkpt>
      <trkpt lat="43.53731" lon="5.51126">
        <ele>338.48</ele>
        <time>2022-03-31T10:23:22Z</time>
      </trkpt>
      <trkpt lat="43.5373" lon="5.51125">
        <ele>338.47</ele>
        <time>2022-03-31T10:23:23Z</time>
      </trkpt>
      <trkpt lat="43.53729" lon="5.51123">
        <ele>338.45</ele>
        <time>2022-03-31T10:23:24Z</time>
      </trkpt>
      <trkpt lat="43.53727" lon="5.51123">
        <ele>338.43</ele>
        <time>2022-03-31T10:23:25Z</time>
      </trkpt>
      <trkpt lat="43.53726" lon="5.51121">
        <ele>338.41</ele>
        <time>2022-03-31T10:23:26Z</time>
      </trkpt>
      <trkpt lat="43.53724" lon="5.5112">
        <ele>338.39</ele>
        <time>2022-03-31T10:23:27Z</time>
      </trkpt>
      <trkpt lat="43.53723" lon="5.51119">
        <ele>338.38</ele>
        <time>2022-03-31T10:23:28Z</time>
      </trkpt>
      <trkpt lat="43.53722" lon="5.51117">
        <ele>338.37</ele>
        <time>2022-03-31T10:23:29Z</time>
      </trkpt>
      <trkpt lat="43.53721" lon="5.51116">
        <ele>338.36</ele>
        <time>2022-03-31T10:23:30Z</time>
      </trkpt>
      <trkpt lat="43.53719" lon="5.51115">
        <ele>338.35</ele>
        <time>2022-03-31T10:23:31Z</time>
      </trkpt>
      <trkpt lat="43.53711" lon="5.51101">
        <ele>338.39</ele>
        <time>2022-03-31T10:23:40Z</time>
      </trkpt>
      <trkpt lat="43.5371" lon="5.51099">
        <ele>338.42</ele>
        <time>2022-03-31T10:23:41Z</time>
      </trkpt>
      <trkpt lat="43.53709" lon="5.51097">
        <ele>338.45</ele>
        <time>2022-03-31T10:23:42Z</time>
      </trkpt>
      <trkpt lat="43.53708" lon="5.51096">
        <ele>338.48</ele>
        <time>2022-03-31T10:23:43Z</time>
      </trkpt>
      <trkpt lat="43.53707" lon="5.51094">
        <ele>338.48</ele>
        <time>2022-03-31T10:23:44Z</time>
      </trkpt>
      <trkpt lat="43.53706" lon="5.51093">
        <ele>338.48</ele>
        <time>2022-03-31T10:23:45Z</time>
      </trkpt>
      <trkpt lat="43.53705" lon="5.51092">
        <ele>338.5</ele>
        <time>2022-03-31T10:23:46Z</time>
      </trkpt>
      <trkpt lat="43.53693" lon="5.51084">
        <ele>338.51</ele>
        <time>2022-03-31T10:23:56Z</time>
      </trkpt>
      <trkpt lat="43.53689" lon="5.51082">
        <ele>338.3</ele>
        <time>2022-03-31T10:24:00Z</time>
      </trkpt>
      <trkpt lat="43.53676" lon="5.51075">
        <ele>336.3</ele>
        <time>2022-03-31T10:24:12Z</time>
      </trkpt>
      <trkpt lat="43.53664" lon="5.51066">
        <ele>333.65</ele>
        <time>2022-03-31T10:24:23Z</time>
      </trkpt>
      <trkpt lat="43.53653" lon="5.51061">
        <ele>331.22</ele>
        <time>2022-03-31T10:24:35Z</time>
      </trkpt>
      <trkpt lat="43.53641" lon="5.51053">
        <ele>329.14</ele>
        <time>2022-03-31T10:24:49Z</time>
      </trkpt>
      <trkpt lat="43.53627" lon="5.51058">
        <ele>326.13</ele>
        <time>2022-03-31T10:25:01Z</time>
      </trkpt>
      <trkpt lat="43.5362" lon="5.5106">
        <ele>325.11</ele>
        <time>2022-03-31T10:25:05Z</time>
      </trkpt>
      <trkpt lat="43.53611" lon="5.51065">
        <ele>323.88</ele>
        <time>2022-03-31T10:25:13Z</time>
      </trkpt>
      <trkpt lat="43.53604" lon="5.51069">
        <ele>322.34</ele>
        <time>2022-03-31T10:25:19Z</time>
      </trkpt>
      <trkpt lat="43.53598" lon="5.51072">
        <ele>321.3</ele>
        <time>2022-03-31T10:25:23Z</time>
      </trkpt>
      <trkpt lat="43.53597" lon="5.51072">
        <ele>321.12</ele>
        <time>2022-03-31T10:25:24Z</time>
      </trkpt>
      <trkpt lat="43.53596" lon="5.51073">
        <ele>320.94</ele>
        <time>2022-03-31T10:25:25Z</time>
      </trkpt>
      <trkpt lat="43.53586" lon="5.5108">
        <ele>318.47</ele>
        <time>2022-03-31T10:25:37Z</time>
      </trkpt>
      <trkpt lat="43.53577" lon="5.51092">
        <ele>315.42</ele>
        <time>2022-03-31T10:25:51Z</time>
      </trkpt>
      <trkpt lat="43.53562" lon="5.51105">
        <ele>312.49</ele>
        <time>2022-03-31T10:26:05Z</time>
      </trkpt>
      <trkpt lat="43.5356" lon="5.51113">
        <ele>310.13</ele>
        <time>2022-03-31T10:26:11Z</time>
      </trkpt>
      <trkpt lat="43.53547" lon="5.5113">
        <ele>307.39</ele>
        <time>2022-03-31T10:26:26Z</time>
      </trkpt>
      <trkpt lat="43.53541" lon="5.51143">
        <ele>306.3</ele>
        <time>2022-03-31T10:26:34Z</time>
      </trkpt>
      <trkpt lat="43.53535" lon="5.51154">
        <ele>305.38</ele>
        <time>2022-03-31T10:26:42Z</time>
      </trkpt>
      <trkpt lat="43.53532" lon="5.51162">
        <ele>304.65</ele>
        <time>2022-03-31T10:26:47Z</time>
      </trkpt>
      <trkpt lat="43.53532" lon="5.51164">
        <ele>304.48</ele>
        <time>2022-03-31T10:26:48Z</time>
      </trkpt>
      <trkpt lat="43.53525" lon="5.51183">
        <ele>302.01</ele>
        <time>2022-03-31T10:27:01Z</time>
      </trkpt>
      <trkpt lat="43.53516" lon="5.51196">
        <ele>300.22</ele>
        <time>2022-03-31T10:27:11Z</time>
      </trkpt>
      <trkpt lat="43.53504" lon="5.51209">
        <ele>298.72</ele>
        <time>2022-03-31T10:27:23Z</time>
      </trkpt>
      <trkpt lat="43.53501" lon="5.51219">
        <ele>297.35</ele>
        <time>2022-03-31T10:27:34Z</time>
      </trkpt>
      <trkpt lat="43.53503" lon="5.51227">
        <ele>296.57</ele>
        <time>2022-03-31T10:28:15Z</time>
      </trkpt>
      <trkpt lat="43.53504" lon="5.51228">
        <ele>296.69</ele>
        <time>2022-03-31T10:28:16Z</time>
      </trkpt>
      <trkpt lat="43.53505" lon="5.51229">
        <ele>296.76</ele>
        <time>2022-03-31T10:28:17Z</time>
      </trkpt>
      <trkpt lat="43.53507" lon="5.5123">
        <ele>296.79</ele>
        <time>2022-03-31T10:28:18Z</time>
      </trkpt>
      <trkpt lat="43.53508" lon="5.51232">
        <ele>296.79</ele>
        <time>2022-03-31T10:28:19Z</time>
      </trkpt>
      <trkpt lat="43.53509" lon="5.51233">
        <ele>296.71</ele>
        <time>2022-03-31T10:28:20Z</time>
      </trkpt>
      <trkpt lat="43.53514" lon="5.51243">
        <ele>294.94</ele>
        <time>2022-03-31T10:28:28Z</time>
      </trkpt>
      <trkpt lat="43.53514" lon="5.51246">
        <ele>294.71</ele>
        <time>2022-03-31T10:28:29Z</time>
      </trkpt>
      <trkpt lat="43.53514" lon="5.51255">
        <ele>293.59</ele>
        <time>2022-03-31T10:28:34Z</time>
      </trkpt>
      <trkpt lat="43.53512" lon="5.51261">
        <ele>292.94</ele>
        <time>2022-03-31T10:28:38Z</time>
      </trkpt>
      <trkpt lat="43.53511" lon="5.51263">
        <ele>292.78</ele>
        <time>2022-03-31T10:28:39Z</time>
      </trkpt>
      <trkpt lat="43.53504" lon="5.51277">
        <ele>291.88</ele>
        <time>2022-03-31T10:28:49Z</time>
      </trkpt>
      <trkpt lat="43.53494" lon="5.51287">
        <ele>290.86</ele>
        <time>2022-03-31T10:28:59Z</time>
      </trkpt>
      <trkpt lat="43.5349" lon="5.51289">
        <ele>290.49</ele>
        <time>2022-03-31T10:29:02Z</time>
      </trkpt>
      <trkpt lat="43.53488" lon="5.51288">
        <ele>290.21</ele>
        <time>2022-03-31T10:29:03Z</time>
      </trkpt>
      <trkpt lat="43.53487" lon="5.51288">
        <ele>290.06</ele>
        <time>2022-03-31T10:29:04Z</time>
      </trkpt>
      <trkpt lat="43.53473" lon="5.51285">
        <ele>288.71</ele>
        <time>2022-03-31T10:29:15Z</time>
      </trkpt>
      <trkpt lat="43.53472" lon="5.51284">
        <ele>288.58</ele>
        <time>2022-03-31T10:29:16Z</time>
      </trkpt>
      <trkpt lat="43.53471" lon="5.51283">
        <ele>288.5</ele>
        <time>2022-03-31T10:29:17Z</time>
      </trkpt>
      <trkpt lat="43.53469" lon="5.51282">
        <ele>288.44</ele>
        <time>2022-03-31T10:29:18Z</time>
      </trkpt>
      <trkpt lat="43.53462" lon="5.51281">
        <ele>287.62</ele>
        <time>2022-03-31T10:29:25Z</time>
      </trkpt>
      <trkpt lat="43.53461" lon="5.51281">
        <ele>287.48</ele>
        <time>2022-03-31T10:29:26Z</time>
      </trkpt>
      <trkpt lat="43.5346" lon="5.51281">
        <ele>287.36</ele>
        <time>2022-03-31T10:29:27Z</time>
      </trkpt>
      <trkpt lat="43.53458" lon="5.5128">
        <ele>287.24</ele>
        <time>2022-03-31T10:29:28Z</time>
      </trkpt>
      <trkpt lat="43.53457" lon="5.51279">
        <ele>286.87</ele>
        <time>2022-03-31T10:29:29Z</time>
      </trkpt>
      <trkpt lat="43.53447" lon="5.51262">
        <ele>285.23</ele>
        <time>2022-03-31T10:29:42Z</time>
      </trkpt>
      <trkpt lat="43.53441" lon="5.51253">
        <ele>284.91</ele>
        <time>2022-03-31T10:29:48Z</time>
      </trkpt>
      <trkpt lat="43.53435" lon="5.51235">
        <ele>284.76</ele>
        <time>2022-03-31T10:30:00Z</time>
      </trkpt>
      <trkpt lat="43.53425" lon="5.51235">
        <ele>284.69</ele>
        <time>2022-03-31T10:30:07Z</time>
      </trkpt>
      <trkpt lat="43.53424" lon="5.51236">
        <ele>284.69</ele>
        <time>2022-03-31T10:30:08Z</time>
      </trkpt>
      <trkpt lat="43.53415" lon="5.51249">
        <ele>284.41</ele>
        <time>2022-03-31T10:30:19Z</time>
      </trkpt>
      <trkpt lat="43.53407" lon="5.51268">
        <ele>283.4</ele>
        <time>2022-03-31T10:30:31Z</time>
      </trkpt>
      <trkpt lat="43.53403" lon="5.51277">
        <ele>282.74</ele>
        <time>2022-03-31T10:30:38Z</time>
      </trkpt>
      <trkpt lat="43.53403" lon="5.51279">
        <ele>282.69</ele>
        <time>2022-03-31T10:30:39Z</time>
      </trkpt>
      <trkpt lat="43.53394" lon="5.51293">
        <ele>281.4</ele>
        <time>2022-03-31T10:30:50Z</time>
      </trkpt>
      <trkpt lat="43.53381" lon="5.51296">
        <ele>280.43</ele>
        <time>2022-03-31T10:31:01Z</time>
      </trkpt>
      <trkpt lat="43.53362" lon="5.51298">
        <ele>279.48</ele>
        <time>2022-03-31T10:31:15Z</time>
      </trkpt>
      <trkpt lat="43.53347" lon="5.51303">
        <ele>278.75</ele>
        <time>2022-03-31T10:31:28Z</time>
      </trkpt>
      <trkpt lat="43.53324" lon="5.51303">
        <ele>278.47</ele>
        <time>2022-03-31T10:31:44Z</time>
      </trkpt>
      <trkpt lat="43.53309" lon="5.51302">
        <ele>278.55</ele>
        <time>2022-03-31T10:31:55Z</time>
      </trkpt>
      <trkpt lat="43.53297" lon="5.51299">
        <ele>278.18</ele>
        <time>2022-03-31T10:32:04Z</time>
      </trkpt>
      <trkpt lat="43.5329" lon="5.51288">
        <ele>277.8</ele>
        <time>2022-03-31T10:32:14Z</time>
      </trkpt>
      <trkpt lat="43.53284" lon="5.51276">
        <ele>275.92</ele>
        <time>2022-03-31T10:32:24Z</time>
      </trkpt>
      <trkpt lat="43.53278" lon="5.5126">
        <ele>273.24</ele>
        <time>2022-03-31T10:32:37Z</time>
      </trkpt>
      <trkpt lat="43.53278" lon="5.51241">
        <ele>270.32</ele>
        <time>2022-03-31T10:32:51Z</time>
      </trkpt>
      <trkpt lat="43.53274" lon="5.51222">
        <ele>267.52</ele>
        <time>2022-03-31T10:33:07Z</time>
      </trkpt>
      <trkpt lat="43.53272" lon="5.5121">
        <ele>265.97</ele>
        <time>2022-03-31T10:33:20Z</time>
      </trkpt>
      <trkpt lat="43.53273" lon="5.51201">
        <ele>264.56</ele>
        <time>2022-03-31T10:33:26Z</time>
      </trkpt>
      <trkpt lat="43.53274" lon="5.512">
        <ele>264.27</ele>
        <time>2022-03-31T10:33:27Z</time>
      </trkpt>
      <trkpt lat="43.53279" lon="5.51192">
        <ele>261.21</ele>
        <time>2022-03-31T10:33:37Z</time>
      </trkpt>
      <trkpt lat="43.53284" lon="5.51185">
        <ele>258.69</ele>
        <time>2022-03-31T10:33:50Z</time>
      </trkpt>
      <trkpt lat="43.53285" lon="5.51181">
        <ele>257.38</ele>
        <time>2022-03-31T10:34:03Z</time>
      </trkpt>
      <trkpt lat="43.53283" lon="5.51182">
        <ele>257.45</ele>
        <time>2022-03-31T10:34:32Z</time>
      </trkpt>
      <trkpt lat="43.53282" lon="5.51183">
        <ele>257.22</ele>
        <time>2022-03-31T10:35:00Z</time>
      </trkpt>
      <trkpt lat="43.53282" lon="5.51183">
        <ele>257.75</ele>
        <time>2022-03-31T10:35:23Z</time>
      </trkpt>
      <trkpt lat="43.5328" lon="5.51173">
        <ele>257.75</ele>
        <time>2022-03-31T10:35:40Z</time>
      </trkpt>
      <trkpt lat="43.53277" lon="5.51169">
        <ele>257.75</ele>
        <time>2022-03-31T10:35:44Z</time>
      </trkpt>
      <trkpt lat="43.53271" lon="5.51159">
        <ele>257</ele>
        <time>2022-03-31T10:35:52Z</time>
      </trkpt>
      <trkpt lat="43.5327" lon="5.51158">
        <ele>256.91</ele>
        <time>2022-03-31T10:35:53Z</time>
      </trkpt>
      <trkpt lat="43.53269" lon="5.51157">
        <ele>256.83</ele>
        <time>2022-03-31T10:35:54Z</time>
      </trkpt>
      <trkpt lat="43.53259" lon="5.51138">
        <ele>254.89</ele>
        <time>2022-03-31T10:36:09Z</time>
      </trkpt>
      <trkpt lat="43.53248" lon="5.51138">
        <ele>254.28</ele>
        <time>2022-03-31T10:36:21Z</time>
      </trkpt>
      <trkpt lat="43.53244" lon="5.51141">
        <ele>255.24</ele>
        <time>2022-03-31T10:36:39Z</time>
      </trkpt>
      <trkpt lat="43.53242" lon="5.5114">
        <ele>256.22</ele>
        <time>2022-03-31T10:36:55Z</time>
      </trkpt>
      <trkpt lat="43.53238" lon="5.5114">
        <ele>256.1</ele>
        <time>2022-03-31T10:37:19Z</time>
      </trkpt>
      <trkpt lat="43.53227" lon="5.51138">
        <ele>255.65</ele>
        <time>2022-03-31T10:37:31Z</time>
      </trkpt>
      <trkpt lat="43.53223" lon="5.51138">
        <ele>256.21</ele>
        <time>2022-03-31T10:37:45Z</time>
      </trkpt>
      <trkpt lat="43.53215" lon="5.51132">
        <ele>256.13</ele>
        <time>2022-03-31T10:38:01Z</time>
      </trkpt>
      <trkpt lat="43.53202" lon="5.51122">
        <ele>257.4</ele>
        <time>2022-03-31T10:38:15Z</time>
      </trkpt>
      <trkpt lat="43.53202" lon="5.51111">
        <ele>256.56</ele>
        <time>2022-03-31T10:38:28Z</time>
      </trkpt>
      <trkpt lat="43.53199" lon="5.51101">
        <ele>256.45</ele>
        <time>2022-03-31T10:38:44Z</time>
      </trkpt>
      <trkpt lat="43.53194" lon="5.5109">
        <ele>256.45</ele>
        <time>2022-03-31T10:38:57Z</time>
      </trkpt>
      <trkpt lat="43.53188" lon="5.51081">
        <ele>256.45</ele>
        <time>2022-03-31T10:39:10Z</time>
      </trkpt>
      <trkpt lat="43.53183" lon="5.51084">
        <ele>256.45</ele>
        <time>2022-03-31T10:39:24Z</time>
      </trkpt>
      <trkpt lat="43.53176" lon="5.51089">
        <ele>264.86</ele>
        <time>2022-03-31T10:39:38Z</time>
      </trkpt>
      <trkpt lat="43.53175" lon="5.51089">
        <ele>264.89</ele>
        <time>2022-03-31T10:39:39Z</time>
      </trkpt>
      <trkpt lat="43.53174" lon="5.51087">
        <ele>265.06</ele>
        <time>2022-03-31T11:04:24Z</time>
      </trkpt>
      <trkpt lat="43.53174" lon="5.51078">
        <ele>265.06</ele>
        <time>2022-03-31T11:04:39Z</time>
      </trkpt>
      <trkpt lat="43.53178" lon="5.51076">
        <ele>265.06</ele>
        <time>2022-03-31T11:04:58Z</time>
      </trkpt>
      <trkpt lat="43.53184" lon="5.51074">
        <ele>261.56</ele>
        <time>2022-03-31T11:05:07Z</time>
      </trkpt>
      <trkpt lat="43.53185" lon="5.51074">
        <ele>261.44</ele>
        <time>2022-03-31T11:05:08Z</time>
      </trkpt>
      <trkpt lat="43.53195" lon="5.51085">
        <ele>260.41</ele>
        <time>2022-03-31T11:05:23Z</time>
      </trkpt>
      <trkpt lat="43.53199" lon="5.51101">
        <ele>258.75</ele>
        <time>2022-03-31T11:05:39Z</time>
      </trkpt>
      <trkpt lat="43.532" lon="5.51111">
        <ele>256.9</ele>
        <time>2022-03-31T11:05:54Z</time>
      </trkpt>
      <trkpt lat="43.53208" lon="5.51124">
        <ele>256.12</ele>
        <time>2022-03-31T11:06:06Z</time>
      </trkpt>
      <trkpt lat="43.53218" lon="5.5113">
        <ele>256.18</ele>
        <time>2022-03-31T11:06:19Z</time>
      </trkpt>
      <trkpt lat="43.53223" lon="5.51133">
        <ele>256.4</ele>
        <time>2022-03-31T11:06:31Z</time>
      </trkpt>
      <trkpt lat="43.53225" lon="5.51136">
        <ele>255.46</ele>
        <time>2022-03-31T11:06:44Z</time>
      </trkpt>
      <trkpt lat="43.53229" lon="5.51138">
        <ele>255.28</ele>
        <time>2022-03-31T11:06:46Z</time>
      </trkpt>
      <trkpt lat="43.5323" lon="5.51138">
        <ele>255.11</ele>
        <time>2022-03-31T11:06:47Z</time>
      </trkpt>
      <trkpt lat="43.53241" lon="5.51141">
        <ele>255</ele>
        <time>2022-03-31T11:06:58Z</time>
      </trkpt>
      <trkpt lat="43.53244" lon="5.51142">
        <ele>255.56</ele>
        <time>2022-03-31T11:07:00Z</time>
      </trkpt>
      <trkpt lat="43.53255" lon="5.51142">
        <ele>255.66</ele>
        <time>2022-03-31T11:07:12Z</time>
      </trkpt>
      <trkpt lat="43.53261" lon="5.51148">
        <ele>255.69</ele>
        <time>2022-03-31T11:07:18Z</time>
      </trkpt>
      <trkpt lat="43.5327" lon="5.51157">
        <ele>256.39</ele>
        <time>2022-03-31T11:07:25Z</time>
      </trkpt>
      <trkpt lat="43.53271" lon="5.51158">
        <ele>256.47</ele>
        <time>2022-03-31T11:07:26Z</time>
      </trkpt>
      <trkpt lat="43.53274" lon="5.51162">
        <ele>256.69</ele>
        <time>2022-03-31T11:07:29Z</time>
      </trkpt>
      <trkpt lat="43.53275" lon="5.51163">
        <ele>256.77</ele>
        <time>2022-03-31T11:07:30Z</time>
      </trkpt>
      <trkpt lat="43.53284" lon="5.51176">
        <ele>257.37</ele>
        <time>2022-03-31T11:07:41Z</time>
      </trkpt>
      <trkpt lat="43.53297" lon="5.51185">
        <ele>257.64</ele>
        <time>2022-03-31T11:07:54Z</time>
      </trkpt>
      <trkpt lat="43.53311" lon="5.51175">
        <ele>256.19</ele>
        <time>2022-03-31T11:08:06Z</time>
      </trkpt>
      <trkpt lat="43.53315" lon="5.51155">
        <ele>254.28</ele>
        <time>2022-03-31T11:08:18Z</time>
      </trkpt>
      <trkpt lat="43.53315" lon="5.51148">
        <ele>254.38</ele>
        <time>2022-03-31T11:08:22Z</time>
      </trkpt>
      <trkpt lat="43.53315" lon="5.51146">
        <ele>254.45</ele>
        <time>2022-03-31T11:08:23Z</time>
      </trkpt>
      <trkpt lat="43.53314" lon="5.51145">
        <ele>254.53</ele>
        <time>2022-03-31T11:08:24Z</time>
      </trkpt>
      <trkpt lat="43.53312" lon="5.51126">
        <ele>254.15</ele>
        <time>2022-03-31T11:08:35Z</time>
      </trkpt>
      <trkpt lat="43.5331" lon="5.51103">
        <ele>251.56</ele>
        <time>2022-03-31T11:08:48Z</time>
      </trkpt>
      <trkpt lat="43.53309" lon="5.51096">
        <ele>250.72</ele>
        <time>2022-03-31T11:08:52Z</time>
      </trkpt>
      <trkpt lat="43.53317" lon="5.51078">
        <ele>248.85</ele>
        <time>2022-03-31T11:09:05Z</time>
      </trkpt>
      <trkpt lat="43.53325" lon="5.51068">
        <ele>247.37</ele>
        <time>2022-03-31T11:09:13Z</time>
      </trkpt>
      <trkpt lat="43.53326" lon="5.51066">
        <ele>247.12</ele>
        <time>2022-03-31T11:09:14Z</time>
      </trkpt>
      <trkpt lat="43.5333" lon="5.51045">
        <ele>244.99</ele>
        <time>2022-03-31T11:09:25Z</time>
      </trkpt>
      <trkpt lat="43.5333" lon="5.51043">
        <ele>244.85</ele>
        <time>2022-03-31T11:09:26Z</time>
      </trkpt>
      <trkpt lat="43.53327" lon="5.51025">
        <ele>243.73</ele>
        <time>2022-03-31T11:09:39Z</time>
      </trkpt>
      <trkpt lat="43.53324" lon="5.51017">
        <ele>243.48</ele>
        <time>2022-03-31T11:09:44Z</time>
      </trkpt>
      <trkpt lat="43.53324" lon="5.51015">
        <ele>243.36</ele>
        <time>2022-03-31T11:09:45Z</time>
      </trkpt>
      <trkpt lat="43.53324" lon="5.51013">
        <ele>243.2</ele>
        <time>2022-03-31T11:09:46Z</time>
      </trkpt>
      <trkpt lat="43.53323" lon="5.51011">
        <ele>243.03</ele>
        <time>2022-03-31T11:09:47Z</time>
      </trkpt>
      <trkpt lat="43.53323" lon="5.5101">
        <ele>242.85</ele>
        <time>2022-03-31T11:09:48Z</time>
      </trkpt>
      <trkpt lat="43.5332" lon="5.50991">
        <ele>241.38</ele>
        <time>2022-03-31T11:09:59Z</time>
      </trkpt>
      <trkpt lat="43.53316" lon="5.5097">
        <ele>239.36</ele>
        <time>2022-03-31T11:10:10Z</time>
      </trkpt>
      <trkpt lat="43.53315" lon="5.50956">
        <ele>237.63</ele>
        <time>2022-03-31T11:10:19Z</time>
      </trkpt>
      <trkpt lat="43.53314" lon="5.50951">
        <ele>237.34</ele>
        <time>2022-03-31T11:10:22Z</time>
      </trkpt>
      <trkpt lat="43.53314" lon="5.50949">
        <ele>237.26</ele>
        <time>2022-03-31T11:10:23Z</time>
      </trkpt>
      <trkpt lat="43.53311" lon="5.50937">
        <ele>236.15</ele>
        <time>2022-03-31T11:10:36Z</time>
      </trkpt>
      <trkpt lat="43.5331" lon="5.50933">
        <ele>236.04</ele>
        <time>2022-03-31T11:10:38Z</time>
      </trkpt>
      <trkpt lat="43.53309" lon="5.50931">
        <ele>236</ele>
        <time>2022-03-31T11:10:39Z</time>
      </trkpt>
      <trkpt lat="43.53308" lon="5.5093">
        <ele>235.97</ele>
        <time>2022-03-31T11:10:40Z</time>
      </trkpt>
      <trkpt lat="43.53303" lon="5.50909">
        <ele>235.45</ele>
        <time>2022-03-31T11:10:52Z</time>
      </trkpt>
      <trkpt lat="43.53301" lon="5.50901">
        <ele>235.05</ele>
        <time>2022-03-31T11:11:03Z</time>
      </trkpt>
      <trkpt lat="43.53292" lon="5.50885">
        <ele>234.75</ele>
        <time>2022-03-31T11:11:15Z</time>
      </trkpt>
      <trkpt lat="43.53288" lon="5.50873">
        <ele>233.12</ele>
        <time>2022-03-31T11:11:28Z</time>
      </trkpt>
      <trkpt lat="43.53284" lon="5.50867">
        <ele>232.7</ele>
        <time>2022-03-31T11:11:40Z</time>
      </trkpt>
      <trkpt lat="43.53269" lon="5.50858">
        <ele>233.14</ele>
        <time>2022-03-31T11:11:57Z</time>
      </trkpt>
      <trkpt lat="43.53264" lon="5.50858">
        <ele>233.79</ele>
        <time>2022-03-31T11:12:12Z</time>
      </trkpt>
      <trkpt lat="43.53246" lon="5.50863">
        <ele>236.37</ele>
        <time>2022-03-31T11:12:30Z</time>
      </trkpt>
      <trkpt lat="43.53237" lon="5.50864">
        <ele>238.35</ele>
        <time>2022-03-31T11:12:45Z</time>
      </trkpt>
      <trkpt lat="43.53223" lon="5.50862">
        <ele>240.92</ele>
        <time>2022-03-31T11:13:00Z</time>
      </trkpt>
      <trkpt lat="43.53205" lon="5.5086">
        <ele>243.81</ele>
        <time>2022-03-31T11:13:19Z</time>
      </trkpt>
      <trkpt lat="43.53192" lon="5.50862">
        <ele>246.54</ele>
        <time>2022-03-31T11:13:35Z</time>
      </trkpt>
      <trkpt lat="43.53178" lon="5.50864">
        <ele>249.12</ele>
        <time>2022-03-31T11:13:52Z</time>
      </trkpt>
      <trkpt lat="43.53166" lon="5.50858">
        <ele>251.25</ele>
        <time>2022-03-31T11:14:10Z</time>
      </trkpt>
      <trkpt lat="43.53151" lon="5.50848">
        <ele>253.5</ele>
        <time>2022-03-31T11:14:31Z</time>
      </trkpt>
      <trkpt lat="43.53138" lon="5.50836">
        <ele>254.63</ele>
        <time>2022-03-31T11:14:49Z</time>
      </trkpt>
      <trkpt lat="43.53125" lon="5.50826">
        <ele>257.72</ele>
        <time>2022-03-31T11:15:06Z</time>
      </trkpt>
      <trkpt lat="43.53112" lon="5.50817">
        <ele>260.92</ele>
        <time>2022-03-31T11:15:23Z</time>
      </trkpt>
      <trkpt lat="43.53099" lon="5.50805">
        <ele>263.48</ele>
        <time>2022-03-31T11:15:44Z</time>
      </trkpt>
      <trkpt lat="43.5309" lon="5.50794">
        <ele>266.68</ele>
        <time>2022-03-31T11:15:59Z</time>
      </trkpt>
      <trkpt lat="43.53082" lon="5.50784">
        <ele>269.79</ele>
        <time>2022-03-31T11:16:15Z</time>
      </trkpt>
      <trkpt lat="43.53073" lon="5.50773">
        <ele>272.02</ele>
        <time>2022-03-31T11:16:32Z</time>
      </trkpt>
      <trkpt lat="43.53061" lon="5.5076">
        <ele>274.77</ele>
        <time>2022-03-31T11:16:52Z</time>
      </trkpt>
      <trkpt lat="43.53053" lon="5.50747">
        <ele>277.1</ele>
        <time>2022-03-31T11:17:08Z</time>
      </trkpt>
      <trkpt lat="43.53046" lon="5.50741">
        <ele>278.64</ele>
        <time>2022-03-31T11:17:20Z</time>
      </trkpt>
      <trkpt lat="43.53032" lon="5.50741">
        <ele>280.78</ele>
        <time>2022-03-31T11:17:36Z</time>
      </trkpt>
      <trkpt lat="43.53015" lon="5.5074">
        <ele>282.83</ele>
        <time>2022-03-31T11:17:54Z</time>
      </trkpt>
      <trkpt lat="43.52999" lon="5.50735">
        <ele>284.89</ele>
        <time>2022-03-31T11:18:14Z</time>
      </trkpt>
      <trkpt lat="43.52984" lon="5.50724">
        <ele>286.52</ele>
        <time>2022-03-31T11:18:31Z</time>
      </trkpt>
      <trkpt lat="43.52967" lon="5.50718">
        <ele>288.86</ele>
        <time>2022-03-31T11:18:50Z</time>
      </trkpt>
      <trkpt lat="43.52955" lon="5.50727">
        <ele>290.51</ele>
        <time>2022-03-31T11:19:05Z</time>
      </trkpt>
      <trkpt lat="43.52946" lon="5.50743">
        <ele>292.58</ele>
        <time>2022-03-31T11:19:23Z</time>
      </trkpt>
      <trkpt lat="43.52935" lon="5.50747">
        <ele>294.7</ele>
        <time>2022-03-31T11:19:38Z</time>
      </trkpt>
      <trkpt lat="43.52924" lon="5.50732">
        <ele>296.85</ele>
        <time>2022-03-31T11:19:55Z</time>
      </trkpt>
      <trkpt lat="43.52916" lon="5.50716">
        <ele>297.23</ele>
        <time>2022-03-31T11:20:07Z</time>
      </trkpt>
      <trkpt lat="43.52907" lon="5.50694">
        <ele>297.93</ele>
        <time>2022-03-31T11:20:25Z</time>
      </trkpt>
      <trkpt lat="43.52892" lon="5.50681">
        <ele>299.57</ele>
        <time>2022-03-31T11:20:41Z</time>
      </trkpt>
      <trkpt lat="43.52882" lon="5.50664">
        <ele>301.15</ele>
        <time>2022-03-31T11:20:56Z</time>
      </trkpt>
      <trkpt lat="43.52878" lon="5.50638">
        <ele>302.39</ele>
        <time>2022-03-31T11:21:13Z</time>
      </trkpt>
      <trkpt lat="43.52877" lon="5.50617">
        <ele>302.42</ele>
        <time>2022-03-31T11:21:29Z</time>
      </trkpt>
      <trkpt lat="43.52864" lon="5.50599">
        <ele>300.78</ele>
        <time>2022-03-31T11:21:45Z</time>
      </trkpt>
      <trkpt lat="43.52852" lon="5.5059">
        <ele>299.25</ele>
        <time>2022-03-31T11:21:57Z</time>
      </trkpt>
      <trkpt lat="43.52841" lon="5.50575">
        <ele>297.17</ele>
        <time>2022-03-31T11:22:09Z</time>
      </trkpt>
      <trkpt lat="43.5283" lon="5.5056">
        <ele>295.13</ele>
        <time>2022-03-31T11:22:23Z</time>
      </trkpt>
      <trkpt lat="43.52827" lon="5.50556">
        <ele>294.68</ele>
        <time>2022-03-31T11:22:26Z</time>
      </trkpt>
      <trkpt lat="43.52826" lon="5.50554">
        <ele>294.52</ele>
        <time>2022-03-31T11:22:27Z</time>
      </trkpt>
      <trkpt lat="43.52826" lon="5.50553">
        <ele>294.36</ele>
        <time>2022-03-31T11:22:28Z</time>
      </trkpt>
      <trkpt lat="43.52816" lon="5.50532">
        <ele>292.3</ele>
        <time>2022-03-31T11:22:41Z</time>
      </trkpt>
      <trkpt lat="43.52806" lon="5.50512">
        <ele>290.05</ele>
        <time>2022-03-31T11:22:54Z</time>
      </trkpt>
      <trkpt lat="43.52796" lon="5.50494">
        <ele>288.15</ele>
        <time>2022-03-31T11:23:08Z</time>
      </trkpt>
      <trkpt lat="43.52792" lon="5.50488">
        <ele>287.31</ele>
        <time>2022-03-31T11:23:13Z</time>
      </trkpt>
      <trkpt lat="43.5279" lon="5.50483">
        <ele>286.7</ele>
        <time>2022-03-31T11:23:16Z</time>
      </trkpt>
      <trkpt lat="43.52785" lon="5.50472">
        <ele>285.29</ele>
        <time>2022-03-31T11:23:25Z</time>
      </trkpt>
      <trkpt lat="43.52783" lon="5.50454">
        <ele>283.63</ele>
        <time>2022-03-31T11:23:37Z</time>
      </trkpt>
      <trkpt lat="43.52784" lon="5.50438">
        <ele>281.58</ele>
        <time>2022-03-31T11:23:48Z</time>
      </trkpt>
      <trkpt lat="43.52783" lon="5.5042">
        <ele>279.39</ele>
        <time>2022-03-31T11:23:59Z</time>
      </trkpt>
      <trkpt lat="43.52782" lon="5.50415">
        <ele>278.9</ele>
        <time>2022-03-31T11:24:02Z</time>
      </trkpt>
      <trkpt lat="43.52781" lon="5.50413">
        <ele>278.75</ele>
        <time>2022-03-31T11:24:03Z</time>
      </trkpt>
      <trkpt lat="43.5277" lon="5.5041">
        <ele>276.68</ele>
        <time>2022-03-31T11:24:14Z</time>
      </trkpt>
      <trkpt lat="43.5276" lon="5.50414">
        <ele>274.46</ele>
        <time>2022-03-31T11:24:24Z</time>
      </trkpt>
      <trkpt lat="43.52749" lon="5.50423">
        <ele>272.48</ele>
        <time>2022-03-31T11:24:36Z</time>
      </trkpt>
      <trkpt lat="43.52743" lon="5.50431">
        <ele>271.31</ele>
        <time>2022-03-31T11:24:43Z</time>
      </trkpt>
      <trkpt lat="43.52733" lon="5.50447">
        <ele>268.36</ele>
        <time>2022-03-31T11:24:56Z</time>
      </trkpt>
      <trkpt lat="43.52719" lon="5.50458">
        <ele>265.43</ele>
        <time>2022-03-31T11:25:10Z</time>
      </trkpt>
      <trkpt lat="43.52706" lon="5.50445">
        <ele>262.8</ele>
        <time>2022-03-31T11:25:24Z</time>
      </trkpt>
      <trkpt lat="43.52697" lon="5.50432">
        <ele>261.57</ele>
        <time>2022-03-31T11:25:33Z</time>
      </trkpt>
      <trkpt lat="43.52685" lon="5.50426">
        <ele>260.07</ele>
        <time>2022-03-31T11:25:46Z</time>
      </trkpt>
      <trkpt lat="43.52683" lon="5.50427">
        <ele>259.99</ele>
        <time>2022-03-31T11:25:47Z</time>
      </trkpt>
      <trkpt lat="43.52682" lon="5.50428">
        <ele>259.93</ele>
        <time>2022-03-31T11:25:48Z</time>
      </trkpt>
      <trkpt lat="43.52681" lon="5.50428">
        <ele>259.88</ele>
        <time>2022-03-31T11:25:49Z</time>
      </trkpt>
      <trkpt lat="43.52679" lon="5.50429">
        <ele>259.85</ele>
        <time>2022-03-31T11:25:50Z</time>
      </trkpt>
      <trkpt lat="43.52666" lon="5.50432">
        <ele>258.8</ele>
        <time>2022-03-31T11:26:02Z</time>
      </trkpt>
      <trkpt lat="43.52656" lon="5.50429">
        <ele>257.9</ele>
        <time>2022-03-31T11:26:10Z</time>
      </trkpt>
      <trkpt lat="43.52655" lon="5.50429">
        <ele>257.76</ele>
        <time>2022-03-31T11:26:11Z</time>
      </trkpt>
      <trkpt lat="43.52642" lon="5.5043">
        <ele>255.63</ele>
        <time>2022-03-31T11:26:22Z</time>
      </trkpt>
      <trkpt lat="43.52625" lon="5.50432">
        <ele>252.57</ele>
        <time>2022-03-31T11:26:36Z</time>
      </trkpt>
      <trkpt lat="43.52608" lon="5.50431">
        <ele>249.51</ele>
        <time>2022-03-31T11:26:50Z</time>
      </trkpt>
      <trkpt lat="43.52592" lon="5.50428">
        <ele>246.27</ele>
        <time>2022-03-31T11:27:03Z</time>
      </trkpt>
      <trkpt lat="43.5258" lon="5.50427">
        <ele>243.54</ele>
        <time>2022-03-31T11:27:15Z</time>
      </trkpt>
      <trkpt lat="43.52563" lon="5.50423">
        <ele>241.45</ele>
        <time>2022-03-31T11:27:30Z</time>
      </trkpt>
      <trkpt lat="43.5255" lon="5.50417">
        <ele>238.72</ele>
        <time>2022-03-31T11:27:42Z</time>
      </trkpt>
      <trkpt lat="43.52536" lon="5.50417">
        <ele>236.83</ele>
        <time>2022-03-31T11:27:56Z</time>
      </trkpt>
      <trkpt lat="43.52517" lon="5.50422">
        <ele>233.86</ele>
        <time>2022-03-31T11:28:13Z</time>
      </trkpt>
      <trkpt lat="43.52508" lon="5.50417">
        <ele>230.67</ele>
        <time>2022-03-31T11:28:25Z</time>
      </trkpt>
      <trkpt lat="43.52496" lon="5.50407">
        <ele>228.65</ele>
        <time>2022-03-31T11:28:38Z</time>
      </trkpt>
      <trkpt lat="43.52487" lon="5.50401">
        <ele>226.81</ele>
        <time>2022-03-31T11:28:53Z</time>
      </trkpt>
      <trkpt lat="43.52483" lon="5.50399">
        <ele>226.39</ele>
        <time>2022-03-31T11:29:02Z</time>
      </trkpt>
      <trkpt lat="43.52467" lon="5.50407">
        <ele>224.08</ele>
        <time>2022-03-31T11:29:18Z</time>
      </trkpt>
      <trkpt lat="43.52451" lon="5.50429">
        <ele>221.7</ele>
        <time>2022-03-31T11:29:35Z</time>
      </trkpt>
      <trkpt lat="43.52451" lon="5.50452">
        <ele>218.55</ele>
        <time>2022-03-31T11:29:46Z</time>
      </trkpt>
      <trkpt lat="43.5244" lon="5.50468">
        <ele>215.49</ele>
        <time>2022-03-31T11:30:01Z</time>
      </trkpt>
      <trkpt lat="43.52426" lon="5.50481">
        <ele>215.04</ele>
        <time>2022-03-31T11:30:18Z</time>
      </trkpt>
      <trkpt lat="43.52417" lon="5.50504">
        <ele>215.75</ele>
        <time>2022-03-31T11:30:33Z</time>
      </trkpt>
      <trkpt lat="43.52416" lon="5.50532">
        <ele>216.92</ele>
        <time>2022-03-31T11:30:49Z</time>
      </trkpt>
      <trkpt lat="43.52414" lon="5.50544">
        <ele>217.76</ele>
        <time>2022-03-31T11:31:05Z</time>
      </trkpt>
      <trkpt lat="43.52411" lon="5.50564">
        <ele>218.2</ele>
        <time>2022-03-31T11:31:20Z</time>
      </trkpt>
      <trkpt lat="43.52413" lon="5.50571">
        <ele>218.46</ele>
        <time>2022-03-31T11:31:38Z</time>
      </trkpt>
      <trkpt lat="43.52409" lon="5.5059">
        <ele>218.27</ele>
        <time>2022-03-31T11:31:55Z</time>
      </trkpt>
      <trkpt lat="43.52402" lon="5.50615">
        <ele>216.64</ele>
        <time>2022-03-31T11:32:10Z</time>
      </trkpt>
      <trkpt lat="43.52399" lon="5.50634">
        <ele>214.83</ele>
        <time>2022-03-31T11:32:25Z</time>
      </trkpt>
      <trkpt lat="43.52399" lon="5.50638">
        <ele>216.53</ele>
        <time>2022-03-31T11:34:22Z</time>
      </trkpt>
      <trkpt lat="43.524" lon="5.50635">
        <ele>217.02</ele>
        <time>2022-03-31T11:34:46Z</time>
      </trkpt>
      <trkpt lat="43.52401" lon="5.50638">
        <ele>216.61</ele>
        <time>2022-03-31T11:35:04Z</time>
      </trkpt>
      <trkpt lat="43.52403" lon="5.50637">
        <ele>217.88</ele>
        <time>2022-03-31T11:35:17Z</time>
      </trkpt>
      <trkpt lat="43.52413" lon="5.50651">
        <ele>220.68</ele>
        <time>2022-03-31T11:35:31Z</time>
      </trkpt>
      <trkpt lat="43.52418" lon="5.50653">
        <ele>220.9</ele>
        <time>2022-03-31T11:35:50Z</time>
      </trkpt>
      <trkpt lat="43.52421" lon="5.50662">
        <ele>221.37</ele>
        <time>2022-03-31T11:36:07Z</time>
      </trkpt>
      <trkpt lat="43.52426" lon="5.50672">
        <ele>223.59</ele>
        <time>2022-03-31T11:36:22Z</time>
      </trkpt>
      <trkpt lat="43.52437" lon="5.5068">
        <ele>223.79</ele>
        <time>2022-03-31T11:36:37Z</time>
      </trkpt>
      <trkpt lat="43.52451" lon="5.50684">
        <ele>226.43</ele>
        <time>2022-03-31T11:36:54Z</time>
      </trkpt>
      <trkpt lat="43.52466" lon="5.50689">
        <ele>229.15</ele>
        <time>2022-03-31T11:37:10Z</time>
      </trkpt>
      <trkpt lat="43.52476" lon="5.50692">
        <ele>230.31</ele>
        <time>2022-03-31T11:37:25Z</time>
      </trkpt>
      <trkpt lat="43.52486" lon="5.50706">
        <ele>231.97</ele>
        <time>2022-03-31T11:37:40Z</time>
      </trkpt>
      <trkpt lat="43.52486" lon="5.50709">
        <ele>232.12</ele>
        <time>2022-03-31T11:37:42Z</time>
      </trkpt>
      <trkpt lat="43.52482" lon="5.50734">
        <ele>234.27</ele>
        <time>2022-03-31T11:37:58Z</time>
      </trkpt>
      <trkpt lat="43.52478" lon="5.50753">
        <ele>235.12</ele>
        <time>2022-03-31T11:38:11Z</time>
      </trkpt>
      <trkpt lat="43.52476" lon="5.50773">
        <ele>236.54</ele>
        <time>2022-03-31T11:38:25Z</time>
      </trkpt>
      <trkpt lat="43.52476" lon="5.50791">
        <ele>239.48</ele>
        <time>2022-03-31T11:38:41Z</time>
      </trkpt>
      <trkpt lat="43.52481" lon="5.50805">
        <ele>240.47</ele>
        <time>2022-03-31T11:38:53Z</time>
      </trkpt>
      <trkpt lat="43.52486" lon="5.50812">
        <ele>240.96</ele>
        <time>2022-03-31T11:39:00Z</time>
      </trkpt>
      <trkpt lat="43.52492" lon="5.50821">
        <ele>241.48</ele>
        <time>2022-03-31T11:39:09Z</time>
      </trkpt>
      <trkpt lat="43.525" lon="5.50827">
        <ele>240.81</ele>
        <time>2022-03-31T11:39:19Z</time>
      </trkpt>
      <trkpt lat="43.52508" lon="5.50842">
        <ele>240.59</ele>
        <time>2022-03-31T11:39:38Z</time>
      </trkpt>
      <trkpt lat="43.52511" lon="5.50872">
        <ele>239.97</ele>
        <time>2022-03-31T11:39:58Z</time>
      </trkpt>
      <trkpt lat="43.52507" lon="5.50888">
        <ele>239.3</ele>
        <time>2022-03-31T11:40:09Z</time>
      </trkpt>
      <trkpt lat="43.52502" lon="5.50913">
        <ele>237.7</ele>
        <time>2022-03-31T11:40:25Z</time>
      </trkpt>
      <trkpt lat="43.52498" lon="5.50922">
        <ele>236.57</ele>
        <time>2022-03-31T11:40:38Z</time>
      </trkpt>
      <trkpt lat="43.52492" lon="5.50926">
        <ele>236.79</ele>
        <time>2022-03-31T11:40:55Z</time>
      </trkpt>
      <trkpt lat="43.52497" lon="5.50926">
        <ele>236.66</ele>
        <time>2022-03-31T11:41:04Z</time>
      </trkpt>
      <trkpt lat="43.52504" lon="5.50936">
        <ele>236.33</ele>
        <time>2022-03-31T11:41:15Z</time>
      </trkpt>
      <trkpt lat="43.52511" lon="5.50949">
        <ele>233.6</ele>
        <time>2022-03-31T11:41:32Z</time>
      </trkpt>
      <trkpt lat="43.52515" lon="5.50951">
        <ele>232.38</ele>
        <time>2022-03-31T11:41:41Z</time>
      </trkpt>
      <trkpt lat="43.52519" lon="5.50956">
        <ele>230.02</ele>
        <time>2022-03-31T11:41:54Z</time>
      </trkpt>
      <trkpt lat="43.52518" lon="5.50963">
        <ele>226.95</ele>
        <time>2022-03-31T11:42:11Z</time>
      </trkpt>
      <trkpt lat="43.52529" lon="5.50972">
        <ele>224.24</ele>
        <time>2022-03-31T11:42:30Z</time>
      </trkpt>
      <trkpt lat="43.52527" lon="5.50979">
        <ele>221.3</ele>
        <time>2022-03-31T11:42:43Z</time>
      </trkpt>
      <trkpt lat="43.52524" lon="5.50986">
        <ele>218.55</ele>
        <time>2022-03-31T11:42:59Z</time>
      </trkpt>
      <trkpt lat="43.52532" lon="5.50994">
        <ele>215.54</ele>
        <time>2022-03-31T11:43:13Z</time>
      </trkpt>
      <trkpt lat="43.52532" lon="5.51002">
        <ele>213.33</ele>
        <time>2022-03-31T11:43:26Z</time>
      </trkpt>
      <trkpt lat="43.52531" lon="5.51014">
        <ele>210.32</ele>
        <time>2022-03-31T11:43:43Z</time>
      </trkpt>
      <trkpt lat="43.5253" lon="5.5102">
        <ele>210.31</ele>
        <time>2022-03-31T11:43:54Z</time>
      </trkpt>
      <trkpt lat="43.52534" lon="5.51026">
        <ele>208.41</ele>
        <time>2022-03-31T11:44:09Z</time>
      </trkpt>
      <trkpt lat="43.52542" lon="5.51033">
        <ele>206.48</ele>
        <time>2022-03-31T11:44:28Z</time>
      </trkpt>
      <trkpt lat="43.52545" lon="5.51053">
        <ele>205.43</ele>
        <time>2022-03-31T11:44:46Z</time>
      </trkpt>
      <trkpt lat="43.52544" lon="5.51064">
        <ele>204.5</ele>
        <time>2022-03-31T11:45:02Z</time>
      </trkpt>
      <trkpt lat="43.52542" lon="5.51073">
        <ele>205.49</ele>
        <time>2022-03-31T11:45:21Z</time>
      </trkpt>
      <trkpt lat="43.52539" lon="5.51078">
        <ele>204.76</ele>
        <time>2022-03-31T11:45:43Z</time>
      </trkpt>
      <trkpt lat="43.5254" lon="5.51082">
        <ele>204.89</ele>
        <time>2022-03-31T11:46:05Z</time>
      </trkpt>
      <trkpt lat="43.52541" lon="5.5108">
        <ele>205.48</ele>
        <time>2022-03-31T11:46:47Z</time>
      </trkpt>
      <trkpt lat="43.52539" lon="5.51083">
        <ele>204.05</ele>
        <time>2022-03-31T11:47:03Z</time>
      </trkpt>
      <trkpt lat="43.52542" lon="5.51078">
        <ele>205.12</ele>
        <time>2022-03-31T11:47:22Z</time>
      </trkpt>
      <trkpt lat="43.52545" lon="5.51073">
        <ele>203.5</ele>
        <time>2022-03-31T11:47:39Z</time>
      </trkpt>
      <trkpt lat="43.5255" lon="5.51071">
        <ele>203.85</ele>
        <time>2022-03-31T11:48:03Z</time>
      </trkpt>
      <trkpt lat="43.52553" lon="5.51078">
        <ele>203.98</ele>
        <time>2022-03-31T11:48:18Z</time>
      </trkpt>
      <trkpt lat="43.52559" lon="5.51076">
        <ele>203.74</ele>
        <time>2022-03-31T11:48:33Z</time>
      </trkpt>
      <trkpt lat="43.52561" lon="5.51092">
        <ele>203.51</ele>
        <time>2022-03-31T11:48:49Z</time>
      </trkpt>
      <trkpt lat="43.52558" lon="5.51098">
        <ele>203.51</ele>
        <time>2022-03-31T11:49:01Z</time>
      </trkpt>
      <trkpt lat="43.52541" lon="5.5109">
        <ele>203.51</ele>
        <time>2022-03-31T11:49:18Z</time>
      </trkpt>
      <trkpt lat="43.5254" lon="5.5109">
        <ele>202.04</ele>
        <time>2022-03-31T11:49:22Z</time>
      </trkpt>
      <trkpt lat="43.52543" lon="5.51087">
        <ele>203.48</ele>
        <time>2022-03-31T11:49:58Z</time>
      </trkpt>
      <trkpt lat="43.52557" lon="5.51112">
        <ele>204.3</ele>
        <time>2022-03-31T11:50:13Z</time>
      </trkpt>
      <trkpt lat="43.5256" lon="5.51127">
        <ele>204.6</ele>
        <time>2022-03-31T11:50:22Z</time>
      </trkpt>
      <trkpt lat="43.52565" lon="5.51149">
        <ele>205.39</ele>
        <time>2022-03-31T11:50:38Z</time>
      </trkpt>
      <trkpt lat="43.52566" lon="5.51175">
        <ele>207.1</ele>
        <time>2022-03-31T11:50:54Z</time>
      </trkpt>
      <trkpt lat="43.52573" lon="5.51195">
        <ele>209.51</ele>
        <time>2022-03-31T11:51:10Z</time>
      </trkpt>
      <trkpt lat="43.52573" lon="5.51217">
        <ele>211.95</ele>
        <time>2022-03-31T11:51:26Z</time>
      </trkpt>
      <trkpt lat="43.52572" lon="5.51244">
        <ele>214.2</ele>
        <time>2022-03-31T11:51:44Z</time>
      </trkpt>
      <trkpt lat="43.52572" lon="5.51264">
        <ele>216.88</ele>
        <time>2022-03-31T11:52:01Z</time>
      </trkpt>
      <trkpt lat="43.5257" lon="5.51287">
        <ele>219.7</ele>
        <time>2022-03-31T11:52:17Z</time>
      </trkpt>
      <trkpt lat="43.52577" lon="5.51308">
        <ele>221.68</ele>
        <time>2022-03-31T11:52:34Z</time>
      </trkpt>
      <trkpt lat="43.52576" lon="5.51315">
        <ele>222.09</ele>
        <time>2022-03-31T11:52:39Z</time>
      </trkpt>
      <trkpt lat="43.52576" lon="5.51317">
        <ele>222.18</ele>
        <time>2022-03-31T11:52:40Z</time>
      </trkpt>
      <trkpt lat="43.52577" lon="5.51318">
        <ele>222.27</ele>
        <time>2022-03-31T11:52:41Z</time>
      </trkpt>
      <trkpt lat="43.52583" lon="5.51333">
        <ele>223.04</ele>
        <time>2022-03-31T11:52:54Z</time>
      </trkpt>
      <trkpt lat="43.52594" lon="5.5135">
        <ele>225.64</ele>
        <time>2022-03-31T11:53:12Z</time>
      </trkpt>
      <trkpt lat="43.52597" lon="5.51369">
        <ele>228.65</ele>
        <time>2022-03-31T11:53:29Z</time>
      </trkpt>
      <trkpt lat="43.52595" lon="5.51386">
        <ele>230.61</ele>
        <time>2022-03-31T11:53:44Z</time>
      </trkpt>
      <trkpt lat="43.52605" lon="5.51399">
        <ele>233.03</ele>
        <time>2022-03-31T11:54:00Z</time>
      </trkpt>
      <trkpt lat="43.5261" lon="5.51418">
        <ele>236.05</ele>
        <time>2022-03-31T11:54:18Z</time>
      </trkpt>
      <trkpt lat="43.52616" lon="5.51434">
        <ele>238.54</ele>
        <time>2022-03-31T11:54:35Z</time>
      </trkpt>
      <trkpt lat="43.52614" lon="5.5145">
        <ele>240.79</ele>
        <time>2022-03-31T11:54:50Z</time>
      </trkpt>
      <trkpt lat="43.52611" lon="5.51471">
        <ele>242.76</ele>
        <time>2022-03-31T11:55:07Z</time>
      </trkpt>
      <trkpt lat="43.52611" lon="5.51492">
        <ele>245.2</ele>
        <time>2022-03-31T11:55:26Z</time>
      </trkpt>
      <trkpt lat="43.52613" lon="5.51511">
        <ele>247.87</ele>
        <time>2022-03-31T11:55:43Z</time>
      </trkpt>
      <trkpt lat="43.52615" lon="5.5153">
        <ele>249.67</ele>
        <time>2022-03-31T11:56:01Z</time>
      </trkpt>
      <trkpt lat="43.52619" lon="5.51549">
        <ele>251.3</ele>
        <time>2022-03-31T11:56:17Z</time>
      </trkpt>
      <trkpt lat="43.52617" lon="5.51567">
        <ele>252.79</ele>
        <time>2022-03-31T11:56:33Z</time>
      </trkpt>
      <trkpt lat="43.5261" lon="5.51582">
        <ele>255.09</ele>
        <time>2022-03-31T11:56:49Z</time>
      </trkpt>
      <trkpt lat="43.52605" lon="5.51599">
        <ele>257.58</ele>
        <time>2022-03-31T11:57:06Z</time>
      </trkpt>
      <trkpt lat="43.52602" lon="5.51617">
        <ele>260.3</ele>
        <time>2022-03-31T11:57:24Z</time>
      </trkpt>
      <trkpt lat="43.52598" lon="5.51639">
        <ele>262.68</ele>
        <time>2022-03-31T11:57:43Z</time>
      </trkpt>
      <trkpt lat="43.52593" lon="5.51657">
        <ele>264.3</ele>
        <time>2022-03-31T11:58:01Z</time>
      </trkpt>
      <trkpt lat="43.52589" lon="5.51676">
        <ele>266.4</ele>
        <time>2022-03-31T11:58:18Z</time>
      </trkpt>
      <trkpt lat="43.52587" lon="5.5169">
        <ele>269.47</ele>
        <time>2022-03-31T11:58:33Z</time>
      </trkpt>
      <trkpt lat="43.5259" lon="5.51705">
        <ele>272.37</ele>
        <time>2022-03-31T11:58:51Z</time>
      </trkpt>
      <trkpt lat="43.52587" lon="5.51729">
        <ele>275.24</ele>
        <time>2022-03-31T11:59:09Z</time>
      </trkpt>
      <trkpt lat="43.52581" lon="5.51751">
        <ele>278.07</ele>
        <time>2022-03-31T11:59:30Z</time>
      </trkpt>
      <trkpt lat="43.52581" lon="5.51764">
        <ele>280.89</ele>
        <time>2022-03-31T11:59:46Z</time>
      </trkpt>
      <trkpt lat="43.52583" lon="5.51774">
        <ele>283.42</ele>
        <time>2022-03-31T12:00:01Z</time>
      </trkpt>
      <trkpt lat="43.52578" lon="5.51787">
        <ele>286.02</ele>
        <time>2022-03-31T12:00:13Z</time>
      </trkpt>
      <trkpt lat="43.52572" lon="5.51807">
        <ele>288.45</ele>
        <time>2022-03-31T12:00:34Z</time>
      </trkpt>
      <trkpt lat="43.5257" lon="5.51827">
        <ele>290.89</ele>
        <time>2022-03-31T12:00:51Z</time>
      </trkpt>
      <trkpt lat="43.52568" lon="5.51832">
        <ele>292.65</ele>
        <time>2022-03-31T12:01:05Z</time>
      </trkpt>
      <trkpt lat="43.52561" lon="5.51831">
        <ele>293.1</ele>
        <time>2022-03-31T12:01:20Z</time>
      </trkpt>
      <trkpt lat="43.52557" lon="5.51828">
        <ele>295.36</ele>
        <time>2022-03-31T12:01:35Z</time>
      </trkpt>
      <trkpt lat="43.52557" lon="5.51826">
        <ele>295.39</ele>
        <time>2022-03-31T12:01:56Z</time>
      </trkpt>
      <trkpt lat="43.52556" lon="5.51825">
        <ele>295.19</ele>
        <time>2022-03-31T12:02:15Z</time>
      </trkpt>
      <trkpt lat="43.52549" lon="5.51823">
        <ele>293.17</ele>
        <time>2022-03-31T12:02:34Z</time>
      </trkpt>
      <trkpt lat="43.52543" lon="5.51823">
        <ele>290.66</ele>
        <time>2022-03-31T12:02:48Z</time>
      </trkpt>
      <trkpt lat="43.52536" lon="5.51825">
        <ele>288.95</ele>
        <time>2022-03-31T12:03:06Z</time>
      </trkpt>
      <trkpt lat="43.52533" lon="5.51822">
        <ele>285.81</ele>
        <time>2022-03-31T12:03:18Z</time>
      </trkpt>
      <trkpt lat="43.52531" lon="5.51818">
        <ele>284.25</ele>
        <time>2022-03-31T12:03:25Z</time>
      </trkpt>
      <trkpt lat="43.52527" lon="5.51807">
        <ele>281.12</ele>
        <time>2022-03-31T12:03:41Z</time>
      </trkpt>
      <trkpt lat="43.52518" lon="5.51798">
        <ele>279.31</ele>
        <time>2022-03-31T12:03:59Z</time>
      </trkpt>
      <trkpt lat="43.52515" lon="5.51787">
        <ele>276.98</ele>
        <time>2022-03-31T12:04:15Z</time>
      </trkpt>
      <trkpt lat="43.5251" lon="5.51779">
        <ele>273.93</ele>
        <time>2022-03-31T12:04:31Z</time>
      </trkpt>
      <trkpt lat="43.52502" lon="5.51775">
        <ele>273.32</ele>
        <time>2022-03-31T12:04:44Z</time>
      </trkpt>
      <trkpt lat="43.5249" lon="5.51768">
        <ele>270.31</ele>
        <time>2022-03-31T12:04:56Z</time>
      </trkpt>
      <trkpt lat="43.52486" lon="5.51753">
        <ele>267.64</ele>
        <time>2022-03-31T12:05:09Z</time>
      </trkpt>
      <trkpt lat="43.52478" lon="5.5174">
        <ele>264.56</ele>
        <time>2022-03-31T12:05:27Z</time>
      </trkpt>
      <trkpt lat="43.52479" lon="5.51724">
        <ele>263.08</ele>
        <time>2022-03-31T12:05:41Z</time>
      </trkpt>
      <trkpt lat="43.52479" lon="5.51721">
        <ele>263.34</ele>
        <time>2022-03-31T12:05:43Z</time>
      </trkpt>
      <trkpt lat="43.52482" lon="5.51694">
        <ele>262.08</ele>
        <time>2022-03-31T12:06:00Z</time>
      </trkpt>
      <trkpt lat="43.52483" lon="5.51693">
        <ele>261.9</ele>
        <time>2022-03-31T12:06:01Z</time>
      </trkpt>
      <trkpt lat="43.52485" lon="5.51677">
        <ele>261.31</ele>
        <time>2022-03-31T12:06:13Z</time>
      </trkpt>
      <trkpt lat="43.52483" lon="5.51674">
        <ele>261.56</ele>
        <time>2022-03-31T12:06:31Z</time>
      </trkpt>
      <trkpt lat="43.52483" lon="5.51674">
        <ele>261.46</ele>
        <time>2022-03-31T12:06:44Z</time>
      </trkpt>
      <trkpt lat="43.52485" lon="5.51668">
        <ele>261.25</ele>
        <time>2022-03-31T12:06:50Z</time>
      </trkpt>
      <trkpt lat="43.52484" lon="5.51654">
        <ele>260.58</ele>
        <time>2022-03-31T12:07:02Z</time>
      </trkpt>
      <trkpt lat="43.52484" lon="5.51636">
        <ele>258.39</ele>
        <time>2022-03-31T12:07:16Z</time>
      </trkpt>
      <trkpt lat="43.52486" lon="5.51613">
        <ele>257.24</ele>
        <time>2022-03-31T12:07:35Z</time>
      </trkpt>
      <trkpt lat="43.52484" lon="5.51587">
        <ele>256.22</ele>
        <time>2022-03-31T12:07:53Z</time>
      </trkpt>
      <trkpt lat="43.52485" lon="5.5156">
        <ele>253.47</ele>
        <time>2022-03-31T12:08:11Z</time>
      </trkpt>
      <trkpt lat="43.52484" lon="5.51542">
        <ele>250.82</ele>
        <time>2022-03-31T12:08:28Z</time>
      </trkpt>
      <trkpt lat="43.52486" lon="5.51532">
        <ele>250.07</ele>
        <time>2022-03-31T12:08:48Z</time>
      </trkpt>
      <trkpt lat="43.52484" lon="5.5151">
        <ele>247.67</ele>
        <time>2022-03-31T12:09:03Z</time>
      </trkpt>
      <trkpt lat="43.52481" lon="5.51493">
        <ele>244.6</ele>
        <time>2022-03-31T12:09:16Z</time>
      </trkpt>
      <trkpt lat="43.52473" lon="5.51494">
        <ele>243.17</ele>
        <time>2022-03-31T12:09:31Z</time>
      </trkpt>
      <trkpt lat="43.52462" lon="5.51514">
        <ele>241.35</ele>
        <time>2022-03-31T12:09:48Z</time>
      </trkpt>
      <trkpt lat="43.52453" lon="5.51522">
        <ele>241.11</ele>
        <time>2022-03-31T12:09:54Z</time>
      </trkpt>
      <trkpt lat="43.52452" lon="5.51523">
        <ele>241.06</ele>
        <time>2022-03-31T12:09:55Z</time>
      </trkpt>
      <trkpt lat="43.52444" lon="5.51526">
        <ele>240.62</ele>
        <time>2022-03-31T12:10:02Z</time>
      </trkpt>
      <trkpt lat="43.52428" lon="5.51527">
        <ele>238.83</ele>
        <time>2022-03-31T12:10:17Z</time>
      </trkpt>
      <trkpt lat="43.52419" lon="5.51518">
        <ele>237.35</ele>
        <time>2022-03-31T12:10:27Z</time>
      </trkpt>
      <trkpt lat="43.52415" lon="5.51514">
        <ele>236.84</ele>
        <time>2022-03-31T12:10:31Z</time>
      </trkpt>
      <trkpt lat="43.52402" lon="5.51503">
        <ele>235.63</ele>
        <time>2022-03-31T12:10:44Z</time>
      </trkpt>
      <trkpt lat="43.52393" lon="5.51497">
        <ele>234</ele>
        <time>2022-03-31T12:10:52Z</time>
      </trkpt>
      <trkpt lat="43.52388" lon="5.5149">
        <ele>233.28</ele>
        <time>2022-03-31T12:11:00Z</time>
      </trkpt>
      <trkpt lat="43.52377" lon="5.51471">
        <ele>230.1</ele>
        <time>2022-03-31T12:11:18Z</time>
      </trkpt>
      <trkpt lat="43.52383" lon="5.51463">
        <ele>229.24</ele>
        <time>2022-03-31T12:11:30Z</time>
      </trkpt>
      <trkpt lat="43.5239" lon="5.51445">
        <ele>228.2</ele>
        <time>2022-03-31T12:11:47Z</time>
      </trkpt>
      <trkpt lat="43.52393" lon="5.51419">
        <ele>226.5</ele>
        <time>2022-03-31T12:12:01Z</time>
      </trkpt>
      <trkpt lat="43.52394" lon="5.51408">
        <ele>224.51</ele>
        <time>2022-03-31T12:12:12Z</time>
      </trkpt>
    </trkseg>
  </trk>
</gpx>